Darstellungsparameter: Aktuell verwendete Einstellungen:
Skalierung der Graphiken ... ?
xyx+y,   Skalierungsfaktor:      Skalierung: Modus: x, Faktor: 1
Darstellungszeitraum ... ?
Vom - - bis: - -   Zeitraum: 14.02.2019 - 13.08.2019
Min/Max/Avg-Anzeige ... ?
Zeige MMA aktuell
Zeige MMA Monat
Zeige MMA alles
Zeige --A aktuell
Zeige --A Monat
Zeige --A alles
Keine MMA-Anzeige
MMA:
Minimum Maximum Average (ber die Originaldaten)
MMA-Basis: 14.02.2019 - 13.08.2019
Quicknavigation für Darstellung... ?
Tage:      1T, 2T, 3T, 5T -1T -2T -3T -5T +1T +2T +3T +5T
Wochen: 1W, 2W, 3W -1W -2W -3W +1W +2W +3W
Monate: 1M, 3M, 6M -1M -3M -6M +1M +3M +6M
Jahre:    1J, 3J, 5J, 10J -1J -3J -5J -10J +1J +3J +5J +10J
Nutze für die Darstellung ... ?
Originaldaten oder Mittelwerte auf ...
Stundenbasis Tagesbasis Wochenbasis
Monatsbasis Jahresbasis      Datenbasis: Original-Daten
Darstellen als:
Statistik (Auto) Statistik J:M      Darstellung:
Zur Graphik,    zurück zur Übersicht aller Sensoren.
 
Tabellarische Datenbersicht: ?
 
Sensor: Nr:Datum:Temp:Feuchte:Taupunkt:
Aussen-T/F 1 14-02-2019 00:00:00 -0.7 C 93 % -1.69 C
2 14-02-2019 00:05:00 -0.7 C 93 % -1.69 C
3 14-02-2019 00:10:00 -0.7 C 93 % -1.69 C
4 14-02-2019 00:15:00 -0.7 C 93 % -1.69 C
5 14-02-2019 00:20:00 -0.7 C 94 % -1.54 C
6 14-02-2019 00:25:00 -0.7 C 94 % -1.54 C
7 14-02-2019 00:30:00 -0.6 C 94 % -1.44 C
8 14-02-2019 00:35:00 -0.6 C 93 % -1.59 C
9 14-02-2019 00:40:00 -0.7 C 93 % -1.69 C
10 14-02-2019 00:45:00 -0.8 C 93 % -1.79 C
11 14-02-2019 00:50:00 -0.8 C 93 % -1.79 C
12 14-02-2019 00:55:00 -0.9 C 93 % -1.89 C
13 14-02-2019 01:00:00 -1 C 93 % -1.99 C
14 14-02-2019 01:05:00 -1 C 94 % -1.84 C
15 14-02-2019 01:10:00 -1 C 94 % -1.84 C
16 14-02-2019 01:15:00 -1 C 94 % -1.84 C
17 14-02-2019 01:20:00 -1.1 C 94 % -1.94 C
18 14-02-2019 01:25:00 -1.1 C 94 % -1.94 C
19 14-02-2019 01:30:00 -1.1 C 94 % -1.94 C
20 14-02-2019 01:35:00 -1.1 C 94 % -1.94 C
21 14-02-2019 01:40:00 -1.1 C 94 % -1.94 C
22 14-02-2019 01:45:00 -1.1 C 94 % -1.94 C
23 14-02-2019 01:50:00 -1.1 C 94 % -1.94 C
24 14-02-2019 01:55:00 -1 C 94 % -1.84 C
25 14-02-2019 02:00:00 -1.1 C 94 % -1.94 C
Sensor: Nr:Datum:Temp:Feuchte:Taupunkt:
Aussen-T/F 26 14-02-2019 02:05:00 -1.1 C 94 % -1.94 C
27 14-02-2019 02:10:00 -1.2 C 94 % -2.04 C
28 14-02-2019 02:15:00 -1.2 C 94 % -2.04 C
29 14-02-2019 02:20:00 -1.2 C 94 % -2.04 C
30 14-02-2019 02:25:00 -1.1 C 94 % -1.94 C
31 14-02-2019 02:30:00 -1 C 95 % -1.7 C
32 14-02-2019 02:35:00 -0.9 C 95 % -1.6 C
33 14-02-2019 02:40:00 -0.9 C 95 % -1.6 C
34 14-02-2019 02:45:00 -1 C 94 % -1.84 C
35 14-02-2019 02:50:00 -1.2 C 94 % -2.04 C
36 14-02-2019 02:55:00 -1.3 C 94 % -2.14 C
37 14-02-2019 03:00:00 -1.3 C 94 % -2.14 C
38 14-02-2019 03:05:00 -1.2 C 94 % -2.04 C
39 14-02-2019 03:10:00 -1.3 C 94 % -2.14 C
40 14-02-2019 03:15:00 -1.4 C 94 % -2.24 C
41 14-02-2019 03:20:00 -1.5 C 94 % -2.34 C
42 14-02-2019 03:25:00 -1.6 C 94 % -2.44 C
43 14-02-2019 03:30:00 -1.6 C 94 % -2.44 C
44 14-02-2019 03:35:00 -1.7 C 94 % -2.54 C
45 14-02-2019 03:40:00 -1.6 C 95 % -2.29 C
46 14-02-2019 03:45:00 -1.7 C 94 % -2.54 C
47 14-02-2019 03:50:00 -1.7 C 94 % -2.54 C
48 14-02-2019 03:55:00 -1.8 C 94 % -2.64 C
49 14-02-2019 04:00:00 -1.8 C 94 % -2.64 C
50 14-02-2019 04:05:00 -1.8 C 94 % -2.64 C
Sensor: Nr:Datum:Temp:Feuchte:Taupunkt:
Aussen-T/F 51 14-02-2019 04:10:00 -1.8 C 95 % -2.49 C
52 14-02-2019 04:15:00 -1.8 C 95 % -2.49 C
53 14-02-2019 04:20:00 -1.8 C 95 % -2.49 C
54 14-02-2019 04:25:00 -1.8 C 95 % -2.49 C
55 14-02-2019 04:30:00 -1.8 C 95 % -2.49 C
56 14-02-2019 04:35:00 -1.8 C 95 % -2.49 C
57 14-02-2019 04:40:00 -1.7 C 95 % -2.39 C
58 14-02-2019 04:45:00 -1.7 C 95 % -2.39 C
59 14-02-2019 04:50:00 -1.7 C 95 % -2.39 C
60 14-02-2019 04:55:00 -1.8 C 95 % -2.49 C
61 14-02-2019 05:00:00 -1.9 C 95 % -2.59 C
62 14-02-2019 05:05:00 -1.9 C 95 % -2.59 C
63 14-02-2019 05:10:00 -1.9 C 95 % -2.59 C
64 14-02-2019 05:15:00 -1.9 C 95 % -2.59 C
65 14-02-2019 05:20:00 -2 C 95 % -2.69 C
66 14-02-2019 05:25:00 -2.1 C 95 % -2.79 C
67 14-02-2019 05:30:00 -2 C 95 % -2.69 C
68 14-02-2019 05:35:00 -1.8 C 95 % -2.49 C
69 14-02-2019 05:40:00 -1.8 C 95 % -2.49 C
70 14-02-2019 05:45:00 -2 C 95 % -2.69 C
71 14-02-2019 05:50:00 -2.1 C 95 % -2.79 C
72 14-02-2019 05:55:00 -2.2 C 95 % -2.89 C
73 14-02-2019 06:00:00 -2.3 C 95 % -2.99 C
74 14-02-2019 06:05:00 -2.4 C 95 % -3.09 C
75 14-02-2019 06:10:00 -2.4 C 95 % -3.09 C
Sensor: Nr:Datum:Temp:Feuchte:Taupunkt:
Aussen-T/F 76 14-02-2019 06:15:00 -2.4 C 95 % -3.09 C
77 14-02-2019 06:20:00 -2.6 C 95 % -3.29 C
78 14-02-2019 06:25:00 -2.6 C 95 % -3.29 C
79 14-02-2019 06:30:00 -2.4 C 95 % -3.09 C
80 14-02-2019 06:35:00 -2.4 C 95 % -3.09 C
81 14-02-2019 06:40:00 -2.4 C 95 % -3.09 C
82 14-02-2019 06:45:00 -2.4 C 95 % -3.09 C
83 14-02-2019 06:50:00 -2.5 C 95 % -3.19 C
84 14-02-2019 06:55:00 -2.6 C 95 % -3.29 C
85 14-02-2019 07:00:00 -2.7 C 95 % -3.39 C
86 14-02-2019 07:05:00 -2.7 C 95 % -3.39 C
87 14-02-2019 07:10:00 -2.7 C 95 % -3.39 C
88 14-02-2019 07:15:00 -2.7 C 95 % -3.39 C
89 14-02-2019 07:20:00 -2.7 C 95 % -3.39 C
90 14-02-2019 07:25:00 -2.6 C 95 % -3.29 C
91 14-02-2019 07:30:00 -2.6 C 95 % -3.29 C
92 14-02-2019 07:35:00 -2.7 C 95 % -3.39 C
93 14-02-2019 07:40:00 -2.6 C 95 % -3.29 C
94 14-02-2019 07:45:00 -2.6 C 95 % -3.29 C
95 14-02-2019 07:50:00 -2.6 C 96 % -3.15 C
96 14-02-2019 07:55:00 -2.6 C 96 % -3.15 C
97 14-02-2019 08:00:00 -2.6 C 95 % -3.29 C
98 14-02-2019 08:05:00 -2.6 C 95 % -3.29 C
99 14-02-2019 08:10:00 -2.6 C 95 % -3.29 C
100 14-02-2019 08:15:00 -2.6 C 95 % -3.29 C
Sensor: Nr:Datum:Temp:Feuchte:Taupunkt:
Aussen-T/F 101 14-02-2019 08:20:00 -2.6 C 95 % -3.29 C
102 14-02-2019 08:25:00 -2.6 C 96 % -3.15 C
103 14-02-2019 08:30:00 -2.4 C 96 % -2.95 C
104 14-02-2019 08:35:00 -2.3 C 96 % -2.85 C
105 14-02-2019 08:40:00 -2.3 C 96 % -2.85 C
106 14-02-2019 08:45:00 -2.2 C 96 % -2.75 C
107 14-02-2019 08:50:00 -2.2 C 96 % -2.75 C
108 14-02-2019 08:55:00 -2.2 C 96 % -2.75 C
109 14-02-2019 09:00:00 -2.1 C 96 % -2.65 C
110 14-02-2019 09:05:00 -2.1 C 96 % -2.65 C
111 14-02-2019 09:10:00 -2.1 C 96 % -2.65 C
112 14-02-2019 09:15:00 -2.1 C 96 % -2.65 C
113 14-02-2019 09:20:00 -2.1 C 96 % -2.65 C
114 14-02-2019 09:25:00 -2.1 C 96 % -2.65 C
115 14-02-2019 09:30:00 -2 C 96 % -2.55 C
116 14-02-2019 09:35:00 -2.1 C 96 % -2.65 C
117 14-02-2019 09:40:00 -2.1 C 96 % -2.65 C
118 14-02-2019 09:45:00 -2 C 96 % -2.55 C
119 14-02-2019 09:50:00 -2.1 C 96 % -2.65 C
120 14-02-2019 09:55:00 -2.1 C 96 % -2.65 C
121 14-02-2019 10:00:00 -2.1 C 96 % -2.65 C
122 14-02-2019 10:05:00 -2.1 C 96 % -2.65 C
123 14-02-2019 10:10:00 -2 C 96 % -2.55 C
124 14-02-2019 10:15:00 -1.9 C 96 % -2.45 C
125 14-02-2019 10:20:00 -1.8 C 96 % -2.35 C
Sensor: Nr:Datum:Temp:Feuchte:Taupunkt:
Aussen-T/F 126 14-02-2019 10:25:00 -1.7 C 96 % -2.25 C
127 14-02-2019 10:30:00 -1.6 C 96 % -2.15 C
128 14-02-2019 10:35:00 -1.5 C 96 % -2.05 C
129 14-02-2019 10:40:00 -1.4 C 96 % -1.95 C
130 14-02-2019 10:45:00 -1.4 C 96 % -1.95 C
131 14-02-2019 10:50:00 -1.4 C 96 % -1.95 C
132 14-02-2019 10:55:00 -1.4 C 96 % -1.95 C
133 14-02-2019 11:00:00 -1.3 C 96 % -1.85 C
134 14-02-2019 11:05:00 -1.3 C 96 % -1.85 C
135 14-02-2019 11:10:00 -1.2 C 96 % -1.75 C
136 14-02-2019 11:15:00 -1.2 C 96 % -1.75 C
137 14-02-2019 11:20:00 -1.1 C 96 % -1.66 C
138 14-02-2019 11:25:00 -1.1 C 96 % -1.66 C
139 14-02-2019 11:30:00 -0.9 C 97 % -1.32 C
140 14-02-2019 11:35:00 -0.8 C 96 % -1.36 C
141 14-02-2019 11:40:00 -0.7 C 97 % -1.12 C
142 14-02-2019 11:45:00 -0.6 C 97 % -1.02 C
143 14-02-2019 11:50:00 -0.4 C 97 % -0.82 C
144 14-02-2019 11:55:00 -0.2 C 97 % -0.62 C
145 14-02-2019 12:00:00 -0.1 C 97 % -0.52 C
146 14-02-2019 12:05:00 0.1 C 97 % -0.32 C
147 14-02-2019 12:10:00 0.1 C 97 % -0.32 C
148 14-02-2019 12:15:00 0.2 C 97 % -0.22 C
149 14-02-2019 12:20:00 0.3 C 97 % -0.12 C
150 14-02-2019 12:25:00 0.4 C 97 % -0.02 C
Sensor: Nr:Datum:Temp:Feuchte:Taupunkt:
Aussen-T/F 151 14-02-2019 12:30:00 0.6 C 97 % 0.18 C
152 14-02-2019 12:35:00 0.8 C 97 % 0.38 C
153 14-02-2019 12:40:00 1.1 C 97 % 0.68 C
154 14-02-2019 12:45:00 1.3 C 97 % 0.88 C
155 14-02-2019 12:50:00 1.6 C 97 % 1.18 C
156 14-02-2019 12:55:00 1.7 C 97 % 1.28 C
157 14-02-2019 13:00:00 1.8 C 97 % 1.38 C
158 14-02-2019 13:05:00 1.9 C 97 % 1.48 C
159 14-02-2019 13:10:00 2.1 C 97 % 1.67 C
160 14-02-2019 13:15:00 2.2 C 97 % 1.77 C
161 14-02-2019 13:20:00 2.4 C 97 % 1.97 C
162 14-02-2019 13:25:00 2.6 C 97 % 2.17 C
163 14-02-2019 13:30:00 2.8 C 97 % 2.37 C
164 14-02-2019 13:35:00 3 C 97 % 2.57 C
165 14-02-2019 13:40:00 3.3 C 97 % 2.87 C
166 14-02-2019 13:45:00 3.5 C 97 % 3.07 C
167 14-02-2019 13:50:00 3.7 C 97 % 3.27 C
168 14-02-2019 13:55:00 3.8 C 96 % 3.22 C
169 14-02-2019 14:00:00 3.9 C 96 % 3.32 C
170 14-02-2019 14:05:00 4.2 C 96 % 3.62 C
171 14-02-2019 14:10:00 4.3 C 96 % 3.72 C
172 14-02-2019 14:15:00 4.4 C 95 % 3.67 C
173 14-02-2019 14:20:00 4.4 C 94 % 3.52 C
174 14-02-2019 14:25:00 4.5 C 94 % 3.62 C
175 14-02-2019 14:30:00 4.6 C 94 % 3.72 C
Sensor: Nr:Datum:Temp:Feuchte:Taupunkt:
Aussen-T/F 176 14-02-2019 14:35:00 4.8 C 94 % 3.92 C
177 14-02-2019 14:40:00 4.9 C 94 % 4.02 C
178 14-02-2019 14:45:00 5.1 C 94 % 4.22 C
179 14-02-2019 14:50:00 5.3 C 94 % 4.41 C
180 14-02-2019 14:55:00 5.5 C 93 % 4.46 C
181 14-02-2019 15:00:00 5.7 C 93 % 4.66 C
182 14-02-2019 15:05:00 6 C 93 % 4.96 C
183 14-02-2019 15:10:00 6.3 C 93 % 5.25 C
184 14-02-2019 15:15:00 6.6 C 92 % 5.4 C
185 14-02-2019 15:20:00 6.7 C 91 % 5.34 C
186 14-02-2019 15:25:00 6.7 C 90 % 5.18 C
187 14-02-2019 15:30:00 6.7 C 89 % 5.02 C
188 14-02-2019 15:35:00 6.7 C 89 % 5.02 C
189 14-02-2019 15:40:00 6.7 C 89 % 5.02 C
190 14-02-2019 15:45:00 6.6 C 89 % 4.92 C
191 14-02-2019 15:50:00 6.6 C 88 % 4.76 C
192 14-02-2019 15:55:00 6.5 C 88 % 4.66 C
193 14-02-2019 16:00:00 6.4 C 88 % 4.56 C
194 14-02-2019 16:05:00 6.4 C 88 % 4.56 C
195 14-02-2019 16:10:00 6.3 C 88 % 4.46 C
196 14-02-2019 16:15:00 6.3 C 88 % 4.46 C
197 14-02-2019 16:20:00 6.2 C 88 % 4.36 C
198 14-02-2019 16:25:00 6.1 C 88 % 4.27 C
199 14-02-2019 16:30:00 6.1 C 88 % 4.27 C
200 14-02-2019 16:35:00 5.9 C 88 % 4.07 C
Sensor: Nr:Datum:Temp:Feuchte:Taupunkt:
Aussen-T/F 201 14-02-2019 16:40:00 5.9 C 88 % 4.07 C
202 14-02-2019 16:45:00 5.8 C 88 % 3.97 C
203 14-02-2019 16:50:00 5.8 C 88 % 3.97 C
204 14-02-2019 16:55:00 5.8 C 89 % 4.13 C
205 14-02-2019 17:00:00 5.8 C 88 % 3.97 C
206 14-02-2019 17:05:00 5.8 C 88 % 3.97 C
207 14-02-2019 17:10:00 5.8 C 88 % 3.97 C
208 14-02-2019 17:15:00 5.7 C 87 % 3.71 C
209 14-02-2019 17:20:00 5.7 C 88 % 3.87 C
210 14-02-2019 17:25:00 5.7 C 88 % 3.87 C
211 14-02-2019 17:30:00 5.7 C 87 % 3.71 C
212 14-02-2019 17:35:00 5.6 C 88 % 3.77 C
213 14-02-2019 17:40:00 5.6 C 88 % 3.77 C
214 14-02-2019 17:45:00 5.4 C 88 % 3.58 C
215 14-02-2019 17:50:00 5.4 C 88 % 3.58 C
216 14-02-2019 17:55:00 5.3 C 88 % 3.48 C
217 14-02-2019 18:00:00 5.2 C 88 % 3.38 C
218 14-02-2019 18:05:00 5 C 87 % 3.02 C
219 14-02-2019 18:10:00 4.9 C 87 % 2.92 C
220 14-02-2019 18:15:00 4.8 C 87 % 2.82 C
221 14-02-2019 18:20:00 4.7 C 87 % 2.73 C
222 14-02-2019 18:25:00 4.6 C 87 % 2.63 C
223 14-02-2019 18:30:00 4.5 C 87 % 2.53 C
224 14-02-2019 18:35:00 4.4 C 87 % 2.43 C
225 14-02-2019 18:40:00 4.3 C 86 % 2.17 C
Sensor: Nr:Datum:Temp:Feuchte:Taupunkt:
Aussen-T/F 226 14-02-2019 18:45:00 4.3 C 86 % 2.17 C
227 14-02-2019 18:50:00 4.2 C 85 % 1.91 C
228 14-02-2019 18:55:00 4.1 C 85 % 1.81 C
229 14-02-2019 19:00:00 3.9 C 85 % 1.61 C
230 14-02-2019 19:05:00 3.8 C 85 % 1.52 C
231 14-02-2019 19:10:00 3.6 C 85 % 1.32 C
232 14-02-2019 19:15:00 3.4 C 85 % 1.12 C
233 14-02-2019 19:20:00 3.3 C 85 % 1.03 C
234 14-02-2019 19:25:00 3.2 C 85 % 0.93 C
235 14-02-2019 19:30:00 3.1 C 85 % 0.83 C
236 14-02-2019 19:35:00 3.1 C 85 % 0.83 C
237 14-02-2019 19:40:00 3 C 85 % 0.73 C
238 14-02-2019 19:45:00 3 C 86 % 0.89 C
239 14-02-2019 19:50:00 3.1 C 86 % 0.99 C
240 14-02-2019 19:55:00 3.2 C 86 % 1.09 C
241 14-02-2019 20:00:00 3.2 C 86 % 1.09 C
242 14-02-2019 20:05:00 3.3 C 87 % 1.35 C
243 14-02-2019 20:10:00 3.3 C 87 % 1.35 C
244 14-02-2019 20:15:00 3.2 C 87 % 1.25 C
245 14-02-2019 20:20:00 3.1 C 87 % 1.15 C
246 14-02-2019 20:25:00 2.9 C 86 % 0.8 C
247 14-02-2019 20:30:00 2.8 C 86 % 0.7 C
248 14-02-2019 20:35:00 2.6 C 86 % 0.5 C
249 14-02-2019 20:40:00 2.4 C 87 % 0.46 C
250 14-02-2019 20:45:00 2.3 C 88 % 0.52 C
Sensor: Nr:Datum:Temp:Feuchte:Taupunkt:
Aussen-T/F 251 14-02-2019 20:50:00 2.2 C 88 % 0.42 C
252 14-02-2019 20:55:00 2.1 C 88 % 0.33 C
253 14-02-2019 21:00:00 2 C 89 % 0.38 C
254 14-02-2019 21:05:00 1.9 C 89 % 0.28 C
255 14-02-2019 21:10:00 1.8 C 89 % 0.19 C
256 14-02-2019 21:15:00 1.8 C 90 % 0.34 C
257 14-02-2019 21:20:00 1.8 C 90 % 0.34 C
258 14-02-2019 21:25:00 1.6 C 89 % -0.01 C
259 14-02-2019 21:30:00 1.5 C 89 % -0.11 C
260 14-02-2019 21:35:00 1.4 C 90 % -0.06 C
261 14-02-2019 21:40:00 1.4 C 89 % -0.21 C
262 14-02-2019 21:45:00 1.2 C 89 % -0.41 C
263 14-02-2019 21:50:00 1.2 C 90 % -0.25 C
264 14-02-2019 21:55:00 1 C 90 % -0.45 C
265 14-02-2019 22:00:00 0.9 C 90 % -0.55 C
266 14-02-2019 22:05:00 0.8 C 90 % -0.65 C
267 14-02-2019 22:10:00 0.8 C 91 % -0.5 C
268 14-02-2019 22:15:00 0.7 C 91 % -0.6 C
269 14-02-2019 22:20:00 0.6 C 91 % -0.7 C
270 14-02-2019 22:25:00 0.5 C 91 % -0.79 C
271 14-02-2019 22:30:00 0.4 C 91 % -0.89 C
272 14-02-2019 22:35:00 0.3 C 91 % -0.99 C
273 14-02-2019 22:40:00 0.3 C 92 % -0.84 C
274 14-02-2019 22:45:00 0.2 C 92 % -0.94 C
275 14-02-2019 22:50:00 0.2 C 92 % -0.94 C
Sensor: Nr:Datum:Temp:Feuchte:Taupunkt:
Aussen-T/F 276 14-02-2019 22:55:00 0.2 C 92 % -0.94 C
277 14-02-2019 23:00:00 0.1 C 92 % -1.04 C
278 14-02-2019 23:05:00 0.1 C 93 % -0.89 C
279 14-02-2019 23:10:00 0.1 C 93 % -0.89 C
280 14-02-2019 23:15:00 0.1 C 93 % -0.89 C
281 14-02-2019 23:20:00 0.1 C 93 % -0.89 C
282 14-02-2019 23:25:00 0 C 93 % -0.99 C
283 14-02-2019 23:30:00 -0.1 C 93 % -1.09 C
284 14-02-2019 23:35:00 -0.2 C 93 % -1.19 C
285 14-02-2019 23:40:00 -0.2 C 93 % -1.19 C
286 14-02-2019 23:45:00 -0.2 C 93 % -1.19 C
287 14-02-2019 23:50:00 -0.2 C 93 % -1.19 C
288 14-02-2019 23:55:00 -0.3 C 93 % -1.29 C
289 15-02-2019 00:00:00 -0.3 C 93 % -1.29 C
290 15-02-2019 00:05:00 -0.4 C 93 % -1.39 C
291 15-02-2019 00:10:00 -0.4 C 94 % -1.25 C
292 15-02-2019 00:15:00 -0.4 C 94 % -1.25 C
293 15-02-2019 00:20:00 -0.4 C 94 % -1.25 C
294 15-02-2019 00:25:00 -0.6 C 93 % -1.59 C
295 15-02-2019 00:30:00 -0.6 C 94 % -1.44 C
296 15-02-2019 00:35:00 -0.7 C 94 % -1.54 C
297 15-02-2019 00:40:00 -0.7 C 94 % -1.54 C
298 15-02-2019 00:45:00 -0.7 C 94 % -1.54 C
299 15-02-2019 00:50:00 -0.7 C 94 % -1.54 C
300 15-02-2019 00:55:00 -0.7 C 94 % -1.54 C
Sensor: Nr:Datum:Temp:Feuchte:Taupunkt:
Aussen-T/F 301 15-02-2019 01:00:00 -0.7 C 94 % -1.54 C
302 15-02-2019 01:05:00 -0.8 C 94 % -1.64 C
303 15-02-2019 01:10:00 -0.8 C 94 % -1.64 C
304 15-02-2019 01:15:00 -0.8 C 94 % -1.64 C
305 15-02-2019 01:20:00 -0.9 C 94 % -1.74 C
306 15-02-2019 01:25:00 -1 C 94 % -1.84 C
307 15-02-2019 01:30:00 -1 C 94 % -1.84 C
308 15-02-2019 01:35:00 -1 C 94 % -1.84 C
309 15-02-2019 01:40:00 -1 C 94 % -1.84 C
310 15-02-2019 01:45:00 -1 C 95 % -1.7 C
311 15-02-2019 01:50:00 -1.1 C 95 % -1.8 C
312 15-02-2019 01:55:00 -1.1 C 95 % -1.8 C
313 15-02-2019 02:00:00 -1.1 C 95 % -1.8 C
314 15-02-2019 02:05:00 -1 C 95 % -1.7 C
315 15-02-2019 02:10:00 -1 C 95 % -1.7 C
316 15-02-2019 02:15:00 -1.1 C 94 % -1.94 C
317 15-02-2019 02:20:00 -1.1 C 94 % -1.94 C
318 15-02-2019 02:25:00 -1.1 C 95 % -1.8 C
319 15-02-2019 02:30:00 -1.1 C 95 % -1.8 C
320 15-02-2019 02:35:00 -1.2 C 95 % -1.9 C
321 15-02-2019 02:40:00 -1.2 C 95 % -1.9 C
322 15-02-2019 02:45:00 -1.3 C 95 % -2 C
323 15-02-2019 02:50:00 -1.3 C 95 % -2 C
324 15-02-2019 02:55:00 -1.3 C 95 % -2 C
325 15-02-2019 03:00:00 -1.3 C 95 % -2 C
Sensor: Nr:Datum:Temp:Feuchte:Taupunkt:
Aussen-T/F 326 15-02-2019 03:05:00 -1.3 C 95 % -2 C
327 15-02-2019 03:10:00 -1.4 C 95 % -2.1 C
328 15-02-2019 03:15:00 -1.4 C 95 % -2.1 C
329 15-02-2019 03:20:00 -1.4 C 95 % -2.1 C
330 15-02-2019 03:25:00 -1.4 C 95 % -2.1 C
331 15-02-2019 03:30:00 -1.5 C 95 % -2.19 C
332 15-02-2019 03:35:00 -1.5 C 95 % -2.19 C
333 15-02-2019 03:40:00 -1.5 C 95 % -2.19 C
334 15-02-2019 03:45:00 -1.5 C 95 % -2.19 C
335 15-02-2019 03:50:00 -1.4 C 95 % -2.1 C
336 15-02-2019 03:55:00 -1.3 C 95 % -2 C
337 15-02-2019 04:00:00 -1.2 C 95 % -1.9 C
338 15-02-2019 04:05:00 -1.2 C 95 % -1.9 C
339 15-02-2019 04:10:00 -1.2 C 95 % -1.9 C
340 15-02-2019 04:15:00 -1.3 C 95 % -2 C
341 15-02-2019 04:20:00 -1.4 C 95 % -2.1 C
342 15-02-2019 04:25:00 -1.5 C 95 % -2.19 C
343 15-02-2019 04:30:00 -1.6 C 95 % -2.29 C
344 15-02-2019 04:35:00 -1.7 C 95 % -2.39 C
345 15-02-2019 04:40:00 -1.8 C 95 % -2.49 C
346 15-02-2019 04:45:00 -1.8 C 95 % -2.49 C
347 15-02-2019 04:50:00 -1.7 C 95 % -2.39 C
348 15-02-2019 04:55:00 -1.7 C 95 % -2.39 C
349 15-02-2019 05:00:00 -1.8 C 95 % -2.49 C
350 15-02-2019 05:05:00 -1.8 C 95 % -2.49 C
Sensor: Nr:Datum:Temp:Feuchte:Taupunkt:
Aussen-T/F 351 15-02-2019 05:10:00 -1.9 C 95 % -2.59 C
352 15-02-2019 05:15:00 -1.9 C 95 % -2.59 C
353 15-02-2019 05:20:00 -1.8 C 95 % -2.49 C
354 15-02-2019 05:25:00 -1.9 C 95 % -2.59 C
355 15-02-2019 05:30:00 -1.9 C 95 % -2.59 C
356 15-02-2019 05:35:00 -1.9 C 95 % -2.59 C
357 15-02-2019 05:40:00 -1.9 C 95 % -2.59 C
358 15-02-2019 05:45:00 -1.9 C 95 % -2.59 C
359 15-02-2019 05:50:00 -1.9 C 95 % -2.59 C
360 15-02-2019 05:55:00 -2 C 95 % -2.69 C
361 15-02-2019 06:00:00 -2 C 95 % -2.69 C
362 15-02-2019 06:05:00 -2.1 C 95 % -2.79 C
363 15-02-2019 06:10:00 -2.1 C 95 % -2.79 C
364 15-02-2019 06:15:00 -2.1 C 95 % -2.79 C
365 15-02-2019 06:20:00 -2.2 C 95 % -2.89 C
366 15-02-2019 06:25:00 -2.2 C 95 % -2.89 C
367 15-02-2019 06:30:00 -2.1 C 95 % -2.79 C
368 15-02-2019 06:35:00 -2.1 C 95 % -2.79 C
369 15-02-2019 06:40:00 -2 C 95 % -2.69 C
370 15-02-2019 06:45:00 -1.9 C 96 % -2.45 C
371 15-02-2019 06:50:00 -2 C 96 % -2.55 C
372 15-02-2019 06:55:00 -2.1 C 95 % -2.79 C
373 15-02-2019 07:00:00 -2.2 C 95 % -2.89 C
374 15-02-2019 07:05:00 -2.2 C 95 % -2.89 C
375 15-02-2019 07:10:00 -2.3 C 95 % -2.99 C
Sensor: Nr:Datum:Temp:Feuchte:Taupunkt:
Aussen-T/F 376 15-02-2019 07:15:00 -2.3 C 95 % -2.99 C
377 15-02-2019 07:20:00 -2.4 C 95 % -3.09 C
378 15-02-2019 07:25:00 -2.4 C 95 % -3.09 C
379 15-02-2019 07:30:00 -2.5 C 95 % -3.19 C
380 15-02-2019 07:35:00 -2.5 C 95 % -3.19 C
381 15-02-2019 07:40:00 -2.5 C 95 % -3.19 C
382 15-02-2019 07:45:00 -2.5 C 95 % -3.19 C
383 15-02-2019 07:50:00 -2.5 C 95 % -3.19 C
384 15-02-2019 07:55:00 -2.5 C 95 % -3.19 C
385 15-02-2019 08:00:00 -2.4 C 96 % -2.95 C
386 15-02-2019 08:05:00 -2.4 C 96 % -2.95 C
387 15-02-2019 08:10:00 -2.3 C 96 % -2.85 C
388 15-02-2019 08:15:00 -2.2 C 96 % -2.75 C
389 15-02-2019 08:20:00 -2.2 C 96 % -2.75 C
390 15-02-2019 08:25:00 -2.1 C 96 % -2.65 C
391 15-02-2019 08:30:00 -2.1 C 96 % -2.65 C
392 15-02-2019 08:35:00 -2.1 C 96 % -2.65 C
393 15-02-2019 08:40:00 -2.1 C 96 % -2.65 C
394 15-02-2019 08:45:00 -2.1 C 96 % -2.65 C
395 15-02-2019 08:50:00 -2.2 C 96 % -2.75 C
396 15-02-2019 08:55:00 -2.2 C 96 % -2.75 C
397 15-02-2019 09:00:00 -2.1 C 96 % -2.65 C
398 15-02-2019 09:05:00 -2.1 C 96 % -2.65 C
399 15-02-2019 09:10:00 -2 C 96 % -2.55 C
400 15-02-2019 09:15:00 -1.9 C 96 % -2.45 C
Sensor: Nr:Datum:Temp:Feuchte:Taupunkt:
Aussen-T/F 401 15-02-2019 09:20:00 -1.8 C 96 % -2.35 C
402 15-02-2019 09:25:00 -1.8 C 96 % -2.35 C
403 15-02-2019 09:30:00 -1.7 C 96 % -2.25 C
404 15-02-2019 09:35:00 -1.5 C 96 % -2.05 C
405 15-02-2019 09:40:00 -1.5 C 96 % -2.05 C
406 15-02-2019 09:45:00 -1.4 C 96 % -1.95 C
407 15-02-2019 09:50:00 -1.3 C 96 % -1.85 C
408 15-02-2019 09:55:00 -1.2 C 96 % -1.75 C
409 15-02-2019 10:00:00 -1.2 C 96 % -1.75 C
410 15-02-2019 10:05:00 -1.1 C 96 % -1.66 C
411 15-02-2019 10:10:00 -1 C 96 % -1.56 C
412 15-02-2019 10:15:00 -0.9 C 96 % -1.46 C
413 15-02-2019 10:20:00 -0.9 C 96 % -1.46 C
414 15-02-2019 10:25:00 -0.8 C 96 % -1.36 C
415 15-02-2019 10:30:00 -0.7 C 96 % -1.26 C
416 15-02-2019 10:35:00 -0.6 C 96 % -1.16 C
417 15-02-2019 10:40:00 -0.5 C 96 % -1.06 C
418 15-02-2019 10:45:00 -0.3 C 97 % -0.72 C
419 15-02-2019 10:50:00 -0.3 C 97 % -0.72 C
420 15-02-2019 10:55:00 -0.1 C 96 % -0.66 C
421 15-02-2019 11:00:00 0.1 C 97 % -0.32 C
422 15-02-2019 11:05:00 0.3 C 97 % -0.12 C
423 15-02-2019 11:10:00 0.6 C 97 % 0.18 C
424 15-02-2019 11:15:00 0.8 C 97 % 0.38 C
425 15-02-2019 11:20:00 1 C 97 % 0.58 C
Sensor: Nr:Datum:Temp:Feuchte:Taupunkt:
Aussen-T/F 426 15-02-2019 11:25:00 1.2 C 97 % 0.78 C
427 15-02-2019 11:30:00 1.4 C 97 % 0.98 C
428 15-02-2019 11:35:00 1.7 C 97 % 1.28 C
429 15-02-2019 11:40:00 1.8 C 97 % 1.38 C
430 15-02-2019 11:45:00 2 C 97 % 1.58 C
431 15-02-2019 11:50:00 2.1 C 97 % 1.67 C
432 15-02-2019 11:55:00 2.2 C 97 % 1.77 C
433 15-02-2019 12:00:00 2.2 C 97 % 1.77 C
434 15-02-2019 12:05:00 2.3 C 97 % 1.87 C
435 15-02-2019 12:10:00 2.6 C 97 % 2.17 C
436 15-02-2019 12:15:00 2.7 C 97 % 2.27 C
437 15-02-2019 12:20:00 2.9 C 97 % 2.47 C
438 15-02-2019 12:25:00 3.2 C 97 % 2.77 C
439 15-02-2019 12:30:00 3.6 C 97 % 3.17 C
440 15-02-2019 12:35:00 3.8 C 97 % 3.37 C
441 15-02-2019 12:40:00 4.1 C 97 % 3.67 C
442 15-02-2019 12:45:00 4.3 C 96 % 3.72 C
443 15-02-2019 12:50:00 4.6 C 96 % 4.02 C
444 15-02-2019 12:55:00 4.7 C 95 % 3.97 C
445 15-02-2019 13:00:00 4.8 C 95 % 4.07 C
446 15-02-2019 13:05:00 4.9 C 94 % 4.02 C
447 15-02-2019 13:10:00 5.1 C 94 % 4.22 C
448 15-02-2019 13:15:00 5.3 C 94 % 4.41 C
449 15-02-2019 13:20:00 5.5 C 93 % 4.46 C
450 15-02-2019 13:25:00 5.7 C 93 % 4.66 C
Sensor: Nr:Datum:Temp:Feuchte:Taupunkt:
Aussen-T/F 451 15-02-2019 13:30:00 5.9 C 92 % 4.7 C
452 15-02-2019 13:35:00 6.2 C 91 % 4.84 C
453 15-02-2019 13:40:00 6.5 C 90 % 4.98 C
454 15-02-2019 13:45:00 6.8 C 89 % 5.12 C
455 15-02-2019 13:50:00 7.1 C 88 % 5.25 C
456 15-02-2019 13:55:00 7.4 C 86 % 5.22 C
457 15-02-2019 14:00:00 7.7 C 85 % 5.34 C
458 15-02-2019 14:05:00 7.8 C 84 % 5.27 C
459 15-02-2019 14:10:00 8.1 C 84 % 5.56 C
460 15-02-2019 14:15:00 8.2 C 83 % 5.49 C
461 15-02-2019 14:20:00 8.3 C 82 % 5.41 C
462 15-02-2019 14:25:00 8.3 C 82 % 5.41 C
463 15-02-2019 14:30:00 8.3 C 82 % 5.41 C
464 15-02-2019 14:35:00 8.3 C 82 % 5.41 C
465 15-02-2019 14:40:00 8.4 C 82 % 5.51 C
466 15-02-2019 14:45:00 8.4 C 82 % 5.51 C
467 15-02-2019 14:50:00 8.6 C 82 % 5.71 C
468 15-02-2019 14:55:00 8.7 C 82 % 5.8 C
469 15-02-2019 15:00:00 8.8 C 81 % 5.72 C
470 15-02-2019 15:05:00 8.9 C 80 % 5.64 C
471 15-02-2019 15:10:00 9.2 C 80 % 5.94 C
472 15-02-2019 15:15:00 9.3 C 79 % 5.85 C
473 15-02-2019 15:20:00 9.5 C 79 % 6.05 C
474 15-02-2019 15:25:00 9.6 C 78 % 5.96 C
475 15-02-2019 15:30:00 9.8 C 77 % 5.97 C
Sensor: Nr:Datum:Temp:Feuchte:Taupunkt:
Aussen-T/F 476 15-02-2019 15:35:00 9.8 C 77 % 5.97 C
477 15-02-2019 15:40:00 9.9 C 76 % 5.87 C
478 15-02-2019 15:45:00 9.9 C 75 % 5.68 C
479 15-02-2019 15:50:00 10.1 C 75 % 5.88 C
480 15-02-2019 15:55:00 10.2 C 72 % 5.39 C
481 15-02-2019 16:00:00 10.4 C 71 % 5.38 C
482 15-02-2019 16:05:00 10.8 C 64 % 4.27 C
483 15-02-2019 16:10:00 11.2 C 68 % 5.52 C
484 15-02-2019 16:15:00 11.3 C 68 % 5.62 C
485 15-02-2019 16:20:00 11.1 C 67 % 5.21 C
486 15-02-2019 16:25:00 10.9 C 68 % 5.23 C
487 15-02-2019 16:30:00 10.8 C 69 % 5.35 C
488 15-02-2019 16:35:00 10.6 C 70 % 5.36 C
489 15-02-2019 16:40:00 10.3 C 70 % 5.08 C
490 15-02-2019 16:45:00 10.2 C 70 % 4.98 C
491 15-02-2019 16:50:00 10.2 C 71 % 5.18 C
492 15-02-2019 16:55:00 10.1 C 71 % 5.09 C
493 15-02-2019 17:00:00 10 C 71 % 4.99 C
494 15-02-2019 17:05:00 9.9 C 71 % 4.9 C
495 15-02-2019 17:10:00 9.9 C 71 % 4.9 C
496 15-02-2019 17:15:00 9.8 C 71 % 4.8 C
497 15-02-2019 17:20:00 9.7 C 71 % 4.7 C
498 15-02-2019 17:25:00 9.6 C 71 % 4.61 C
499 15-02-2019 17:30:00 9.4 C 72 % 4.62 C
500 15-02-2019 17:35:00 9.3 C 71 % 4.32 C
Sensor: Nr:Datum:Temp:Feuchte:Taupunkt:
Aussen-T/F 501 15-02-2019 17:40:00 9 C 72 % 4.23 C
502 15-02-2019 17:45:00 8.8 C 73 % 4.24 C
503 15-02-2019 17:50:00 8.6 C 73 % 4.04 C
504 15-02-2019 17:55:00 8.3 C 73 % 3.75 C
505 15-02-2019 18:00:00 8.1 C 74 % 3.75 C
506 15-02-2019 18:05:00 7.8 C 74 % 3.46 C
507 15-02-2019 18:10:00 7.7 C 75 % 3.56 C
508 15-02-2019 18:15:00 7.6 C 75 % 3.46 C
509 15-02-2019 18:20:00 7.4 C 76 % 3.45 C
510 15-02-2019 18:25:00 7.3 C 76 % 3.36 C
511 15-02-2019 18:30:00 7.1 C 76 % 3.16 C
512 15-02-2019 18:35:00 7 C 77 % 3.25 C
513 15-02-2019 18:40:00 6.9 C 77 % 3.16 C
514 15-02-2019 18:45:00 6.9 C 77 % 3.16 C
515 15-02-2019 18:50:00 6.8 C 77 % 3.06 C
516 15-02-2019 18:55:00 6.7 C 78 % 3.14 C
517 15-02-2019 19:00:00 6.6 C 78 % 3.05 C
518 15-02-2019 19:05:00 6.6 C 78 % 3.05 C
519 15-02-2019 19:10:00 6.4 C 79 % 3.03 C
520 15-02-2019 19:15:00 6.3 C 79 % 2.93 C
521 15-02-2019 19:20:00 6.3 C 80 % 3.11 C
522 15-02-2019 19:25:00 6.3 C 80 % 3.11 C
523 15-02-2019 19:30:00 6.2 C 80 % 3.01 C
524 15-02-2019 19:35:00 6.2 C 81 % 3.19 C
525 15-02-2019 19:40:00 6.1 C 80 % 2.92 C
Sensor: Nr:Datum:Temp:Feuchte:Taupunkt:
Aussen-T/F 526 15-02-2019 19:45:00 5.9 C 80 % 2.72 C
527 15-02-2019 19:50:00 5.7 C 81 % 2.7 C
528 15-02-2019 19:55:00 5.4 C 81 % 2.41 C
529 15-02-2019 20:00:00 5.2 C 82 % 2.39 C
530 15-02-2019 20:05:00 5.1 C 84 % 2.63 C
531 15-02-2019 20:10:00 4.9 C 84 % 2.43 C
532 15-02-2019 20:15:00 4.8 C 84 % 2.33 C
533 15-02-2019 20:20:00 4.7 C 84 % 2.23 C
534 15-02-2019 20:25:00 4.6 C 84 % 2.14 C
535 15-02-2019 20:30:00 4.4 C 84 % 1.94 C
536 15-02-2019 20:35:00 4.2 C 85 % 1.91 C
537 15-02-2019 20:40:00 4.1 C 85 % 1.81 C
538 15-02-2019 20:45:00 3.9 C 86 % 1.78 C
539 15-02-2019 20:50:00 3.9 C 85 % 1.61 C
540 15-02-2019 20:55:00 3.8 C 87 % 1.84 C
541 15-02-2019 21:00:00 3.7 C 87 % 1.74 C
542 15-02-2019 21:05:00 3.6 C 88 % 1.8 C
543 15-02-2019 21:10:00 3.4 C 87 % 1.45 C
544 15-02-2019 21:15:00 3.3 C 88 % 1.51 C
545 15-02-2019 21:20:00 3.3 C 89 % 1.67 C
546 15-02-2019 21:25:00 3.3 C 89 % 1.67 C
547 15-02-2019 21:30:00 3.2 C 88 % 1.41 C
548 15-02-2019 21:35:00 3.1 C 88 % 1.31 C
549 15-02-2019 21:40:00 2.9 C 88 % 1.11 C
550 15-02-2019 21:45:00 2.8 C 89 % 1.17 C
Sensor: Nr:Datum:Temp:Feuchte:Taupunkt:
Aussen-T/F 551 15-02-2019 21:50:00 2.7 C 89 % 1.07 C
552 15-02-2019 21:55:00 2.6 C 89 % 0.97 C
553 15-02-2019 22:00:00 2.4 C 89 % 0.78 C
554 15-02-2019 22:05:00 2.4 C 90 % 0.93 C
555 15-02-2019 22:10:00 2.3 C 89 % 0.68 C
556 15-02-2019 22:15:00 2.1 C 90 % 0.64 C
557 15-02-2019 22:20:00 1.9 C 90 % 0.44 C
558 15-02-2019 22:25:00 1.8 C 90 % 0.34 C
559 15-02-2019 22:30:00 1.7 C 90 % 0.24 C
560 15-02-2019 22:35:00 1.7 C 91 % 0.39 C
561 15-02-2019 22:40:00 1.6 C 91 % 0.29 C
562 15-02-2019 22:45:00 1.5 C 91 % 0.19 C
563 15-02-2019 22:50:00 1.4 C 91 % 0.1 C
564 15-02-2019 22:55:00 1.4 C 92 % 0.25 C
565 15-02-2019 23:00:00 1.4 C 92 % 0.25 C
566 15-02-2019 23:05:00 1.4 C 92 % 0.25 C
567 15-02-2019 23:10:00 1.4 C 92 % 0.25 C
568 15-02-2019 23:15:00 1.4 C 92 % 0.25 C
569 15-02-2019 23:20:00 1.3 C 92 % 0.15 C
570 15-02-2019 23:25:00 1.3 C 92 % 0.15 C
571 15-02-2019 23:30:00 1.2 C 92 % 0.05 C
572 15-02-2019 23:35:00 1.2 C 92 % 0.05 C
573 15-02-2019 23:40:00 1.2 C 93 % 0.2 C
574 15-02-2019 23:45:00 1.2 C 92 % 0.05 C
575 15-02-2019 23:50:00 1 C 92 % -0.15 C
Sensor: Nr:Datum:Temp:Feuchte:Taupunkt:
Aussen-T/F 576 15-02-2019 23:55:00 0.8 C 92 % -0.35 C
577 16-02-2019 00:00:00 0.8 C 93 % -0.2 C
578 16-02-2019 00:05:00 0.8 C 93 % -0.2 C
579 16-02-2019 00:10:00 0.7 C 92 % -0.45 C
580 16-02-2019 00:15:00 0.6 C 93 % -0.4 C
581 16-02-2019 00:20:00 0.5 C 92 % -0.65 C
582 16-02-2019 00:25:00 0.4 C 93 % -0.6 C
583 16-02-2019 00:30:00 0.3 C 93 % -0.7 C
584 16-02-2019 00:35:00 0.3 C 93 % -0.7 C
585 16-02-2019 00:40:00 0.3 C 93 % -0.7 C
586 16-02-2019 00:45:00 0.2 C 93 % -0.79 C
587 16-02-2019 00:50:00 0.1 C 93 % -0.89 C
588 16-02-2019 00:55:00 0 C 93 % -0.99 C
589 16-02-2019 01:00:00 -0.1 C 93 % -1.09 C
590 16-02-2019 01:05:00 0 C 94 % -0.85 C
591 16-02-2019 01:10:00 -0.1 C 94 % -0.95 C
592 16-02-2019 01:15:00 -0.2 C 93 % -1.19 C
593 16-02-2019 01:20:00 -0.2 C 94 % -1.05 C
594 16-02-2019 01:25:00 -0.2 C 94 % -1.05 C
595 16-02-2019 01:30:00 -0.1 C 94 % -0.95 C
596 16-02-2019 01:35:00 -0.1 C 94 % -0.95 C
597 16-02-2019 01:40:00 -0.1 C 94 % -0.95 C
598 16-02-2019 01:45:00 -0.2 C 94 % -1.05 C
599 16-02-2019 01:50:00 -0.2 C 94 % -1.05 C
600 16-02-2019 01:55:00 -0.3 C 94 % -1.15 C
Sensor: Nr:Datum:Temp:Feuchte:Taupunkt:
Aussen-T/F 601 16-02-2019 02:00:00 -0.3 C 94 % -1.15 C
602 16-02-2019 02:05:00 -0.3 C 94 % -1.15 C
603 16-02-2019 02:10:00 -0.3 C 95 % -1 C
604 16-02-2019 02:15:00 -0.2 C 95 % -0.9 C
605 16-02-2019 02:20:00 -0.3 C 94 % -1.15 C
606 16-02-2019 02:25:00 -0.4 C 94 % -1.25 C
607 16-02-2019 02:30:00 -0.5 C 94 % -1.34 C
608 16-02-2019 02:35:00 -0.7 C 94 % -1.54 C
609 16-02-2019 02:40:00 -0.7 C 94 % -1.54 C
610 16-02-2019 02:45:00 -0.7 C 95 % -1.4 C
611 16-02-2019 02:50:00 -0.7 C 95 % -1.4 C
612 16-02-2019 02:55:00 -0.7 C 95 % -1.4 C
613 16-02-2019 03:00:00 -0.8 C 94 % -1.64 C
614 16-02-2019 03:05:00 -0.8 C 94 % -1.64 C
615 16-02-2019 03:10:00 -0.9 C 94 % -1.74 C
616 16-02-2019 03:15:00 -0.9 C 95 % -1.6 C
617 16-02-2019 03:20:00 -0.9 C 95 % -1.6 C
618 16-02-2019 03:25:00 -0.8 C 95 % -1.5 C
619 16-02-2019 03:30:00 -0.6 C 95 % -1.3 C
620 16-02-2019 03:35:00 -0.6 C 95 % -1.3 C
621 16-02-2019 03:40:00 -0.7 C 95 % -1.4 C
622 16-02-2019 03:45:00 -0.7 C 95 % -1.4 C
623 16-02-2019 03:50:00 -0.7 C 95 % -1.4 C
624 16-02-2019 03:55:00 -0.7 C 95 % -1.4 C
625 16-02-2019 04:00:00 -0.8 C 95 % -1.5 C
Sensor: Nr:Datum:Temp:Feuchte:Taupunkt:
Aussen-T/F 626 16-02-2019 04:05:00 -0.6 C 95 % -1.3 C
627 16-02-2019 04:10:00 -0.6 C 95 % -1.3 C
628 16-02-2019 04:15:00 -0.7 C 95 % -1.4 C
629 16-02-2019 04:20:00 -0.8 C 95 % -1.5 C
630 16-02-2019 04:25:00 -0.9 C 95 % -1.6 C
631 16-02-2019 04:30:00 -1 C 95 % -1.7 C
632 16-02-2019 04:35:00 -1 C 95 % -1.7 C
633 16-02-2019 04:40:00 -1.1 C 95 % -1.8 C
634 16-02-2019 04:45:00 -1.2 C 95 % -1.9 C
635 16-02-2019 04:50:00 -1.2 C 95 % -1.9 C
636 16-02-2019 04:55:00 -1.2 C 95 % -1.9 C
637 16-02-2019 05:00:00 -1.1 C 95 % -1.8 C
638 16-02-2019 05:05:00 -0.9 C 96 % -1.46 C
639 16-02-2019 05:10:00 -0.8 C 95 % -1.5 C
640 16-02-2019 05:15:00 -0.9 C 95 % -1.6 C
641 16-02-2019 05:20:00 -1.2 C 95 % -1.9 C
642 16-02-2019 05:25:00 -1.3 C 95 % -2 C
643 16-02-2019 05:30:00 -1.4 C 95 % -2.1 C
644 16-02-2019 05:35:00 -1.5 C 95 % -2.19 C
645 16-02-2019 05:40:00 -1.4 C 95 % -2.1 C
646 16-02-2019 05:45:00 -1.1 C 96 % -1.66 C
647 16-02-2019 05:50:00 -0.9 C 96 % -1.46 C
648 16-02-2019 05:55:00 -0.9 C 96 % -1.46 C
649 16-02-2019 06:00:00 -1.1 C 95 % -1.8 C
650 16-02-2019 06:05:00 -1.3 C 95 % -2 C
Sensor: Nr:Datum:Temp:Feuchte:Taupunkt:
Aussen-T/F 651 16-02-2019 06:10:00 -1.4 C 95 % -2.1 C
652 16-02-2019 06:15:00 -1.3 C 95 % -2 C
653 16-02-2019 06:20:00 -1.2 C 96 % -1.75 C
654 16-02-2019 06:25:00 -1.2 C 95 % -1.9 C
655 16-02-2019 06:30:00 -1.3 C 95 % -2 C
656 16-02-2019 06:35:00 -1.2 C 95 % -1.9 C
657 16-02-2019 06:40:00 -1.2 C 96 % -1.75 C
658 16-02-2019 06:45:00 -1.2 C 96 % -1.75 C
659 16-02-2019 06:50:00 -1.1 C 96 % -1.66 C
660 16-02-2019 06:55:00 -1 C 96 % -1.56 C
661 16-02-2019 07:00:00 -1.1 C 95 % -1.8 C
662 16-02-2019 07:05:00 -1.2 C 95 % -1.9 C
663 16-02-2019 07:10:00 -1.4 C 95 % -2.1 C
664 16-02-2019 07:15:00 -1.6 C 95 % -2.29 C
665 16-02-2019 07:20:00 -1.7 C 95 % -2.39 C
666 16-02-2019 07:25:00 -1.7 C 95 % -2.39 C
667 16-02-2019 07:30:00 -1.7 C 95 % -2.39 C
668 16-02-2019 07:35:00 -1.7 C 95 % -2.39 C
669 16-02-2019 07:40:00 -1.8 C 95 % -2.49 C
670 16-02-2019 07:45:00 -1.9 C 95 % -2.59 C
671 16-02-2019 07:50:00 -1.9 C 95 % -2.59 C
672 16-02-2019 07:55:00 -2 C 95 % -2.69 C
673 16-02-2019 08:00:00 -2 C 95 % -2.69 C
674 16-02-2019 08:05:00 -1.9 C 96 % -2.45 C
675 16-02-2019 08:10:00 -1.8 C 96 % -2.35 C
Sensor: Nr:Datum:Temp:Feuchte:Taupunkt:
Aussen-T/F 676 16-02-2019 08:15:00 -1.8 C 96 % -2.35 C
677 16-02-2019 08:20:00 -1.8 C 95 % -2.49 C
678 16-02-2019 08:25:00 -1.8 C 95 % -2.49 C
679 16-02-2019 08:30:00 -1.8 C 95 % -2.49 C
680 16-02-2019 08:35:00 -1.8 C 95 % -2.49 C
681 16-02-2019 08:40:00 -1.8 C 95 % -2.49 C
682 16-02-2019 08:45:00 -1.7 C 96 % -2.25 C
683 16-02-2019 08:50:00 -1.6 C 96 % -2.15 C
684 16-02-2019 08:55:00 -1.6 C 96 % -2.15 C
685 16-02-2019 09:00:00 -1.4 C 96 % -1.95 C
686 16-02-2019 09:05:00 -1.3 C 96 % -1.85 C
687 16-02-2019 09:10:00 -1.2 C 96 % -1.75 C
688 16-02-2019 09:15:00 -1.2 C 96 % -1.75 C
689 16-02-2019 09:20:00 -1.2 C 96 % -1.75 C
690 16-02-2019 09:25:00 -1.2 C 96 % -1.75 C
691 16-02-2019 09:30:00 -1.2 C 96 % -1.75 C
692 16-02-2019 09:35:00 -1.1 C 96 % -1.66 C
693 16-02-2019 09:40:00 -0.9 C 96 % -1.46 C
694 16-02-2019 09:45:00 -0.8 C 96 % -1.36 C
695 16-02-2019 09:50:00 -0.8 C 96 % -1.36 C
696 16-02-2019 09:55:00 -0.8 C 96 % -1.36 C
697 16-02-2019 10:00:00 -0.8 C 96 % -1.36 C
698 16-02-2019 10:05:00 -0.8 C 96 % -1.36 C
699 16-02-2019 10:10:00 -0.7 C 96 % -1.26 C
700 16-02-2019 10:15:00 -0.6 C 96 % -1.16 C
Sensor: Nr:Datum:Temp:Feuchte:Taupunkt:
Aussen-T/F 701 16-02-2019 10:20:00 -0.6 C 96 % -1.16 C
702 16-02-2019 10:25:00 -0.5 C 96 % -1.06 C
703 16-02-2019 10:30:00 -0.3 C 96 % -0.86 C
704 16-02-2019 10:35:00 0.1 C 97 % -0.32 C
705 16-02-2019 10:40:00 0.2 C 97 % -0.22 C
706 16-02-2019 10:45:00 0.3 C 97 % -0.12 C
707 16-02-2019 10:50:00 0.4 C 97 % -0.02 C
708 16-02-2019 10:55:00 0.6 C 97 % 0.18 C
709 16-02-2019 11:00:00 0.7 C 97 % 0.28 C
710 16-02-2019 11:05:00 0.9 C 97 % 0.48 C
711 16-02-2019 11:10:00 1.3 C 97 % 0.88 C
712 16-02-2019 11:15:00 1.6 C 97 % 1.18 C
713 16-02-2019 11:20:00 1.9 C 97 % 1.48 C
714 16-02-2019 11:25:00 2.1 C 97 % 1.67 C
715 16-02-2019 11:30:00 2.3 C 97 % 1.87 C
716 16-02-2019 11:35:00 2.6 C 97 % 2.17 C
717 16-02-2019 11:40:00 2.8 C 97 % 2.37 C
718 16-02-2019 11:45:00 3.1 C 97 % 2.67 C
719 16-02-2019 11:50:00 3.3 C 97 % 2.87 C
720 16-02-2019 11:55:00 3.5 C 97 % 3.07 C
721 16-02-2019 12:00:00 3.7 C 97 % 3.27 C
722 16-02-2019 12:05:00 3.8 C 97 % 3.37 C
723 16-02-2019 12:10:00 3.9 C 97 % 3.47 C
724 16-02-2019 12:15:00 4.2 C 97 % 3.77 C
725 16-02-2019 12:20:00 4.4 C 97 % 3.97 C
Sensor: Nr:Datum:Temp:Feuchte:Taupunkt:
Aussen-T/F 726 16-02-2019 12:25:00 4.8 C 97 % 4.37 C
727 16-02-2019 12:30:00 5.1 C 97 % 4.66 C
728 16-02-2019 12:35:00 5.4 C 97 % 4.96 C
729 16-02-2019 12:40:00 5.8 C 97 % 5.36 C
730 16-02-2019 12:45:00 6 C 97 % 5.56 C
731 16-02-2019 12:50:00 6.2 C 97 % 5.76 C
732 16-02-2019 12:55:00 6.3 C 96 % 5.71 C
733 16-02-2019 13:00:00 6.4 C 94 % 5.51 C
734 16-02-2019 13:05:00 6.5 C 93 % 5.45 C
735 16-02-2019 13:10:00 6.7 C 93 % 5.65 C
736 16-02-2019 13:15:00 6.9 C 93 % 5.85 C
737 16-02-2019 13:20:00 7.2 C 92 % 5.99 C
738 16-02-2019 13:25:00 7.6 C 91 % 6.23 C
739 16-02-2019 13:30:00 7.9 C 90 % 6.36 C
740 16-02-2019 13:35:00 8.3 C 89 % 6.6 C
741 16-02-2019 13:40:00 8.7 C 89 % 6.99 C
742 16-02-2019 13:45:00 9 C 87 % 6.96 C
743 16-02-2019 13:50:00 9.3 C 85 % 6.91 C
744 16-02-2019 13:55:00 9.8 C 84 % 7.23 C
745 16-02-2019 14:00:00 10.1 C 82 % 7.17 C
746 16-02-2019 14:05:00 10.4 C 80 % 7.1 C
747 16-02-2019 14:10:00 10.6 C 79 % 7.11 C
748 16-02-2019 14:15:00 10.7 C 79 % 7.21 C
749 16-02-2019 14:20:00 10.7 C 78 % 7.03 C
750 16-02-2019 14:25:00 10.7 C 77 % 6.84 C
Sensor: Nr:Datum:Temp:Feuchte:Taupunkt:
Aussen-T/F 751 16-02-2019 14:30:00 10.7 C 77 % 6.84 C
752 16-02-2019 14:35:00 10.7 C 76 % 6.65 C
753 16-02-2019 14:40:00 10.7 C 76 % 6.65 C
754 16-02-2019 14:45:00 10.7 C 75 % 6.46 C
755 16-02-2019 14:50:00 10.9 C 73 % 6.26 C
756 16-02-2019 14:55:00 11.1 C 73 % 6.45 C
757 16-02-2019 15:00:00 11.3 C 72 % 6.44 C
758 16-02-2019 15:05:00 11.4 C 72 % 6.54 C
759 16-02-2019 15:10:00 11.6 C 71 % 6.53 C
760 16-02-2019 15:15:00 11.6 C 71 % 6.53 C
761 16-02-2019 15:20:00 11.7 C 72 % 6.83 C
762 16-02-2019 15:25:00 11.7 C 70 % 6.42 C
763 16-02-2019 15:30:00 11.8 C 70 % 6.51 C
764 16-02-2019 15:35:00 11.8 C 69 % 6.31 C
765 16-02-2019 15:40:00 11.9 C 68 % 6.19 C
766 16-02-2019 15:45:00 12 C 68 % 6.29 C
767 16-02-2019 15:50:00 12.1 C 68 % 6.38 C
768 16-02-2019 15:55:00 12.2 C 67 % 6.26 C
769 16-02-2019 16:00:00 12.3 C 67 % 6.36 C
770 16-02-2019 16:05:00 12.3 C 67 % 6.36 C
771 16-02-2019 16:10:00 12.2 C 67 % 6.26 C
772 16-02-2019 16:15:00 12.1 C 67 % 6.17 C
773 16-02-2019 16:20:00 11.9 C 67 % 5.98 C
774 16-02-2019 16:25:00 11.8 C 67 % 5.88 C
775 16-02-2019 16:30:00 11.8 C 67 % 5.88 C
Sensor: Nr:Datum:Temp:Feuchte:Taupunkt:
Aussen-T/F 776 16-02-2019 16:35:00 11.7 C 68 % 6 C
777 16-02-2019 16:40:00 11.7 C 67 % 5.78 C
778 16-02-2019 16:45:00 11.6 C 67 % 5.69 C
779 16-02-2019 16:50:00 11.6 C 68 % 5.9 C
780 16-02-2019 16:55:00 11.6 C 68 % 5.9 C
781 16-02-2019 17:00:00 11.5 C 69 % 6.02 C
782 16-02-2019 17:05:00 11.4 C 68 % 5.71 C
783 16-02-2019 17:10:00 11.3 C 69 % 5.83 C
784 16-02-2019 17:15:00 11.2 C 69 % 5.73 C
785 16-02-2019 17:20:00 11 C 69 % 5.54 C
786 16-02-2019 17:25:00 10.8 C 70 % 5.56 C
787 16-02-2019 17:30:00 10.7 C 70 % 5.46 C
788 16-02-2019 17:35:00 10.4 C 70 % 5.17 C
789 16-02-2019 17:40:00 10.3 C 71 % 5.28 C
790 16-02-2019 17:45:00 10.1 C 71 % 5.09 C
791 16-02-2019 17:50:00 9.9 C 72 % 5.1 C
792 16-02-2019 17:55:00 9.7 C 72 % 4.9 C
793 16-02-2019 18:00:00 9.5 C 73 % 4.91 C
794 16-02-2019 18:05:00 9.3 C 74 % 4.91 C
795 16-02-2019 18:10:00 9.2 C 75 % 5.01 C
796 16-02-2019 18:15:00 9 C 75 % 4.81 C
797 16-02-2019 18:20:00 8.9 C 76 % 4.91 C
798 16-02-2019 18:25:00 8.8 C 76 % 4.81 C
799 16-02-2019 18:30:00 8.7 C 77 % 4.9 C
800 16-02-2019 18:35:00 8.5 C 78 % 4.89 C
Sensor: Nr:Datum:Temp:Feuchte:Taupunkt:
Aussen-T/F 801 16-02-2019 18:40:00 8.4 C 78 % 4.79 C
802 16-02-2019 18:45:00 8.3 C 78 % 4.7 C
803 16-02-2019 18:50:00 8.2 C 78 % 4.6 C
804 16-02-2019 18:55:00 8.1 C 79 % 4.68 C
805 16-02-2019 19:00:00 8.1 C 79 % 4.68 C
806 16-02-2019 19:05:00 8 C 79 % 4.59 C
807 16-02-2019 19:10:00 7.8 C 80 % 4.57 C
808 16-02-2019 19:15:00 7.6 C 80 % 4.38 C
809 16-02-2019 19:20:00 7.4 C 81 % 4.36 C
810 16-02-2019 19:25:00 7.3 C 81 % 4.26 C
811 16-02-2019 19:30:00 7.2 C 82 % 4.34 C
812 16-02-2019 19:35:00 7.1 C 83 % 4.41 C
813 16-02-2019 19:40:00 7.1 C 83 % 4.41 C
814 16-02-2019 19:45:00 6.9 C 82 % 4.05 C
815 16-02-2019 19:50:00 6.7 C 81 % 3.68 C
816 16-02-2019 19:55:00 6.3 C 82 % 3.46 C
817 16-02-2019 20:00:00 6.2 C 83 % 3.53 C
818 16-02-2019 20:05:00 6.1 C 83 % 3.44 C
819 16-02-2019 20:10:00 6 C 83 % 3.34 C
820 16-02-2019 20:15:00 5.8 C 83 % 3.14 C
821 16-02-2019 20:20:00 5.6 C 84 % 3.12 C
822 16-02-2019 20:25:00 5.4 C 85 % 3.09 C
823 16-02-2019 20:30:00 5.4 C 85 % 3.09 C
824 16-02-2019 20:35:00 5.3 C 84 % 2.82 C
825 16-02-2019 20:40:00 5.1 C 84 % 2.63 C
Sensor: Nr:Datum:Temp:Feuchte:Taupunkt:
Aussen-T/F 826 16-02-2019 20:45:00 4.8 C 85 % 2.5 C
827 16-02-2019 20:50:00 4.7 C 86 % 2.56 C
828 16-02-2019 20:55:00 4.6 C 86 % 2.47 C
829 16-02-2019 21:00:00 4.3 C 86 % 2.17 C
830 16-02-2019 21:05:00 4.2 C 87 % 2.23 C
831 16-02-2019 21:10:00 3.9 C 87 % 1.94 C
832 16-02-2019 21:15:00 3.8 C 88 % 2 C
833 16-02-2019 21:20:00 3.7 C 89 % 2.06 C
834 16-02-2019 21:25:00 3.8 C 90 % 2.31 C
835 16-02-2019 21:30:00 3.7 C 89 % 2.06 C
836 16-02-2019 21:35:00 3.7 C 89 % 2.06 C
837 16-02-2019 21:40:00 3.6 C 89 % 1.96 C
838 16-02-2019 21:45:00 3.6 C 90 % 2.12 C
839 16-02-2019 21:50:00 3.5 C 90 % 2.02 C
840 16-02-2019 21:55:00 3.3 C 89 % 1.67 C
841 16-02-2019 22:00:00 3.2 C 90 % 1.72 C
842 16-02-2019 22:05:00 3.2 C 90 % 1.72 C
843 16-02-2019 22:10:00 2.9 C 90 % 1.43 C
844 16-02-2019 22:15:00 2.8 C 90 % 1.33 C
845 16-02-2019 22:20:00 2.6 C 90 % 1.13 C
846 16-02-2019 22:25:00 2.7 C 92 % 1.53 C
847 16-02-2019 22:30:00 2.8 C 92 % 1.63 C
848 16-02-2019 22:35:00 2.7 C 92 % 1.53 C
849 16-02-2019 22:40:00 2.8 C 93 % 1.78 C
850 16-02-2019 22:45:00 2.8 C 92 % 1.63 C
Sensor: Nr:Datum:Temp:Feuchte:Taupunkt:
Aussen-T/F 851 16-02-2019 22:50:00 2.7 C 92 % 1.53 C
852 16-02-2019 22:55:00 2.4 C 92 % 1.24 C
853 16-02-2019 23:00:00 2.3 C 92 % 1.14 C
854 16-02-2019 23:05:00 2.1 C 91 % 0.79 C
855 16-02-2019 23:10:00 2 C 92 % 0.84 C
856 16-02-2019 23:15:00 2.1 C 93 % 1.09 C
857 16-02-2019 23:20:00 2 C 93 % 0.99 C
858 16-02-2019 23:25:00 1.9 C 93 % 0.89 C
859 16-02-2019 23:30:00 1.8 C 93 % 0.79 C
860 16-02-2019 23:35:00 1.8 C 93 % 0.79 C
861 16-02-2019 23:40:00 1.9 C 94 % 1.04 C
862 16-02-2019 23:45:00 1.9 C 94 % 1.04 C
863 16-02-2019 23:50:00 1.8 C 94 % 0.94 C
864 16-02-2019 23:55:00 1.9 C 94 % 1.04 C
865 17-02-2019 00:00:00 1.9 C 94 % 1.04 C
866 17-02-2019 00:05:00 1.9 C 94 % 1.04 C
867 17-02-2019 00:10:00 1.8 C 94 % 0.94 C
868 17-02-2019 00:15:00 1.7 C 94 % 0.84 C
869 17-02-2019 00:20:00 1.6 C 94 % 0.74 C
870 17-02-2019 00:25:00 1.5 C 94 % 0.64 C
871 17-02-2019 00:30:00 1.6 C 94 % 0.74 C
872 17-02-2019 00:35:00 1.5 C 94 % 0.64 C
873 17-02-2019 00:40:00 1.3 C 94 % 0.44 C
874 17-02-2019 00:45:00 1.3 C 94 % 0.44 C
875 17-02-2019 00:50:00 1.3 C 94 % 0.44 C
Sensor: Nr:Datum:Temp:Feuchte:Taupunkt:
Aussen-T/F 876 17-02-2019 00:55:00 1.2 C 94 % 0.34 C
877 17-02-2019 01:00:00 1.2 C 94 % 0.34 C
878 17-02-2019 01:05:00 1.2 C 94 % 0.34 C
879 17-02-2019 01:10:00 1.2 C 94 % 0.34 C
880 17-02-2019 01:15:00 0.9 C 94 % 0.05 C
881 17-02-2019 01:20:00 0.8 C 94 % -0.05 C
882 17-02-2019 01:25:00 0.8 C 94 % -0.05 C
883 17-02-2019 01:30:00 0.8 C 94 % -0.05 C
884 17-02-2019 01:35:00 0.7 C 94 % -0.15 C
885 17-02-2019 01:40:00 0.6 C 95 % -0.11 C
886 17-02-2019 01:45:00 0.6 C 95 % -0.11 C
887 17-02-2019 01:50:00 0.8 C 95 % 0.09 C
888 17-02-2019 01:55:00 0.8 C 95 % 0.09 C
889 17-02-2019 02:00:00 0.7 C 95 % -0.01 C
890 17-02-2019 02:05:00 0.7 C 95 % -0.01 C
891 17-02-2019 02:10:00 0.6 C 95 % -0.11 C
892 17-02-2019 02:15:00 0.4 C 95 % -0.31 C
893 17-02-2019 02:20:00 0.4 C 95 % -0.31 C
894 17-02-2019 02:25:00 0.3 C 95 % -0.4 C
895 17-02-2019 02:30:00 0.3 C 95 % -0.4 C
896 17-02-2019 02:35:00 0.2 C 95 % -0.5 C
897 17-02-2019 02:40:00 0.2 C 95 % -0.5 C
898 17-02-2019 02:45:00 0.1 C 95 % -0.6 C
899 17-02-2019 02:50:00 0 C 95 % -0.7 C
900 17-02-2019 02:55:00 0.2 C 95 % -0.5 C
Sensor: Nr:Datum:Temp:Feuchte:Taupunkt:
Aussen-T/F 901 17-02-2019 03:00:00 0.3 C 96 % -0.26 C
902 17-02-2019 03:05:00 0.3 C 95 % -0.4 C
903 17-02-2019 03:10:00 0.2 C 95 % -0.5 C
904 17-02-2019 03:15:00 0.2 C 95 % -0.5 C
905 17-02-2019 03:20:00 0.1 C 95 % -0.6 C
906 17-02-2019 03:25:00 0 C 95 % -0.7 C
907 17-02-2019 03:30:00 -0.1 C 95 % -0.8 C
908 17-02-2019 03:35:00 -0.1 C 95 % -0.8 C
909 17-02-2019 03:40:00 0 C 95 % -0.7 C
910 17-02-2019 03:45:00 0.1 C 96 % -0.46 C
911 17-02-2019 03:50:00 0.1 C 96 % -0.46 C
912 17-02-2019 03:55:00 0 C 96 % -0.56 C
913 17-02-2019 04:00:00 -0.1 C 96 % -0.66 C
914 17-02-2019 04:05:00 -0.2 C 95 % -0.9 C
915 17-02-2019 04:10:00 -0.2 C 95 % -0.9 C
916 17-02-2019 04:15:00 -0.2 C 95 % -0.9 C
917 17-02-2019 04:20:00 -0.3 C 95 % -1 C
918 17-02-2019 04:25:00 -0.3 C 95 % -1 C
919 17-02-2019 04:30:00 -0.3 C 96 % -0.86 C
920 17-02-2019 04:35:00 -0.4 C 96 % -0.96 C
921 17-02-2019 04:40:00 -0.4 C 95 % -1.1 C
922 17-02-2019 04:45:00 -0.6 C 95 % -1.3 C
923 17-02-2019 04:50:00 -0.7 C 95 % -1.4 C
924 17-02-2019 04:55:00 -0.7 C 96 % -1.26 C
925 17-02-2019 05:00:00 -0.6 C 96 % -1.16 C
Sensor: Nr:Datum:Temp:Feuchte:Taupunkt:
Aussen-T/F 926 17-02-2019 05:05:00 -0.6 C 96 % -1.16 C
927 17-02-2019 05:10:00 -0.7 C 96 % -1.26 C
928 17-02-2019 05:15:00 -0.7 C 95 % -1.4 C
929 17-02-2019 05:20:00 -0.8 C 95 % -1.5 C
930 17-02-2019 05:25:00 -0.8 C 95 % -1.5 C
931 17-02-2019 05:30:00 -0.8 C 96 % -1.36 C
932 17-02-2019 05:35:00 -0.9 C 96 % -1.46 C
933 17-02-2019 05:40:00 -1 C 96 % -1.56 C
934 17-02-2019 05:45:00 -1.1 C 96 % -1.66 C
935 17-02-2019 05:50:00 -1.1 C 95 % -1.8 C
936 17-02-2019 05:55:00 -1.2 C 95 % -1.9 C
937 17-02-2019 06:00:00 -1.1 C 96 % -1.66 C
938 17-02-2019 06:05:00 -0.8 C 96 % -1.36 C
939 17-02-2019 06:10:00 -0.8 C 96 % -1.36 C
940 17-02-2019 06:15:00 -0.8 C 96 % -1.36 C
941 17-02-2019 06:20:00 -0.9 C 96 % -1.46 C
942 17-02-2019 06:25:00 -1.1 C 96 % -1.66 C
943 17-02-2019 06:30:00 -1.1 C 96 % -1.66 C
944 17-02-2019 06:35:00 -1.2 C 96 % -1.75 C
945 17-02-2019 06:40:00 -1.1 C 96 % -1.66 C
946 17-02-2019 06:45:00 -1 C 96 % -1.56 C
947 17-02-2019 06:50:00 -0.9 C 96 % -1.46 C
948 17-02-2019 06:55:00 -0.9 C 96 % -1.46 C
949 17-02-2019 07:00:00 -1 C 96 % -1.56 C
950 17-02-2019 07:05:00 -1.1 C 96 % -1.66 C
Sensor: Nr:Datum:Temp:Feuchte:Taupunkt:
Aussen-T/F 951 17-02-2019 07:10:00 -1.2 C 96 % -1.75 C
952 17-02-2019 07:15:00 -1.3 C 96 % -1.85 C
953 17-02-2019 07:20:00 -1.3 C 96 % -1.85 C
954 17-02-2019 07:25:00 -1.2 C 96 % -1.75 C
955 17-02-2019 07:30:00 -1.2 C 96 % -1.75 C
956 17-02-2019 07:35:00 -1.2 C 96 % -1.75 C
957 17-02-2019 07:40:00 -1.3 C 96 % -1.85 C
958 17-02-2019 07:45:00 -1.3 C 96 % -1.85 C
959 17-02-2019 07:50:00 -1.4 C 96 % -1.95 C
960 17-02-2019 07:55:00 -1.5 C 96 % -2.05 C
961 17-02-2019 08:00:00 -1.5 C 96 % -2.05 C
962 17-02-2019 08:05:00 -1.4 C 96 % -1.95 C
963 17-02-2019 08:10:00 -1.5 C 96 % -2.05 C
964 17-02-2019 08:15:00 -1.4 C 96 % -1.95 C
965 17-02-2019 08:20:00 -1.4 C 96 % -1.95 C
966 17-02-2019 08:25:00 -1.4 C 96 % -1.95 C
967 17-02-2019 08:30:00 -1.4 C 96 % -1.95 C
968 17-02-2019 08:35:00 -1.3 C 96 % -1.85 C
969 17-02-2019 08:40:00 -1.2 C 96 % -1.75 C
970 17-02-2019 08:45:00 -1.2 C 96 % -1.75 C
971 17-02-2019 08:50:00 -1.2 C 96 % -1.75 C
972 17-02-2019 08:55:00 -1.1 C 96 % -1.66 C
973 17-02-2019 09:00:00 -1 C 96 % -1.56 C
974 17-02-2019 09:05:00 -0.9 C 96 % -1.46 C
975 17-02-2019 09:10:00 -0.9 C 96 % -1.46 C
Sensor: Nr:Datum:Temp:Feuchte:Taupunkt:
Aussen-T/F 976 17-02-2019 09:15:00 -0.8 C 96 % -1.36 C
977 17-02-2019 09:20:00 -0.8 C 96 % -1.36 C
978 17-02-2019 09:25:00 -0.8 C 96 % -1.36 C
979 17-02-2019 09:30:00 -0.8 C 96 % -1.36 C
980 17-02-2019 09:35:00 -0.8 C 96 % -1.36 C
981 17-02-2019 09:40:00 -0.8 C 96 % -1.36 C
982 17-02-2019 09:45:00 -0.8 C 96 % -1.36 C
983 17-02-2019 09:50:00 -0.7 C 96 % -1.26 C
984 17-02-2019 09:55:00 -0.7 C 96 % -1.26 C
985 17-02-2019 10:00:00 -0.7 C 96 % -1.26 C
986 17-02-2019 10:05:00 -0.6 C 96 % -1.16 C
987 17-02-2019 10:10:00 -0.5 C 96 % -1.06 C
988 17-02-2019 10:15:00 -0.4 C 96 % -0.96 C
989 17-02-2019 10:20:00 -0.4 C 97 % -0.82 C
990 17-02-2019 10:25:00 -0.3 C 97 % -0.72 C
991 17-02-2019 10:30:00 -0.2 C 97 % -0.62 C
992 17-02-2019 10:35:00 -0.1 C 97 % -0.52 C
993 17-02-2019 10:40:00 0.1 C 97 % -0.32 C
994 17-02-2019 10:45:00 0.2 C 97 % -0.22 C
995 17-02-2019 10:50:00 0.3 C 97 % -0.12 C
996 17-02-2019 10:55:00 0.6 C 97 % 0.18 C
997 17-02-2019 11:00:00 0.7 C 97 % 0.28 C
998 17-02-2019 11:05:00 0.9 C 97 % 0.48 C
999 17-02-2019 11:10:00 1.1 C 97 % 0.68 C
1000 17-02-2019 11:15:00 1.3 C 97 % 0.88 C
Sensor: Nr:Datum:Temp:Feuchte:Taupunkt:
Aussen-T/F 1001 17-02-2019 11:20:00 1.6 C 97 % 1.18 C
1002 17-02-2019 11:25:00 1.8 C 97 % 1.38 C
1003 17-02-2019 11:30:00 2.1 C 97 % 1.67 C
1004 17-02-2019 11:35:00 2.3 C 97 % 1.87 C
1005 17-02-2019 11:40:00 2.5 C 97 % 2.07 C
1006 17-02-2019 11:45:00 2.8 C 97 % 2.37 C
1007 17-02-2019 11:50:00 2.9 C 97 % 2.47 C
1008 17-02-2019 11:55:00 3.2 C 97 % 2.77 C
1009 17-02-2019 12:00:00 3.3 C 97 % 2.87 C
1010 17-02-2019 12:05:00 3.5 C 97 % 3.07 C
1011 17-02-2019 12:10:00 3.7 C 97 % 3.27 C
1012 17-02-2019 12:15:00 3.9 C 97 % 3.47 C
1013 17-02-2019 12:20:00 4.2 C 97 % 3.77 C
1014 17-02-2019 12:25:00 4.5 C 97 % 4.07 C
1015 17-02-2019 12:30:00 4.8 C 98 % 4.51 C
1016 17-02-2019 12:35:00 5.2 C 98 % 4.91 C
1017 17-02-2019 12:40:00 5.6 C 98 % 5.31 C
1018 17-02-2019 12:45:00 5.8 C 98 % 5.51 C
1019 17-02-2019 12:50:00 6.1 C 98 % 5.81 C
1020 17-02-2019 12:55:00 6.2 C 97 % 5.76 C
1021 17-02-2019 13:00:00 6.3 C 98 % 6.01 C
1022 17-02-2019 13:05:00 6.5 C 97 % 6.06 C
1023 17-02-2019 13:10:00 6.7 C 97 % 6.26 C
1024 17-02-2019 13:15:00 6.8 C 97 % 6.36 C
1025 17-02-2019 13:20:00 7.1 C 97 % 6.66 C
Sensor: Nr:Datum:Temp:Feuchte:Taupunkt:
Aussen-T/F 1026 17-02-2019 13:25:00 7.3 C 97 % 6.86 C
1027 17-02-2019 13:30:00 7.6 C 97 % 7.16 C
1028 17-02-2019 13:35:00 7.8 C 97 % 7.35 C
1029 17-02-2019 13:40:00 8.1 C 97 % 7.65 C
1030 17-02-2019 13:45:00 8.4 C 96 % 7.8 C
1031 17-02-2019 13:50:00 8.7 C 95 % 7.94 C
1032 17-02-2019 13:55:00 8.9 C 94 % 7.99 C
1033 17-02-2019 14:00:00 9.1 C 92 % 7.87 C
1034 17-02-2019 14:05:00 9.3 C 91 % 7.91 C
1035 17-02-2019 14:10:00 9.5 C 89 % 7.78 C
1036 17-02-2019 14:15:00 9.6 C 88 % 7.71 C
1037 17-02-2019 14:20:00 9.7 C 87 % 7.64 C
1038 17-02-2019 14:25:00 9.8 C 86 % 7.57 C
1039 17-02-2019 14:30:00 9.9 C 85 % 7.5 C
1040 17-02-2019 14:35:00 9.9 C 84 % 7.33 C
1041 17-02-2019 14:40:00 10 C 84 % 7.43 C
1042 17-02-2019 14:45:00 10.1 C 83 % 7.35 C
1043 17-02-2019 14:50:00 10.1 C 83 % 7.35 C
1044 17-02-2019 14:55:00 10.2 C 83 % 7.45 C
1045 17-02-2019 15:00:00 10.2 C 82 % 7.27 C
1046 17-02-2019 15:05:00 10.3 C 81 % 7.19 C
1047 17-02-2019 15:10:00 10.5 C 79 % 7.02 C
1048 17-02-2019 15:15:00 10.8 C 79 % 7.31 C
1049 17-02-2019 15:20:00 11.1 C 79 % 7.6 C
1050 17-02-2019 15:25:00 11.2 C 78 % 7.51 C
Sensor: Nr:Datum:Temp:Feuchte:Taupunkt:
Aussen-T/F 1051 17-02-2019 15:30:00 11.3 C 78 % 7.61 C
1052 17-02-2019 15:35:00 11.4 C 77 % 7.52 C
1053 17-02-2019 15:40:00 11.6 C 75 % 7.33 C
1054 17-02-2019 15:45:00 11.8 C 73 % 7.12 C
1055 17-02-2019 15:50:00 12 C 73 % 7.32 C
1056 17-02-2019 15:55:00 12.1 C 73 % 7.41 C
1057 17-02-2019 16:00:00 12.2 C 71 % 7.1 C
1058 17-02-2019 16:05:00 12.3 C 71 % 7.2 C
1059 17-02-2019 16:10:00 12.3 C 71 % 7.2 C
1060 17-02-2019 16:15:00 12.2 C 71 % 7.1 C
1061 17-02-2019 16:20:00 12.1 C 71 % 7.01 C
1062 17-02-2019 16:25:00 11.9 C 71 % 6.82 C
1063 17-02-2019 16:30:00 11.8 C 71 % 6.72 C
1064 17-02-2019 16:35:00 11.7 C 70 % 6.42 C
1065 17-02-2019 16:40:00 11.7 C 72 % 6.83 C
1066 17-02-2019 16:45:00 11.7 C 71 % 6.62 C
1067 17-02-2019 16:50:00 11.7 C 72 % 6.83 C
1068 17-02-2019 16:55:00 11.7 C 72 % 6.83 C
1069 17-02-2019 17:00:00 11.6 C 71 % 6.53 C
1070 17-02-2019 17:05:00 11.6 C 71 % 6.53 C
1071 17-02-2019 17:10:00 11.4 C 71 % 6.34 C
1072 17-02-2019 17:15:00 11.3 C 72 % 6.44 C
1073 17-02-2019 17:20:00 11.2 C 72 % 6.35 C
1074 17-02-2019 17:25:00 11.1 C 72 % 6.25 C
1075 17-02-2019 17:30:00 11.1 C 73 % 6.45 C
Sensor: Nr:Datum:Temp:Feuchte:Taupunkt:
Aussen-T/F 1076 17-02-2019 17:35:00 10.9 C 73 % 6.26 C
1077 17-02-2019 17:40:00 10.8 C 73 % 6.16 C
1078 17-02-2019 17:45:00 10.6 C 74 % 6.17 C
1079 17-02-2019 17:50:00 10.3 C 74 % 5.88 C
1080 17-02-2019 17:55:00 10.1 C 74 % 5.68 C
1081 17-02-2019 18:00:00 9.8 C 75 % 5.59 C
1082 17-02-2019 18:05:00 9.6 C 75 % 5.39 C
1083 17-02-2019 18:10:00 9.3 C 75 % 5.1 C
1084 17-02-2019 18:15:00 9 C 75 % 4.81 C
1085 17-02-2019 18:20:00 8.8 C 76 % 4.81 C
1086 17-02-2019 18:25:00 8.6 C 76 % 4.62 C
1087 17-02-2019 18:30:00 8.4 C 76 % 4.42 C
1088 17-02-2019 18:35:00 8.3 C 77 % 4.51 C
1089 17-02-2019 18:40:00 8.1 C 77 % 4.32 C
1090 17-02-2019 18:45:00 7.9 C 78 % 4.31 C
1091 17-02-2019 18:50:00 7.7 C 78 % 4.11 C
1092 17-02-2019 18:55:00 7.6 C 78 % 4.02 C
1093 17-02-2019 19:00:00 7.4 C 78 % 3.82 C
1094 17-02-2019 19:05:00 7.3 C 79 % 3.91 C
1095 17-02-2019 19:10:00 7.3 C 80 % 4.09 C
1096 17-02-2019 19:15:00 7.2 C 80 % 3.99 C
1097 17-02-2019 19:20:00 7.1 C 80 % 3.89 C
1098 17-02-2019 19:25:00 6.8 C 79 % 3.42 C
1099 17-02-2019 19:30:00 6.6 C 81 % 3.58 C
1100 17-02-2019 19:35:00 6.3 C 81 % 3.29 C
Sensor: Nr:Datum:Temp:Feuchte:Taupunkt:
Aussen-T/F 1101 17-02-2019 19:40:00 6.3 C 81 % 3.29 C
1102 17-02-2019 19:45:00 6.2 C 81 % 3.19 C
1103 17-02-2019 19:50:00 6.2 C 81 % 3.19 C
1104 17-02-2019 19:55:00 6.1 C 81 % 3.09 C
1105 17-02-2019 20:00:00 6 C 82 % 3.17 C
1106 17-02-2019 20:05:00 5.5 C 81 % 2.51 C
1107 17-02-2019 20:10:00 5.2 C 83 % 2.56 C
1108 17-02-2019 20:15:00 5.1 C 84 % 2.63 C
1109 17-02-2019 20:20:00 4.9 C 84 % 2.43 C
1110 17-02-2019 20:25:00 4.7 C 84 % 2.23 C
1111 17-02-2019 20:30:00 4.4 C 85 % 2.11 C
1112 17-02-2019 20:35:00 4.3 C 86 % 2.17 C
1113 17-02-2019 20:40:00 4.2 C 87 % 2.23 C
1114 17-02-2019 20:45:00 4.2 C 86 % 2.07 C
1115 17-02-2019 20:50:00 4 C 86 % 1.88 C
1116 17-02-2019 20:55:00 3.8 C 87 % 1.84 C
1117 17-02-2019 21:00:00 3.6 C 87 % 1.64 C
1118 17-02-2019 21:05:00 3.6 C 88 % 1.8 C
1119 17-02-2019 21:10:00 3.8 C 89 % 2.16 C
1120 17-02-2019 21:15:00 4.1 C 88 % 2.3 C
1121 17-02-2019 21:20:00 4.2 C 87 % 2.23 C
1122 17-02-2019 21:25:00 4.1 C 86 % 1.97 C
1123 17-02-2019 21:30:00 3.8 C 86 % 1.68 C
1124 17-02-2019 21:35:00 3.6 C 87 % 1.64 C
1125 17-02-2019 21:40:00 3.5 C 88 % 1.7 C
Sensor: Nr:Datum:Temp:Feuchte:Taupunkt:
Aussen-T/F 1126 17-02-2019 21:45:00 3.3 C 87 % 1.35 C
1127 17-02-2019 21:50:00 3.2 C 88 % 1.41 C
1128 17-02-2019 21:55:00 3 C 88 % 1.21 C
1129 17-02-2019 22:00:00 2.8 C 88 % 1.02 C
1130 17-02-2019 22:05:00 2.8 C 89 % 1.17 C
1131 17-02-2019 22:10:00 2.7 C 89 % 1.07 C
1132 17-02-2019 22:15:00 2.5 C 89 % 0.88 C
1133 17-02-2019 22:20:00 2.5 C 90 % 1.03 C
1134 17-02-2019 22:25:00 2.5 C 90 % 1.03 C
1135 17-02-2019 22:30:00 2.4 C 90 % 0.93 C
1136 17-02-2019 22:35:00 2.4 C 90 % 0.93 C
1137 17-02-2019 22:40:00 2.2 C 89 % 0.58 C
1138 17-02-2019 22:45:00 2 C 90 % 0.54 C
1139 17-02-2019 22:50:00 1.9 C 91 % 0.59 C
1140 17-02-2019 22:55:00 1.8 C 90 % 0.34 C
1141 17-02-2019 23:00:00 1.8 C 91 % 0.49 C
1142 17-02-2019 23:05:00 1.7 C 91 % 0.39 C
1143 17-02-2019 23:10:00 1.7 C 91 % 0.39 C
1144 17-02-2019 23:15:00 1.6 C 91 % 0.29 C
1145 17-02-2019 23:20:00 1.7 C 92 % 0.54 C
1146 17-02-2019 23:25:00 1.7 C 92 % 0.54 C
1147 17-02-2019 23:30:00 1.8 C 92 % 0.64 C
1148 17-02-2019 23:35:00 1.7 C 92 % 0.54 C
1149 17-02-2019 23:40:00 1.7 C 92 % 0.54 C
1150 17-02-2019 23:45:00 1.6 C 92 % 0.44 C
Sensor: Nr:Datum:Temp:Feuchte:Taupunkt:
Aussen-T/F 1151 17-02-2019 23:50:00 1.6 C 92 % 0.44 C
1152 17-02-2019 23:55:00 1.8 C 92 % 0.64 C
1153 18-02-2019 00:00:00 1.7 C 92 % 0.54 C
1154 18-02-2019 00:05:00 1.7 C 92 % 0.54 C
1155 18-02-2019 00:10:00 1.8 C 92 % 0.64 C
1156 18-02-2019 00:15:00 1.9 C 92 % 0.74 C
1157 18-02-2019 00:20:00 1.7 C 91 % 0.39 C
1158 18-02-2019 00:25:00 1.5 C 91 % 0.19 C
1159 18-02-2019 00:30:00 1.4 C 91 % 0.1 C
1160 18-02-2019 00:35:00 1.2 C 91 % -0.1 C
1161 18-02-2019 00:40:00 1.3 C 92 % 0.15 C
1162 18-02-2019 00:45:00 1.2 C 92 % 0.05 C
1163 18-02-2019 00:50:00 1.1 C 92 % -0.05 C
1164 18-02-2019 00:55:00 1.1 C 92 % -0.05 C
1165 18-02-2019 01:00:00 0.9 C 92 % -0.25 C
1166 18-02-2019 01:05:00 0.9 C 92 % -0.25 C
1167 18-02-2019 01:10:00 0.9 C 93 % -0.1 C
1168 18-02-2019 01:15:00 0.7 C 92 % -0.45 C
1169 18-02-2019 01:20:00 0.5 C 92 % -0.65 C
1170 18-02-2019 01:25:00 0.4 C 92 % -0.74 C
1171 18-02-2019 01:30:00 0.4 C 93 % -0.6 C
1172 18-02-2019 01:35:00 0.3 C 93 % -0.7 C
1173 18-02-2019 01:40:00 0.3 C 93 % -0.7 C
1174 18-02-2019 01:45:00 0.3 C 93 % -0.7 C
1175 18-02-2019 01:50:00 0.2 C 93 % -0.79 C
Sensor: Nr:Datum:Temp:Feuchte:Taupunkt:
Aussen-T/F 1176 18-02-2019 01:55:00 0.1 C 93 % -0.89 C
1177 18-02-2019 02:00:00 0.1 C 93 % -0.89 C
1178 18-02-2019 02:05:00 0 C 93 % -0.99 C
1179 18-02-2019 02:10:00 0 C 93 % -0.99 C
1180 18-02-2019 02:15:00 0.1 C 94 % -0.75 C
1181 18-02-2019 02:20:00 0.1 C 94 % -0.75 C
1182 18-02-2019 02:25:00 0.1 C 94 % -0.75 C
1183 18-02-2019 02:30:00 0.1 C 94 % -0.75 C
1184 18-02-2019 02:35:00 0.2 C 94 % -0.65 C
1185 18-02-2019 02:40:00 0.2 C 94 % -0.65 C
1186 18-02-2019 02:45:00 0.2 C 94 % -0.65 C
1187 18-02-2019 02:50:00 0.1 C 94 % -0.75 C
1188 18-02-2019 02:55:00 -0.2 C 94 % -1.05 C
1189 18-02-2019 03:00:00 -0.3 C 94 % -1.15 C
1190 18-02-2019 03:05:00 -0.3 C 94 % -1.15 C
1191 18-02-2019 03:10:00 -0.3 C 94 % -1.15 C
1192 18-02-2019 03:15:00 -0.3 C 94 % -1.15 C
1193 18-02-2019 03:20:00 -0.4 C 94 % -1.25 C
1194 18-02-2019 03:25:00 -0.4 C 94 % -1.25 C
1195 18-02-2019 03:30:00 -0.4 C 94 % -1.25 C
1196 18-02-2019 03:35:00 -0.4 C 94 % -1.25 C
1197 18-02-2019 03:40:00 -0.4 C 95 % -1.1 C
1198 18-02-2019 03:45:00 -0.5 C 94 % -1.34 C
1199 18-02-2019 03:50:00 -0.6 C 94 % -1.44 C
1200 18-02-2019 03:55:00 -0.7 C 94 % -1.54 C
Sensor: Nr:Datum:Temp:Feuchte:Taupunkt:
Aussen-T/F 1201 18-02-2019 04:00:00 -0.7 C 94 % -1.54 C
1202 18-02-2019 04:05:00 -0.8 C 94 % -1.64 C
1203 18-02-2019 04:10:00 -0.8 C 94 % -1.64 C
1204 18-02-2019 04:15:00 -0.8 C 94 % -1.64 C
1205 18-02-2019 04:20:00 -0.9 C 94 % -1.74 C
1206 18-02-2019 04:25:00 -0.8 C 95 % -1.5 C
1207 18-02-2019 04:30:00 -0.7 C 95 % -1.4 C
1208 18-02-2019 04:35:00 -0.7 C 95 % -1.4 C
1209 18-02-2019 04:40:00 -0.7 C 95 % -1.4 C
1210 18-02-2019 04:45:00 -0.7 C 95 % -1.4 C
1211 18-02-2019 04:50:00 -0.8 C 95 % -1.5 C
1212 18-02-2019 04:55:00 -0.9 C 95 % -1.6 C
1213 18-02-2019 05:00:00 -1 C 95 % -1.7 C
1214 18-02-2019 05:05:00 -1.1 C 95 % -1.8 C
1215 18-02-2019 05:10:00 -1.1 C 95 % -1.8 C
1216 18-02-2019 05:15:00 -1.2 C 95 % -1.9 C
1217 18-02-2019 05:20:00 -1.2 C 95 % -1.9 C
1218 18-02-2019 05:25:00 -1.3 C 95 % -2 C
1219 18-02-2019 05:30:00 -1.2 C 95 % -1.9 C
1220 18-02-2019 05:35:00 -1.2 C 95 % -1.9 C
1221 18-02-2019 05:40:00 -1.2 C 95 % -1.9 C
1222 18-02-2019 05:45:00 -1.3 C 95 % -2 C
1223 18-02-2019 05:50:00 -1.3 C 95 % -2 C
1224 18-02-2019 05:55:00 -1.5 C 95 % -2.19 C
1225 18-02-2019 06:00:00 -1.5 C 95 % -2.19 C
Sensor: Nr:Datum:Temp:Feuchte:Taupunkt:
Aussen-T/F 1226 18-02-2019 06:05:00 -1.4 C 95 % -2.1 C
1227 18-02-2019 06:10:00 -1.4 C 95 % -2.1 C
1228 18-02-2019 06:15:00 -1.4 C 95 % -2.1 C
1229 18-02-2019 06:20:00 -1.6 C 95 % -2.29 C
1230 18-02-2019 06:25:00 -1.4 C 95 % -2.1 C
1231 18-02-2019 06:30:00 -1.4 C 95 % -2.1 C
1232 18-02-2019 06:35:00 -1.4 C 95 % -2.1 C
1233 18-02-2019 06:40:00 -1.6 C 95 % -2.29 C
1234 18-02-2019 06:45:00 -1.7 C 95 % -2.39 C
1235 18-02-2019 06:50:00 -1.6 C 95 % -2.29 C
1236 18-02-2019 06:55:00 -1.3 C 95 % -2 C
1237 18-02-2019 07:00:00 -1.3 C 96 % -1.85 C
1238 18-02-2019 07:05:00 -1.3 C 95 % -2 C
1239 18-02-2019 07:10:00 -1.5 C 95 % -2.19 C
1240 18-02-2019 07:15:00 -1.7 C 95 % -2.39 C
1241 18-02-2019 07:20:00 -1.7 C 95 % -2.39 C
1242 18-02-2019 07:25:00 -1.6 C 95 % -2.29 C
1243 18-02-2019 07:30:00 -1.6 C 95 % -2.29 C
1244 18-02-2019 07:35:00 -1.7 C 95 % -2.39 C
1245 18-02-2019 07:40:00 -1.8 C 95 % -2.49 C
1246 18-02-2019 07:45:00 -1.8 C 95 % -2.49 C
1247 18-02-2019 07:50:00 -1.9 C 95 % -2.59 C
1248 18-02-2019 07:55:00 -1.9 C 95 % -2.59 C
1249 18-02-2019 08:00:00 -1.9 C 95 % -2.59 C
1250 18-02-2019 08:05:00 -1.9 C 95 % -2.59 C
Sensor: Nr:Datum:Temp:Feuchte:Taupunkt:
Aussen-T/F 1251 18-02-2019 08:10:00 -1.9 C 95 % -2.59 C
1252 18-02-2019 08:15:00 -1.9 C 95 % -2.59 C
1253 18-02-2019 08:20:00 -1.9 C 95 % -2.59 C
1254 18-02-2019 08:25:00 -1.8 C 95 % -2.49 C
1255 18-02-2019 08:30:00 -1.8 C 95 % -2.49 C
1256 18-02-2019 08:35:00 -1.7 C 96 % -2.25 C
1257 18-02-2019 08:40:00 -1.4 C 96 % -1.95 C
1258 18-02-2019 08:45:00 -1.2 C 96 % -1.75 C
1259 18-02-2019 08:50:00 -1.1 C 96 % -1.66 C
1260 18-02-2019 08:55:00 -1.1 C 96 % -1.66 C
1261 18-02-2019 09:00:00 -0.9 C 96 % -1.46 C
1262 18-02-2019 09:05:00 -0.6 C 96 % -1.16 C
1263 18-02-2019 09:10:00 -0.5 C 96 % -1.06 C
1264 18-02-2019 09:15:00 -0.6 C 96 % -1.16 C
1265 18-02-2019 09:20:00 -0.6 C 96 % -1.16 C
1266 18-02-2019 09:25:00 -0.5 C 96 % -1.06 C
1267 18-02-2019 09:30:00 -0.4 C 96 % -0.96 C
1268 18-02-2019 09:35:00 -0.4 C 96 % -0.96 C
1269 18-02-2019 09:40:00 -0.5 C 96 % -1.06 C
1270 18-02-2019 09:45:00 -0.6 C 96 % -1.16 C
1271 18-02-2019 09:50:00 -0.6 C 96 % -1.16 C
1272 18-02-2019 09:55:00 -0.6 C 96 % -1.16 C
1273 18-02-2019 10:00:00 -0.5 C 96 % -1.06 C
1274 18-02-2019 10:05:00 -0.5 C 96 % -1.06 C
1275 18-02-2019 10:10:00 -0.4 C 96 % -0.96 C
Sensor: Nr:Datum:Temp:Feuchte:Taupunkt:
Aussen-T/F 1276 18-02-2019 10:15:00 -0.3 C 96 % -0.86 C
1277 18-02-2019 10:20:00 -0.1 C 96 % -0.66 C
1278 18-02-2019 10:25:00 0.1 C 96 % -0.46 C
1279 18-02-2019 10:30:00 0.2 C 96 % -0.36 C
1280 18-02-2019 10:35:00 0.3 C 96 % -0.26 C
1281 18-02-2019 10:40:00 0.5 C 96 % -0.06 C
1282 18-02-2019 10:45:00 0.7 C 96 % 0.14 C
1283 18-02-2019 10:50:00 1 C 97 % 0.58 C
1284 18-02-2019 10:55:00 1.3 C 97 % 0.88 C
1285 18-02-2019 11:00:00 1.6 C 97 % 1.18 C
1286 18-02-2019 11:05:00 1.7 C 97 % 1.28 C
1287 18-02-2019 11:10:00 1.9 C 97 % 1.48 C
1288 18-02-2019 11:15:00 2.2 C 97 % 1.77 C
1289 18-02-2019 11:20:00 2.4 C 97 % 1.97 C
1290 18-02-2019 11:25:00 2.7 C 97 % 2.27 C
1291 18-02-2019 11:30:00 3 C 97 % 2.57 C
1292 18-02-2019 11:35:00 3.3 C 97 % 2.87 C
1293 18-02-2019 11:40:00 3.6 C 97 % 3.17 C
1294 18-02-2019 11:45:00 3.7 C 96 % 3.12 C
1295 18-02-2019 11:50:00 3.9 C 96 % 3.32 C
1296 18-02-2019 11:55:00 4.1 C 95 % 3.37 C
1297 18-02-2019 12:00:00 4.2 C 95 % 3.47 C
1298 18-02-2019 12:05:00 4.4 C 95 % 3.67 C
1299 18-02-2019 12:10:00 4.7 C 95 % 3.97 C
1300 18-02-2019 12:15:00 4.9 C 95 % 4.17 C
Sensor: Nr:Datum:Temp:Feuchte:Taupunkt:
Aussen-T/F 1301 18-02-2019 12:20:00 5.3 C 95 % 4.57 C
1302 18-02-2019 12:25:00 5.6 C 95 % 4.86 C
1303 18-02-2019 12:30:00 6.1 C 95 % 5.36 C
1304 18-02-2019 12:35:00 6.6 C 93 % 5.55 C
1305 18-02-2019 12:40:00 7.1 C 92 % 5.89 C
1306 18-02-2019 12:45:00 7.5 C 90 % 5.97 C
1307 18-02-2019 12:50:00 7.9 C 88 % 6.04 C
1308 18-02-2019 12:55:00 8.2 C 87 % 6.17 C
1309 18-02-2019 13:00:00 8.3 C 86 % 6.1 C
1310 18-02-2019 13:05:00 8.4 C 85 % 6.03 C
1311 18-02-2019 13:10:00 8.6 C 84 % 6.05 C
1312 18-02-2019 13:15:00 8.8 C 83 % 6.08 C
1313 18-02-2019 13:20:00 9 C 83 % 6.27 C
1314 18-02-2019 13:25:00 9.3 C 81 % 6.21 C
1315 18-02-2019 13:30:00 9.7 C 81 % 6.6 C
1316 18-02-2019 13:35:00 10 C 79 % 6.53 C
1317 18-02-2019 13:40:00 10.3 C 78 % 6.64 C
1318 18-02-2019 13:45:00 10.6 C 76 % 6.55 C
1319 18-02-2019 13:50:00 10.9 C 75 % 6.65 C
1320 18-02-2019 13:55:00 11.2 C 74 % 6.74 C
1321 18-02-2019 14:00:00 11.5 C 73 % 6.84 C
1322 18-02-2019 14:05:00 11.6 C 71 % 6.53 C
1323 18-02-2019 14:10:00 11.7 C 71 % 6.62 C
1324 18-02-2019 14:15:00 11.7 C 71 % 6.62 C
1325 18-02-2019 14:20:00 11.6 C 71 % 6.53 C
Sensor: Nr:Datum:Temp:Feuchte:Taupunkt:
Aussen-T/F 1326 18-02-2019 14:25:00 11.5 C 71 % 6.43 C
1327 18-02-2019 14:30:00 11.3 C 72 % 6.44 C
1328 18-02-2019 14:35:00 11.2 C 72 % 6.35 C
1329 18-02-2019 14:40:00 11 C 73 % 6.35 C
1330 18-02-2019 14:45:00 10.9 C 73 % 6.26 C
1331 18-02-2019 14:50:00 11 C 73 % 6.35 C
1332 18-02-2019 14:55:00 11.1 C 73 % 6.45 C
1333 18-02-2019 15:00:00 11.1 C 73 % 6.45 C
1334 18-02-2019 15:05:00 11.2 C 72 % 6.35 C
1335 18-02-2019 15:10:00 11.4 C 71 % 6.34 C
1336 18-02-2019 15:15:00 11.6 C 71 % 6.53 C
1337 18-02-2019 15:20:00 11.7 C 69 % 6.21 C
1338 18-02-2019 15:25:00 11.9 C 67 % 5.98 C
1339 18-02-2019 15:30:00 12.2 C 65 % 5.82 C
1340 18-02-2019 15:35:00 12.4 C 65 % 6.01 C
1341 18-02-2019 15:40:00 12.6 C 66 % 6.42 C
1342 18-02-2019 15:45:00 12.7 C 60 % 5.14 C
1343 18-02-2019 15:50:00 12.9 C 62 % 5.8 C
1344 18-02-2019 15:55:00 13 C 62 % 5.9 C
1345 18-02-2019 16:00:00 12.9 C 62 % 5.8 C
1346 18-02-2019 16:05:00 12.8 C 62 % 5.71 C
1347 18-02-2019 16:10:00 12.6 C 61 % 5.29 C
1348 18-02-2019 16:15:00 12.4 C 63 % 5.56 C
1349 18-02-2019 16:20:00 12.2 C 62 % 5.14 C
1350 18-02-2019 16:25:00 11.9 C 63 % 5.09 C
Sensor: Nr:Datum:Temp:Feuchte:Taupunkt:
Aussen-T/F 1351 18-02-2019 16:30:00 11.7 C 65 % 5.35 C
1352 18-02-2019 16:35:00 11.5 C 66 % 5.38 C
1353 18-02-2019 16:40:00 11.3 C 67 % 5.4 C
1354 18-02-2019 16:45:00 11.1 C 68 % 5.43 C
1355 18-02-2019 16:50:00 10.9 C 68 % 5.23 C
1356 18-02-2019 16:55:00 10.8 C 68 % 5.14 C
1357 18-02-2019 17:00:00 10.8 C 68 % 5.14 C
1358 18-02-2019 17:05:00 10.8 C 68 % 5.14 C
1359 18-02-2019 17:10:00 10.8 C 69 % 5.35 C
1360 18-02-2019 17:15:00 10.9 C 68 % 5.23 C
1361 18-02-2019 17:20:00 10.9 C 68 % 5.23 C
1362 18-02-2019 17:25:00 10.8 C 69 % 5.35 C
1363 18-02-2019 17:30:00 10.6 C 70 % 5.36 C
1364 18-02-2019 17:35:00 10.3 C 70 % 5.08 C
1365 18-02-2019 17:40:00 10.1 C 70 % 4.89 C
1366 18-02-2019 17:45:00 9.9 C 71 % 4.9 C
1367 18-02-2019 17:50:00 9.7 C 72 % 4.9 C
1368 18-02-2019 17:55:00 9.5 C 72 % 4.71 C
1369 18-02-2019 18:00:00 9.3 C 73 % 4.72 C
1370 18-02-2019 18:05:00 9.1 C 73 % 4.52 C
1371 18-02-2019 18:10:00 8.9 C 73 % 4.33 C
1372 18-02-2019 18:15:00 8.7 C 74 % 4.33 C
1373 18-02-2019 18:20:00 8.5 C 74 % 4.14 C
1374 18-02-2019 18:25:00 8.3 C 75 % 4.14 C
1375 18-02-2019 18:30:00 8.3 C 76 % 4.33 C
Sensor: Nr:Datum:Temp:Feuchte:Taupunkt:
Aussen-T/F 1376 18-02-2019 18:35:00 8.2 C 76 % 4.23 C
1377 18-02-2019 18:40:00 8.1 C 76 % 4.13 C
1378 18-02-2019 18:45:00 8 C 76 % 4.04 C
1379 18-02-2019 18:50:00 7.9 C 76 % 3.94 C
1380 18-02-2019 18:55:00 7.7 C 75 % 3.56 C
1381 18-02-2019 19:00:00 7.5 C 76 % 3.55 C
1382 18-02-2019 19:05:00 7.3 C 78 % 3.73 C
1383 18-02-2019 19:10:00 7.2 C 79 % 3.81 C
1384 18-02-2019 19:15:00 7.1 C 79 % 3.71 C
1385 18-02-2019 19:20:00 6.9 C 80 % 3.7 C
1386 18-02-2019 19:25:00 6.8 C 81 % 3.77 C
1387 18-02-2019 19:30:00 6.8 C 81 % 3.77 C
1388 18-02-2019 19:35:00 6.8 C 82 % 3.95 C
1389 18-02-2019 19:40:00 6.9 C 81 % 3.87 C
1390 18-02-2019 19:45:00 6.9 C 81 % 3.87 C
1391 18-02-2019 19:50:00 6.9 C 81 % 3.87 C
1392 18-02-2019 19:55:00 6.9 C 81 % 3.87 C
1393 18-02-2019 20:00:00 6.8 C 80 % 3.6 C
1394 18-02-2019 20:05:00 6.7 C 79 % 3.32 C
1395 18-02-2019 20:10:00 6.6 C 79 % 3.23 C
1396 18-02-2019 20:15:00 6.4 C 78 % 2.85 C
1397 18-02-2019 20:20:00 6.1 C 79 % 2.74 C
1398 18-02-2019 20:25:00 5.8 C 81 % 2.8 C
1399 18-02-2019 20:30:00 5.5 C 81 % 2.51 C
1400 18-02-2019 20:35:00 5.2 C 82 % 2.39 C
Sensor: Nr:Datum:Temp:Feuchte:Taupunkt:
Aussen-T/F 1401 18-02-2019 20:40:00 4.9 C 82 % 2.09 C
1402 18-02-2019 20:45:00 4.7 C 84 % 2.23 C
1403 18-02-2019 20:50:00 4.6 C 85 % 2.3 C
1404 18-02-2019 20:55:00 4.6 C 86 % 2.47 C
1405 18-02-2019 21:00:00 4.6 C 86 % 2.47 C
1406 18-02-2019 21:05:00 4.6 C 86 % 2.47 C
1407 18-02-2019 21:10:00 4.4 C 86 % 2.27 C
1408 18-02-2019 21:15:00 4.3 C 86 % 2.17 C
1409 18-02-2019 21:20:00 4.3 C 86 % 2.17 C
1410 18-02-2019 21:25:00 4.2 C 86 % 2.07 C
1411 18-02-2019 21:30:00 4.2 C 86 % 2.07 C
1412 18-02-2019 21:35:00 4 C 86 % 1.88 C
1413 18-02-2019 21:40:00 3.9 C 86 % 1.78 C
1414 18-02-2019 21:45:00 3.8 C 86 % 1.68 C
1415 18-02-2019 21:50:00 3.6 C 86 % 1.48 C
1416 18-02-2019 21:55:00 3.3 C 86 % 1.19 C
1417 18-02-2019 22:00:00 3.2 C 87 % 1.25 C
1418 18-02-2019 22:05:00 3 C 87 % 1.05 C
1419 18-02-2019 22:10:00 3 C 88 % 1.21 C
1420 18-02-2019 22:15:00 2.9 C 89 % 1.27 C
1421 18-02-2019 22:20:00 2.9 C 89 % 1.27 C
1422 18-02-2019 22:25:00 2.8 C 89 % 1.17 C
1423 18-02-2019 22:30:00 2.7 C 89 % 1.07 C
1424 18-02-2019 22:35:00 2.7 C 89 % 1.07 C
1425 18-02-2019 22:40:00 2.7 C 89 % 1.07 C
Sensor: Nr:Datum:Temp:Feuchte:Taupunkt:
Aussen-T/F 1426 18-02-2019 22:45:00 2.5 C 89 % 0.88 C
1427 18-02-2019 22:50:00 2.4 C 90 % 0.93 C
1428 18-02-2019 22:55:00 2.4 C 90 % 0.93 C
1429 18-02-2019 23:00:00 2.3 C 90 % 0.83 C
1430 18-02-2019 23:05:00 2.3 C 90 % 0.83 C
1431 18-02-2019 23:10:00 2.2 C 91 % 0.89 C
1432 18-02-2019 23:15:00 2.3 C 91 % 0.99 C
1433 18-02-2019 23:20:00 2.3 C 91 % 0.99 C
1434 18-02-2019 23:25:00 2.3 C 91 % 0.99 C
1435 18-02-2019 23:30:00 2.2 C 91 % 0.89 C
1436 18-02-2019 23:35:00 2.1 C 91 % 0.79 C
1437 18-02-2019 23:40:00 2 C 91 % 0.69 C
1438 18-02-2019 23:45:00 1.9 C 91 % 0.59 C
1439 18-02-2019 23:50:00 1.9 C 91 % 0.59 C
1440 18-02-2019 23:55:00 1.8 C 91 % 0.49 C
1441 19-02-2019 00:00:00 1.8 C 91 % 0.49 C
1442 19-02-2019 00:05:00 1.7 C 91 % 0.39 C
1443 19-02-2019 00:10:00 1.7 C 92 % 0.54 C
1444 19-02-2019 00:15:00 1.7 C 92 % 0.54 C
1445 19-02-2019 00:20:00 1.7 C 92 % 0.54 C
1446 19-02-2019 00:25:00 1.8 C 92 % 0.64 C
1447 19-02-2019 00:30:00 1.7 C 92 % 0.54 C
1448 19-02-2019 00:35:00 1.7 C 92 % 0.54 C
1449 19-02-2019 00:40:00 1.7 C 92 % 0.54 C
1450 19-02-2019 00:45:00 1.7 C 93 % 0.69 C
Sensor: Nr:Datum:Temp:Feuchte:Taupunkt:
Aussen-T/F 1451 19-02-2019 00:50:00 1.7 C 93 % 0.69 C
1452 19-02-2019 00:55:00 1.8 C 93 % 0.79 C
1453 19-02-2019 01:00:00 1.8 C 93 % 0.79 C
1454 19-02-2019 01:05:00 1.8 C 93 % 0.79 C
1455 19-02-2019 01:10:00 1.8 C 93 % 0.79 C
1456 19-02-2019 01:15:00 1.9 C 93 % 0.89 C
1457 19-02-2019 01:20:00 1.9 C 93 % 0.89 C
1458 19-02-2019 01:25:00 1.9 C 93 % 0.89 C
1459 19-02-2019 01:30:00 1.8 C 92 % 0.64 C
1460 19-02-2019 01:35:00 1.8 C 92 % 0.64 C
1461 19-02-2019 01:40:00 1.8 C 93 % 0.79 C
1462 19-02-2019 01:45:00 1.9 C 93 % 0.89 C
1463 19-02-2019 01:50:00 1.8 C 93 % 0.79 C
1464 19-02-2019 01:55:00 1.8 C 93 % 0.79 C
1465 19-02-2019 02:00:00 1.8 C 93 % 0.79 C
1466 19-02-2019 02:05:00 1.8 C 93 % 0.79 C
1467 19-02-2019 02:10:00 1.8 C 93 % 0.79 C
1468 19-02-2019 02:15:00 1.9 C 94 % 1.04 C
1469 19-02-2019 02:20:00 2 C 93 % 0.99 C
1470 19-02-2019 02:25:00 1.9 C 93 % 0.89 C
1471 19-02-2019 02:30:00 1.8 C 93 % 0.79 C
1472 19-02-2019 02:35:00 1.8 C 93 % 0.79 C
1473 19-02-2019 02:40:00 1.8 C 93 % 0.79 C
1474 19-02-2019 02:45:00 1.8 C 93 % 0.79 C
1475 19-02-2019 02:50:00 1.9 C 94 % 1.04 C
Sensor: Nr:Datum:Temp:Feuchte:Taupunkt:
Aussen-T/F 1476 19-02-2019 02:55:00 1.9 C 94 % 1.04 C
1477 19-02-2019 03:00:00 2 C 94 % 1.14 C
1478 19-02-2019 03:05:00 2 C 94 % 1.14 C
1479 19-02-2019 03:10:00 2 C 94 % 1.14 C
1480 19-02-2019 03:15:00 2.1 C 94 % 1.24 C
1481 19-02-2019 03:20:00 2.1 C 94 % 1.24 C
1482 19-02-2019 03:25:00 2.1 C 94 % 1.24 C
1483 19-02-2019 03:30:00 2.3 C 95 % 1.58 C
1484 19-02-2019 03:35:00 2.4 C 95 % 1.68 C
1485 19-02-2019 03:40:00 2.6 C 95 % 1.88 C
1486 19-02-2019 03:45:00 2.7 C 95 % 1.98 C
1487 19-02-2019 03:50:00 2.8 C 95 % 2.08 C
1488 19-02-2019 03:55:00 3 C 95 % 2.28 C
1489 19-02-2019 04:00:00 3.2 C 95 % 2.48 C
1490 19-02-2019 04:05:00 3.3 C 95 % 2.58 C
1491 19-02-2019 04:10:00 3.4 C 95 % 2.68 C
1492 19-02-2019 04:15:00 3.6 C 95 % 2.88 C
1493 19-02-2019 04:20:00 3.7 C 95 % 2.98 C
1494 19-02-2019 04:25:00 3.8 C 95 % 3.07 C
1495 19-02-2019 04:30:00 3.8 C 94 % 2.93 C
1496 19-02-2019 04:35:00 3.8 C 94 % 2.93 C
1497 19-02-2019 04:40:00 3.8 C 93 % 2.77 C
1498 19-02-2019 04:45:00 3.9 C 93 % 2.87 C
1499 19-02-2019 04:50:00 4 C 93 % 2.97 C
1500 19-02-2019 04:55:00 4.1 C 92 % 2.92 C
Sensor: Nr:Datum:Temp:Feuchte:Taupunkt:
Aussen-T/F 1501 19-02-2019 05:00:00 4.1 C 92 % 2.92 C
1502 19-02-2019 05:05:00 3.9 C 91 % 2.57 C
1503 19-02-2019 05:10:00 3.9 C 90 % 2.41 C
1504 19-02-2019 05:15:00 3.9 C 91 % 2.57 C
1505 19-02-2019 05:20:00 3.9 C 91 % 2.57 C
1506 19-02-2019 05:25:00 3.9 C 91 % 2.57 C
1507 19-02-2019 05:30:00 3.9 C 91 % 2.57 C
1508 19-02-2019 05:35:00 4 C 91 % 2.67 C
1509 19-02-2019 05:40:00 4.1 C 91 % 2.77 C
1510 19-02-2019 05:45:00 4.2 C 91 % 2.87 C
1511 19-02-2019 05:50:00 4.3 C 90 % 2.81 C
1512 19-02-2019 05:55:00 4.4 C 90 % 2.91 C
1513 19-02-2019 06:00:00 4.6 C 90 % 3.1 C
1514 19-02-2019 06:05:00 4.7 C 89 % 3.05 C
1515 19-02-2019 06:10:00 4.8 C 88 % 2.99 C
1516 19-02-2019 06:15:00 4.9 C 88 % 3.08 C
1517 19-02-2019 06:20:00 5.1 C 87 % 3.12 C
1518 19-02-2019 06:25:00 5.1 C 87 % 3.12 C
1519 19-02-2019 06:30:00 5.1 C 87 % 3.12 C
1520 19-02-2019 06:35:00 5.1 C 87 % 3.12 C
1521 19-02-2019 06:40:00 5.1 C 87 % 3.12 C
1522 19-02-2019 06:45:00 5.1 C 87 % 3.12 C
1523 19-02-2019 06:50:00 5.1 C 88 % 3.28 C
1524 19-02-2019 06:55:00 5.2 C 88 % 3.38 C
1525 19-02-2019 07:00:00 5.2 C 88 % 3.38 C
Sensor: Nr:Datum:Temp:Feuchte:Taupunkt:
Aussen-T/F 1526 19-02-2019 07:05:00 5.2 C 89 % 3.54 C
1527 19-02-2019 07:10:00 5.2 C 89 % 3.54 C
1528 19-02-2019 07:15:00 5.2 C 89 % 3.54 C
1529 19-02-2019 07:20:00 5.2 C 89 % 3.54 C
1530 19-02-2019 07:25:00 5.2 C 90 % 3.7 C
1531 19-02-2019 07:30:00 5.2 C 90 % 3.7 C
1532 19-02-2019 07:35:00 5.2 C 91 % 3.85 C
1533 19-02-2019 07:40:00 5.2 C 91 % 3.85 C
1534 19-02-2019 07:45:00 5.2 C 92 % 4.01 C
1535 19-02-2019 07:50:00 5.2 C 92 % 4.01 C
1536 19-02-2019 07:55:00 5.2 C 92 % 4.01 C
1537 19-02-2019 08:00:00 5.2 C 92 % 4.01 C
1538 19-02-2019 08:05:00 5.2 C 93 % 4.16 C
1539 19-02-2019 08:10:00 5.1 C 92 % 3.91 C
1540 19-02-2019 08:15:00 4.9 C 92 % 3.71 C
1541 19-02-2019 08:20:00 4.9 C 93 % 3.87 C
1542 19-02-2019 08:25:00 4.9 C 93 % 3.87 C
1543 19-02-2019 08:30:00 4.8 C 93 % 3.77 C
1544 19-02-2019 08:35:00 4.8 C 93 % 3.77 C
1545 19-02-2019 08:40:00 4.8 C 94 % 3.92 C
1546 19-02-2019 08:45:00 4.8 C 93 % 3.77 C
1547 19-02-2019 08:50:00 4.7 C 93 % 3.67 C
1548 19-02-2019 08:55:00 4.6 C 94 % 3.72 C
1549 19-02-2019 09:00:00 4.7 C 94 % 3.82 C
1550 19-02-2019 09:05:00 4.8 C 94 % 3.92 C
Sensor: Nr:Datum:Temp:Feuchte:Taupunkt:
Aussen-T/F 1551 19-02-2019 09:10:00 4.9 C 95 % 4.17 C
1552 19-02-2019 09:15:00 5 C 95 % 4.27 C
1553 19-02-2019 09:20:00 5.1 C 95 % 4.37 C
1554 19-02-2019 09:25:00 5.1 C 95 % 4.37 C
1555 19-02-2019 09:30:00 5.2 C 95 % 4.47 C
1556 19-02-2019 09:35:00 5.3 C 95 % 4.57 C
1557 19-02-2019 09:40:00 5.5 C 95 % 4.76 C
1558 19-02-2019 09:45:00 5.7 C 95 % 4.96 C
1559 19-02-2019 09:50:00 5.8 C 95 % 5.06 C
1560 19-02-2019 09:55:00 5.9 C 95 % 5.16 C
1561 19-02-2019 10:00:00 5.9 C 95 % 5.16 C
1562 19-02-2019 10:05:00 6.1 C 95 % 5.36 C
1563 19-02-2019 10:10:00 6.2 C 95 % 5.46 C
1564 19-02-2019 10:15:00 6.2 C 95 % 5.46 C
1565 19-02-2019 10:20:00 6.2 C 94 % 5.31 C
1566 19-02-2019 10:25:00 6.3 C 94 % 5.41 C
1567 19-02-2019 10:30:00 6.4 C 94 % 5.51 C
1568 19-02-2019 10:35:00 6.4 C 94 % 5.51 C
1569 19-02-2019 10:40:00 6.5 C 94 % 5.61 C
1570 19-02-2019 10:45:00 6.6 C 94 % 5.71 C
1571 19-02-2019 10:50:00 6.6 C 94 % 5.71 C
1572 19-02-2019 10:55:00 6.7 C 93 % 5.65 C
1573 19-02-2019 11:00:00 6.7 C 93 % 5.65 C
1574 19-02-2019 11:05:00 6.8 C 93 % 5.75 C
1575 19-02-2019 11:10:00 6.9 C 93 % 5.85 C
Sensor: Nr:Datum:Temp:Feuchte:Taupunkt:
Aussen-T/F 1576 19-02-2019 11:15:00 7.1 C 93 % 6.05 C
1577 19-02-2019 11:20:00 7.1 C 93 % 6.05 C
1578 19-02-2019 11:25:00 7.2 C 93 % 6.15 C
1579 19-02-2019 11:30:00 7.3 C 93 % 6.25 C
1580 19-02-2019 11:35:00 7.4 C 93 % 6.34 C
1581 19-02-2019 11:40:00 7.6 C 92 % 6.39 C
1582 19-02-2019 11:45:00 7.6 C 92 % 6.39 C
1583 19-02-2019 11:50:00 7.8 C 92 % 6.58 C
1584 19-02-2019 11:55:00 7.9 C 92 % 6.68 C
1585 19-02-2019 12:00:00 8.1 C 92 % 6.88 C
1586 19-02-2019 12:05:00 8.2 C 91 % 6.82 C
1587 19-02-2019 12:10:00 8.4 C 91 % 7.02 C
1588 19-02-2019 12:15:00 8.5 C 89 % 6.79 C
1589 19-02-2019 12:20:00 8.6 C 88 % 6.73 C
1590 19-02-2019 12:25:00 8.7 C 88 % 6.83 C
1591 19-02-2019 12:30:00 8.8 C 88 % 6.93 C
1592 19-02-2019 12:35:00 8.8 C 87 % 6.76 C
1593 19-02-2019 12:40:00 8.9 C 86 % 6.69 C
1594 19-02-2019 12:45:00 9.1 C 85 % 6.72 C
1595 19-02-2019 12:50:00 9.2 C 85 % 6.81 C
1596 19-02-2019 12:55:00 9.3 C 85 % 6.91 C
1597 19-02-2019 13:00:00 9.2 C 84 % 6.64 C
1598 19-02-2019 13:05:00 9.2 C 83 % 6.47 C
1599 19-02-2019 13:10:00 9.3 C 83 % 6.57 C
1600 19-02-2019 13:15:00 9.4 C 82 % 6.49 C
Sensor: Nr:Datum:Temp:Feuchte:Taupunkt:
Aussen-T/F 1601 19-02-2019 13:20:00 9.7 C 83 % 6.96 C
1602 19-02-2019 13:25:00 9.8 C 81 % 6.7 C
1603 19-02-2019 13:30:00 10.1 C 82 % 7.17 C
1604 19-02-2019 13:35:00 10.3 C 79 % 6.82 C
1605 19-02-2019 13:40:00 10.4 C 78 % 6.74 C
1606 19-02-2019 13:45:00 10.5 C 76 % 6.45 C
1607 19-02-2019 13:50:00 10.6 C 75 % 6.36 C
1608 19-02-2019 13:55:00 10.8 C 75 % 6.55 C
1609 19-02-2019 14:00:00 10.8 C 75 % 6.55 C
1610 19-02-2019 14:05:00 10.7 C 75 % 6.46 C
1611 19-02-2019 14:10:00 10.7 C 74 % 6.26 C
1612 19-02-2019 14:15:00 10.8 C 74 % 6.36 C
1613 19-02-2019 14:20:00 10.7 C 74 % 6.26 C
1614 19-02-2019 14:25:00 10.7 C 74 % 6.26 C
1615 19-02-2019 14:30:00 10.6 C 74 % 6.17 C
1616 19-02-2019 14:35:00 10.6 C 74 % 6.17 C
1617 19-02-2019 14:40:00 10.5 C 75 % 6.26 C
1618 19-02-2019 14:45:00 10.5 C 76 % 6.45 C
1619 19-02-2019 14:50:00 10.6 C 75 % 6.36 C
1620 19-02-2019 14:55:00 10.6 C 74 % 6.17 C
1621 19-02-2019 15:00:00 10.7 C 74 % 6.26 C
1622 19-02-2019 15:05:00 10.7 C 75 % 6.46 C
1623 19-02-2019 15:10:00 10.8 C 74 % 6.36 C
1624 19-02-2019 15:15:00 10.9 C 74 % 6.45 C
1625 19-02-2019 15:20:00 10.9 C 73 % 6.26 C
Sensor: Nr:Datum:Temp:Feuchte:Taupunkt:
Aussen-T/F 1626 19-02-2019 15:25:00 10.9 C 72 % 6.06 C
1627 19-02-2019 15:30:00 10.9 C 73 % 6.26 C
1628 19-02-2019 15:35:00 11 C 72 % 6.15 C
1629 19-02-2019 15:40:00 11 C 71 % 5.95 C
1630 19-02-2019 15:45:00 11.1 C 71 % 6.05 C
1631 19-02-2019 15:50:00 11.2 C 71 % 6.14 C
1632 19-02-2019 15:55:00 11.2 C 70 % 5.94 C
1633 19-02-2019 16:00:00 11.3 C 72 % 6.44 C
1634 19-02-2019 16:05:00 11.2 C 73 % 6.55 C
1635 19-02-2019 16:10:00 11.1 C 72 % 6.25 C
1636 19-02-2019 16:15:00 10.9 C 71 % 5.86 C
1637 19-02-2019 16:20:00 10.9 C 72 % 6.06 C
1638 19-02-2019 16:25:00 10.9 C 72 % 6.06 C
1639 19-02-2019 16:30:00 10.8 C 71 % 5.76 C
1640 19-02-2019 16:35:00 10.8 C 73 % 6.16 C
1641 19-02-2019 16:40:00 10.8 C 73 % 6.16 C
1642 19-02-2019 16:45:00 10.7 C 72 % 5.87 C
1643 19-02-2019 16:50:00 10.7 C 72 % 5.87 C
1644 19-02-2019 16:55:00 10.7 C 73 % 6.07 C
1645 19-02-2019 17:00:00 10.7 C 72 % 5.87 C
1646 19-02-2019 17:05:00 10.4 C 72 % 5.58 C
1647 19-02-2019 17:10:00 10.2 C 73 % 5.58 C
1648 19-02-2019 17:15:00 10.1 C 73 % 5.49 C
1649 19-02-2019 17:20:00 10.1 C 74 % 5.68 C
1650 19-02-2019 17:25:00 9.9 C 74 % 5.49 C
Sensor: Nr:Datum:Temp:Feuchte:Taupunkt:
Aussen-T/F 1651 19-02-2019 17:30:00 9.8 C 74 % 5.39 C
1652 19-02-2019 17:35:00 9.6 C 75 % 5.39 C
1653 19-02-2019 17:40:00 9.3 C 75 % 5.1 C
1654 19-02-2019 17:45:00 9.1 C 76 % 5.1 C
1655 19-02-2019 17:50:00 8.7 C 78 % 5.08 C
1656 19-02-2019 17:55:00 8.4 C 79 % 4.98 C
1657 19-02-2019 18:00:00 8.1 C 80 % 4.86 C
1658 19-02-2019 18:05:00 7.8 C 81 % 4.75 C
1659 19-02-2019 18:10:00 7.6 C 82 % 4.73 C
1660 19-02-2019 18:15:00 7.6 C 82 % 4.73 C
1661 19-02-2019 18:20:00 7.5 C 82 % 4.63 C
1662 19-02-2019 18:25:00 7.4 C 83 % 4.71 C
1663 19-02-2019 18:30:00 7.2 C 83 % 4.51 C
1664 19-02-2019 18:35:00 7.1 C 84 % 4.58 C
1665 19-02-2019 18:40:00 6.9 C 84 % 4.39 C
1666 19-02-2019 18:45:00 6.8 C 85 % 4.46 C
1667 19-02-2019 18:50:00 6.7 C 85 % 4.36 C
1668 19-02-2019 18:55:00 6.7 C 86 % 4.53 C
1669 19-02-2019 19:00:00 6.6 C 86 % 4.43 C
1670 19-02-2019 19:05:00 6.6 C 86 % 4.43 C
1671 19-02-2019 19:10:00 6.5 C 86 % 4.33 C
1672 19-02-2019 19:15:00 6.4 C 87 % 4.4 C
1673 19-02-2019 19:20:00 6.4 C 87 % 4.4 C
1674 19-02-2019 19:25:00 6.3 C 87 % 4.3 C
1675 19-02-2019 19:30:00 6.2 C 87 % 4.2 C
Sensor: Nr:Datum:Temp:Feuchte:Taupunkt:
Aussen-T/F 1676 19-02-2019 19:35:00 6.1 C 87 % 4.1 C
1677 19-02-2019 19:40:00 6.1 C 88 % 4.27 C
1678 19-02-2019 19:45:00 5.9 C 88 % 4.07 C
1679 19-02-2019 19:50:00 5.9 C 88 % 4.07 C
1680 19-02-2019 19:55:00 5.7 C 88 % 3.87 C
1681 19-02-2019 20:00:00 5.7 C 89 % 4.03 C
1682 19-02-2019 20:05:00 5.7 C 89 % 4.03 C
1683 19-02-2019 20:10:00 5.7 C 89 % 4.03 C
1684 19-02-2019 20:15:00 5.6 C 89 % 3.93 C
1685 19-02-2019 20:20:00 5.6 C 89 % 3.93 C
1686 19-02-2019 20:25:00 5.4 C 89 % 3.74 C
1687 19-02-2019 20:30:00 5.4 C 89 % 3.74 C
1688 19-02-2019 20:35:00 5.4 C 90 % 3.89 C
1689 19-02-2019 20:40:00 5.3 C 89 % 3.64 C
1690 19-02-2019 20:45:00 5.2 C 89 % 3.54 C
1691 19-02-2019 20:50:00 5.1 C 90 % 3.6 C
1692 19-02-2019 20:55:00 5.2 C 90 % 3.7 C
1693 19-02-2019 21:00:00 5.3 C 90 % 3.8 C
1694 19-02-2019 21:05:00 5.3 C 90 % 3.8 C
1695 19-02-2019 21:10:00 5.3 C 90 % 3.8 C
1696 19-02-2019 21:15:00 5.2 C 89 % 3.54 C
1697 19-02-2019 21:20:00 5.1 C 89 % 3.44 C
1698 19-02-2019 21:25:00 5 C 90 % 3.5 C
1699 19-02-2019 21:30:00 4.9 C 90 % 3.4 C
1700 19-02-2019 21:35:00 4.8 C 90 % 3.3 C
Sensor: Nr:Datum:Temp:Feuchte:Taupunkt:
Aussen-T/F 1701 19-02-2019 21:40:00 4.6 C 89 % 2.95 C
1702 19-02-2019 21:45:00 4.4 C 89 % 2.75 C
1703 19-02-2019 21:50:00 4.2 C 90 % 2.71 C
1704 19-02-2019 21:55:00 4.1 C 90 % 2.61 C
1705 19-02-2019 22:00:00 3.9 C 90 % 2.41 C
1706 19-02-2019 22:05:00 3.8 C 90 % 2.31 C
1707 19-02-2019 22:10:00 3.6 C 90 % 2.12 C
1708 19-02-2019 22:15:00 3.5 C 91 % 2.17 C
1709 19-02-2019 22:20:00 3.4 C 91 % 2.07 C
1710 19-02-2019 22:25:00 3.3 C 91 % 1.98 C
1711 19-02-2019 22:30:00 3.3 C 92 % 2.13 C
1712 19-02-2019 22:35:00 3.3 C 92 % 2.13 C
1713 19-02-2019 22:40:00 3.4 C 93 % 2.38 C
1714 19-02-2019 22:45:00 3.4 C 92 % 2.23 C
1715 19-02-2019 22:50:00 3.4 C 92 % 2.23 C
1716 19-02-2019 22:55:00 3.3 C 92 % 2.13 C
1717 19-02-2019 23:00:00 3.3 C 92 % 2.13 C
1718 19-02-2019 23:05:00 3.2 C 92 % 2.03 C
1719 19-02-2019 23:10:00 3.2 C 92 % 2.03 C
1720 19-02-2019 23:15:00 3.1 C 93 % 2.08 C
1721 19-02-2019 23:20:00 3.1 C 93 % 2.08 C
1722 19-02-2019 23:25:00 3.1 C 93 % 2.08 C
1723 19-02-2019 23:30:00 3.1 C 93 % 2.08 C
1724 19-02-2019 23:35:00 3 C 93 % 1.98 C
1725 19-02-2019 23:40:00 2.9 C 93 % 1.88 C
Sensor: Nr:Datum:Temp:Feuchte:Taupunkt:
Aussen-T/F 1726 19-02-2019 23:45:00 2.9 C 93 % 1.88 C
1727 19-02-2019 23:50:00 2.9 C 93 % 1.88 C
1728 19-02-2019 23:55:00 2.8 C 93 % 1.78 C
1729 20-02-2019 00:00:00 2.8 C 93 % 1.78 C
1730 20-02-2019 00:05:00 2.8 C 93 % 1.78 C
1731 20-02-2019 00:10:00 2.8 C 93 % 1.78 C
1732 20-02-2019 00:15:00 2.8 C 93 % 1.78 C
1733 20-02-2019 00:20:00 2.8 C 94 % 1.93 C
1734 20-02-2019 00:25:00 2.8 C 94 % 1.93 C
1735 20-02-2019 00:30:00 2.7 C 93 % 1.68 C
1736 20-02-2019 00:35:00 2.5 C 93 % 1.49 C
1737 20-02-2019 00:40:00 2.3 C 93 % 1.29 C
1738 20-02-2019 00:45:00 2.3 C 93 % 1.29 C
1739 20-02-2019 00:50:00 2.3 C 94 % 1.44 C
1740 20-02-2019 00:55:00 2.3 C 93 % 1.29 C
1741 20-02-2019 01:00:00 2.2 C 93 % 1.19 C
1742 20-02-2019 01:05:00 2.2 C 93 % 1.19 C
1743 20-02-2019 01:10:00 2.1 C 93 % 1.09 C
1744 20-02-2019 01:15:00 2 C 93 % 0.99 C
1745 20-02-2019 01:20:00 1.9 C 93 % 0.89 C
1746 20-02-2019 01:25:00 1.8 C 94 % 0.94 C
1747 20-02-2019 01:30:00 1.7 C 93 % 0.69 C
1748 20-02-2019 01:35:00 1.6 C 93 % 0.59 C
1749 20-02-2019 01:40:00 1.5 C 93 % 0.49 C
1750 20-02-2019 01:45:00 1.5 C 94 % 0.64 C
Sensor: Nr:Datum:Temp:Feuchte:Taupunkt:
Aussen-T/F 1751 20-02-2019 01:50:00 1.5 C 94 % 0.64 C
1752 20-02-2019 01:55:00 1.4 C 94 % 0.54 C
1753 20-02-2019 02:00:00 1.4 C 94 % 0.54 C
1754 20-02-2019 02:05:00 1.3 C 94 % 0.44 C
1755 20-02-2019 02:10:00 1.3 C 94 % 0.44 C
1756 20-02-2019 02:15:00 1.2 C 94 % 0.34 C
1757 20-02-2019 02:20:00 1.1 C 94 % 0.24 C
1758 20-02-2019 02:25:00 1 C 94 % 0.15 C
1759 20-02-2019 02:30:00 1.1 C 94 % 0.24 C
1760 20-02-2019 02:35:00 1.1 C 94 % 0.24 C
1761 20-02-2019 02:40:00 1.2 C 95 % 0.49 C
1762 20-02-2019 02:45:00 1.3 C 95 % 0.59 C
1763 20-02-2019 02:50:00 1.2 C 95 % 0.49 C
1764 20-02-2019 02:55:00 1.1 C 94 % 0.24 C
1765 20-02-2019 03:00:00 1.1 C 94 % 0.24 C
1766 20-02-2019 03:05:00 1 C 95 % 0.29 C
1767 20-02-2019 03:10:00 1 C 95 % 0.29 C
1768 20-02-2019 03:15:00 1 C 95 % 0.29 C
1769 20-02-2019 03:20:00 1.1 C 95 % 0.39 C
1770 20-02-2019 03:25:00 1.2 C 95 % 0.49 C
1771 20-02-2019 03:30:00 1.1 C 95 % 0.39 C
1772 20-02-2019 03:35:00 1.1 C 95 % 0.39 C
1773 20-02-2019 03:40:00 1.1 C 95 % 0.39 C
1774 20-02-2019 03:45:00 1.1 C 95 % 0.39 C
1775 20-02-2019 03:50:00 1.2 C 95 % 0.49 C
Sensor: Nr:Datum:Temp:Feuchte:Taupunkt:
Aussen-T/F 1776 20-02-2019 03:55:00 1.2 C 95 % 0.49 C
1777 20-02-2019 04:00:00 1.2 C 95 % 0.49 C
1778 20-02-2019 04:05:00 1.1 C 95 % 0.39 C
1779 20-02-2019 04:10:00 1.1 C 95 % 0.39 C
1780 20-02-2019 04:15:00 1 C 95 % 0.29 C
1781 20-02-2019 04:20:00 0.8 C 95 % 0.09 C
1782 20-02-2019 04:25:00 0.7 C 95 % -0.01 C
1783 20-02-2019 04:30:00 0.7 C 95 % -0.01 C
1784 20-02-2019 04:35:00 0.7 C 95 % -0.01 C
1785 20-02-2019 04:40:00 0.8 C 95 % 0.09 C
1786 20-02-2019 04:45:00 0.8 C 95 % 0.09 C
1787 20-02-2019 04:50:00 0.8 C 95 % 0.09 C
1788 20-02-2019 04:55:00 0.8 C 95 % 0.09 C
1789 20-02-2019 05:00:00 1 C 96 % 0.44 C
1790 20-02-2019 05:05:00 1.1 C 96 % 0.54 C
1791 20-02-2019 05:10:00 1.1 C 96 % 0.54 C
1792 20-02-2019 05:15:00 1.1 C 95 % 0.39 C
1793 20-02-2019 05:20:00 1.1 C 95 % 0.39 C
1794 20-02-2019 05:25:00 1 C 95 % 0.29 C
1795 20-02-2019 05:30:00 0.9 C 95 % 0.19 C
1796 20-02-2019 05:35:00 0.9 C 95 % 0.19 C
1797 20-02-2019 05:40:00 0.9 C 95 % 0.19 C
1798 20-02-2019 05:45:00 0.9 C 96 % 0.34 C
1799 20-02-2019 05:50:00 1 C 96 % 0.44 C
1800 20-02-2019 05:55:00 1 C 96 % 0.44 C
Sensor: Nr:Datum:Temp:Feuchte:Taupunkt:
Aussen-T/F 1801 20-02-2019 06:00:00 0.9 C 96 % 0.34 C
1802 20-02-2019 06:05:00 1 C 96 % 0.44 C
1803 20-02-2019 06:10:00 1.1 C 96 % 0.54 C
1804 20-02-2019 06:15:00 1 C 96 % 0.44 C
1805 20-02-2019 06:20:00 0.9 C 96 % 0.34 C
1806 20-02-2019 06:25:00 0.9 C 96 % 0.34 C
1807 20-02-2019 06:30:00 0.9 C 96 % 0.34 C
1808 20-02-2019 06:35:00 0.9 C 95 % 0.19 C
1809 20-02-2019 06:40:00 0.8 C 95 % 0.09 C
1810 20-02-2019 06:45:00 0.7 C 95 % -0.01 C
1811 20-02-2019 06:50:00 0.6 C 95 % -0.11 C
1812 20-02-2019 06:55:00 0.7 C 96 % 0.14 C
1813 20-02-2019 07:00:00 0.8 C 96 % 0.24 C
1814 20-02-2019 07:05:00 0.8 C 96 % 0.24 C
1815 20-02-2019 07:10:00 0.8 C 96 % 0.24 C
1816 20-02-2019 07:15:00 0.9 C 96 % 0.34 C
1817 20-02-2019 07:20:00 0.8 C 96 % 0.24 C
1818 20-02-2019 07:25:00 0.7 C 96 % 0.14 C
1819 20-02-2019 07:30:00 0.8 C 96 % 0.24 C
1820 20-02-2019 07:35:00 0.7 C 96 % 0.14 C
1821 20-02-2019 07:40:00 0.7 C 96 % 0.14 C
1822 20-02-2019 07:45:00 0.6 C 96 % 0.04 C
1823 20-02-2019 07:50:00 0.6 C 96 % 0.04 C
1824 20-02-2019 07:55:00 0.6 C 96 % 0.04 C
1825 20-02-2019 08:00:00 0.6 C 96 % 0.04 C
Sensor: Nr:Datum:Temp:Feuchte:Taupunkt:
Aussen-T/F 1826 20-02-2019 08:05:00 0.7 C 96 % 0.14 C
1827 20-02-2019 08:10:00 0.8 C 96 % 0.24 C
1828 20-02-2019 08:15:00 0.9 C 96 % 0.34 C
1829 20-02-2019 08:20:00 1.1 C 96 % 0.54 C
1830 20-02-2019 08:25:00 1.2 C 96 % 0.63 C
1831 20-02-2019 08:30:00 1.3 C 96 % 0.73 C
1832 20-02-2019 08:35:00 1.4 C 96 % 0.83 C
1833 20-02-2019 08:40:00 1.6 C 97 % 1.18 C
1834 20-02-2019 08:45:00 1.8 C 97 % 1.38 C
1835 20-02-2019 08:50:00 2 C 97 % 1.58 C
1836 20-02-2019 08:55:00 2.3 C 97 % 1.87 C
1837 20-02-2019 09:00:00 2.5 C 97 % 2.07 C
1838 20-02-2019 09:05:00 2.7 C 97 % 2.27 C
1839 20-02-2019 09:10:00 2.8 C 97 % 2.37 C
1840 20-02-2019 09:15:00 2.8 C 97 % 2.37 C
1841 20-02-2019 09:20:00 2.9 C 97 % 2.47 C
1842 20-02-2019 09:25:00 3 C 97 % 2.57 C
1843 20-02-2019 09:30:00 3.1 C 97 % 2.67 C
1844 20-02-2019 09:35:00 3.3 C 97 % 2.87 C
1845 20-02-2019 09:40:00 3.3 C 96 % 2.72 C
1846 20-02-2019 09:45:00 3.4 C 96 % 2.82 C
1847 20-02-2019 09:50:00 3.6 C 96 % 3.02 C
1848 20-02-2019 09:55:00 3.7 C 96 % 3.12 C
1849 20-02-2019 10:00:00 3.8 C 96 % 3.22 C
1850 20-02-2019 10:05:00 3.8 C 96 % 3.22 C
Sensor: Nr:Datum:Temp:Feuchte:Taupunkt:
Aussen-T/F 1851 20-02-2019 10:10:00 3.9 C 96 % 3.32 C
1852 20-02-2019 10:15:00 4.1 C 96 % 3.52 C
1853 20-02-2019 10:20:00 4.2 C 96 % 3.62 C
1854 20-02-2019 10:25:00 4.3 C 96 % 3.72 C
1855 20-02-2019 10:30:00 4.4 C 96 % 3.82 C
1856 20-02-2019 10:35:00 4.6 C 96 % 4.02 C
1857 20-02-2019 10:40:00 4.7 C 95 % 3.97 C
1858 20-02-2019 10:45:00 4.9 C 95 % 4.17 C
1859 20-02-2019 10:50:00 5 C 95 % 4.27 C
1860 20-02-2019 10:55:00 5.2 C 95 % 4.47 C
1861 20-02-2019 11:00:00 5.4 C 95 % 4.66 C
1862 20-02-2019 11:05:00 5.7 C 94 % 4.81 C
1863 20-02-2019 11:10:00 5.8 C 94 % 4.91 C
1864 20-02-2019 11:15:00 5.9 C 93 % 4.86 C
1865 20-02-2019 11:20:00 6 C 92 % 4.8 C
1866 20-02-2019 11:25:00 6.1 C 92 % 4.9 C
1867 20-02-2019 11:30:00 6.2 C 92 % 5 C
1868 20-02-2019 11:35:00 6.3 C 91 % 4.94 C
1869 20-02-2019 11:40:00 6.3 C 91 % 4.94 C
1870 20-02-2019 11:45:00 6.3 C 91 % 4.94 C
1871 20-02-2019 11:50:00 6.4 C 91 % 5.04 C
1872 20-02-2019 11:55:00 6.5 C 90 % 4.98 C
1873 20-02-2019 12:00:00 6.6 C 90 % 5.08 C
1874 20-02-2019 12:05:00 6.7 C 90 % 5.18 C
1875 20-02-2019 12:10:00 6.7 C 90 % 5.18 C
Sensor: Nr:Datum:Temp:Feuchte:Taupunkt:
Aussen-T/F 1876 20-02-2019 12:15:00 6.9 C 90 % 5.38 C
1877 20-02-2019 12:20:00 7.1 C 90 % 5.57 C
1878 20-02-2019 12:25:00 7.3 C 89 % 5.61 C
1879 20-02-2019 12:30:00 7.6 C 89 % 5.91 C
1880 20-02-2019 12:35:00 7.7 C 87 % 5.68 C
1881 20-02-2019 12:40:00 8 C 87 % 5.97 C
1882 20-02-2019 12:45:00 8.2 C 86 % 6 C
1883 20-02-2019 12:50:00 8.4 C 85 % 6.03 C
1884 20-02-2019 12:55:00 8.7 C 83 % 5.98 C
1885 20-02-2019 13:00:00 8.9 C 82 % 6 C
1886 20-02-2019 13:05:00 9.1 C 82 % 6.19 C
1887 20-02-2019 13:10:00 9.3 C 81 % 6.21 C
1888 20-02-2019 13:15:00 9.5 C 80 % 6.23 C
1889 20-02-2019 13:20:00 9.8 C 79 % 6.34 C
1890 20-02-2019 13:25:00 9.9 C 78 % 6.25 C
1891 20-02-2019 13:30:00 10.1 C 77 % 6.26 C
1892 20-02-2019 13:35:00 10.2 C 77 % 6.35 C
1893 20-02-2019 13:40:00 10.2 C 76 % 6.16 C
1894 20-02-2019 13:45:00 10.3 C 76 % 6.26 C
1895 20-02-2019 13:50:00 10.4 C 76 % 6.36 C
1896 20-02-2019 13:55:00 10.7 C 75 % 6.46 C
1897 20-02-2019 14:00:00 10.9 C 75 % 6.65 C
1898 20-02-2019 14:05:00 10.9 C 74 % 6.45 C
1899 20-02-2019 14:10:00 10.9 C 74 % 6.45 C
1900 20-02-2019 14:15:00 10.8 C 74 % 6.36 C
Sensor: Nr:Datum:Temp:Feuchte:Taupunkt:
Aussen-T/F 1901 20-02-2019 14:20:00 10.8 C 75 % 6.55 C
1902 20-02-2019 14:25:00 10.8 C 75 % 6.55 C
1903 20-02-2019 14:30:00 10.8 C 75 % 6.55 C
1904 20-02-2019 14:35:00 10.8 C 74 % 6.36 C
1905 20-02-2019 14:40:00 10.9 C 74 % 6.45 C
1906 20-02-2019 14:45:00 10.9 C 74 % 6.45 C
1907 20-02-2019 14:50:00 10.9 C 74 % 6.45 C
1908 20-02-2019 14:55:00 10.9 C 74 % 6.45 C
1909 20-02-2019 15:00:00 11 C 74 % 6.55 C
1910 20-02-2019 15:05:00 11 C 74 % 6.55 C
1911 20-02-2019 15:10:00 11.1 C 73 % 6.45 C
1912 20-02-2019 15:15:00 11.1 C 73 % 6.45 C
1913 20-02-2019 15:20:00 11.1 C 73 % 6.45 C
1914 20-02-2019 15:25:00 11.1 C 73 % 6.45 C
1915 20-02-2019 15:30:00 11 C 73 % 6.35 C
1916 20-02-2019 15:35:00 11.1 C 73 % 6.45 C
1917 20-02-2019 15:40:00 11.1 C 73 % 6.45 C
1918 20-02-2019 15:45:00 11.1 C 73 % 6.45 C
1919 20-02-2019 15:50:00 11.1 C 72 % 6.25 C
1920 20-02-2019 15:55:00 11.2 C 72 % 6.35 C
1921 20-02-2019 16:00:00 11.3 C 71 % 6.24 C
1922 20-02-2019 16:05:00 11.3 C 73 % 6.64 C
1923 20-02-2019 16:10:00 11.3 C 72 % 6.44 C
1924 20-02-2019 16:15:00 11.3 C 72 % 6.44 C
1925 20-02-2019 16:20:00 11.3 C 71 % 6.24 C
Sensor: Nr:Datum:Temp:Feuchte:Taupunkt:
Aussen-T/F 1926 20-02-2019 16:25:00 11.3 C 72 % 6.44 C
1927 20-02-2019 16:30:00 11.2 C 71 % 6.14 C
1928 20-02-2019 16:35:00 11.3 C 71 % 6.24 C
1929 20-02-2019 16:40:00 11.3 C 71 % 6.24 C
1930 20-02-2019 16:45:00 11.5 C 71 % 6.43 C
1931 20-02-2019 16:50:00 11.7 C 71 % 6.62 C
1932 20-02-2019 16:55:00 11.7 C 69 % 6.21 C
1933 20-02-2019 17:00:00 11.7 C 69 % 6.21 C
1934 20-02-2019 17:05:00 11.5 C 71 % 6.43 C
1935 20-02-2019 17:10:00 11.3 C 71 % 6.24 C
1936 20-02-2019 17:15:00 11.1 C 72 % 6.25 C
1937 20-02-2019 17:20:00 10.9 C 73 % 6.26 C
1938 20-02-2019 17:25:00 10.7 C 74 % 6.26 C
1939 20-02-2019 17:30:00 10.4 C 74 % 5.97 C
1940 20-02-2019 17:35:00 10.1 C 75 % 5.88 C
1941 20-02-2019 17:40:00 9.7 C 76 % 5.68 C
1942 20-02-2019 17:45:00 9.3 C 77 % 5.48 C
1943 20-02-2019 17:50:00 8.9 C 78 % 5.28 C
1944 20-02-2019 17:55:00 8.6 C 79 % 5.17 C
1945 20-02-2019 18:00:00 8.3 C 80 % 5.06 C
1946 20-02-2019 18:05:00 8 C 81 % 4.94 C
1947 20-02-2019 18:10:00 7.7 C 82 % 4.83 C
1948 20-02-2019 18:15:00 7.6 C 83 % 4.9 C
1949 20-02-2019 18:20:00 7.4 C 84 % 4.88 C
1950 20-02-2019 18:25:00 7.2 C 84 % 4.68 C
Sensor: Nr:Datum:Temp:Feuchte:Taupunkt:
Aussen-T/F 1951 20-02-2019 18:30:00 7.1 C 85 % 4.75 C
1952 20-02-2019 18:35:00 7 C 85 % 4.66 C
1953 20-02-2019 18:40:00 6.9 C 85 % 4.56 C
1954 20-02-2019 18:45:00 6.8 C 86 % 4.63 C
1955 20-02-2019 18:50:00 6.8 C 86 % 4.63 C
1956 20-02-2019 18:55:00 6.7 C 86 % 4.53 C
1957 20-02-2019 19:00:00 6.6 C 86 % 4.43 C
1958 20-02-2019 19:05:00 6.5 C 86 % 4.33 C
1959 20-02-2019 19:10:00 6.4 C 87 % 4.4 C
1960 20-02-2019 19:15:00 6.3 C 87 % 4.3 C
1961 20-02-2019 19:20:00 6.3 C 87 % 4.3 C
1962 20-02-2019 19:25:00 6.2 C 88 % 4.36 C
1963 20-02-2019 19:30:00 6.1 C 88 % 4.27 C
1964 20-02-2019 19:35:00 6.1 C 88 % 4.27 C
1965 20-02-2019 19:40:00 5.9 C 88 % 4.07 C
1966 20-02-2019 19:45:00 5.9 C 89 % 4.23 C
1967 20-02-2019 19:50:00 5.9 C 89 % 4.23 C
1968 20-02-2019 19:55:00 5.8 C 89 % 4.13 C
1969 20-02-2019 20:00:00 5.6 C 88 % 3.77 C
1970 20-02-2019 20:05:00 5.4 C 88 % 3.58 C
1971 20-02-2019 20:10:00 5.2 C 89 % 3.54 C
1972 20-02-2019 20:15:00 5.2 C 89 % 3.54 C
1973 20-02-2019 20:20:00 5.1 C 90 % 3.6 C
1974 20-02-2019 20:25:00 4.9 C 90 % 3.4 C
1975 20-02-2019 20:30:00 4.8 C 90 % 3.3 C
Sensor: Nr:Datum:Temp:Feuchte:Taupunkt:
Aussen-T/F 1976 20-02-2019 20:35:00 4.6 C 90 % 3.1 C
1977 20-02-2019 20:40:00 4.4 C 90 % 2.91 C
1978 20-02-2019 20:45:00 4.4 C 91 % 3.06 C
1979 20-02-2019 20:50:00 4.4 C 91 % 3.06 C
1980 20-02-2019 20:55:00 4.4 C 91 % 3.06 C
1981 20-02-2019 21:00:00 4.4 C 92 % 3.22 C
1982 20-02-2019 21:05:00 4.3 C 91 % 2.96 C
1983 20-02-2019 21:10:00 4.2 C 91 % 2.87 C
1984 20-02-2019 21:15:00 4.1 C 91 % 2.77 C
1985 20-02-2019 21:20:00 3.8 C 90 % 2.31 C
1986 20-02-2019 21:25:00 3.7 C 91 % 2.37 C
1987 20-02-2019 21:30:00 3.6 C 92 % 2.42 C
1988 20-02-2019 21:35:00 3.6 C 92 % 2.42 C
1989 20-02-2019 21:40:00 3.6 C 92 % 2.42 C
1990 20-02-2019 21:45:00 3.4 C 92 % 2.23 C
1991 20-02-2019 21:50:00 3.4 C 92 % 2.23 C
1992 20-02-2019 21:55:00 3.2 C 92 % 2.03 C
1993 20-02-2019 22:00:00 3.2 C 92 % 2.03 C
1994 20-02-2019 22:05:00 3.1 C 92 % 1.93 C
1995 20-02-2019 22:10:00 2.9 C 92 % 1.73 C
1996 20-02-2019 22:15:00 2.8 C 92 % 1.63 C
1997 20-02-2019 22:20:00 2.7 C 92 % 1.53 C
1998 20-02-2019 22:25:00 2.6 C 93 % 1.59 C
1999 20-02-2019 22:30:00 2.5 C 93 % 1.49 C
2000 20-02-2019 22:35:00 2.6 C 93 % 1.59 C
Sensor: Nr:Datum:Temp:Feuchte:Taupunkt:
Aussen-T/F 2001 20-02-2019 22:40:00 2.6 C 94 % 1.73 C
2002 20-02-2019 22:45:00 2.6 C 94 % 1.73 C
2003 20-02-2019 22:50:00 2.5 C 94 % 1.63 C
2004 20-02-2019 22:55:00 2.3 C 93 % 1.29 C
2005 20-02-2019 23:00:00 2.2 C 94 % 1.34 C
2006 20-02-2019 23:05:00 2.3 C 94 % 1.44 C
2007 20-02-2019 23:10:00 2.4 C 94 % 1.54 C
2008 20-02-2019 23:15:00 2.3 C 94 % 1.44 C
2009 20-02-2019 23:20:00 2.2 C 94 % 1.34 C
2010 20-02-2019 23:25:00 1.9 C 94 % 1.04 C
2011 20-02-2019 23:30:00 1.8 C 94 % 0.94 C
2012 20-02-2019 23:35:00 1.9 C 94 % 1.04 C
2013 20-02-2019 23:40:00 1.9 C 94 % 1.04 C
2014 20-02-2019 23:45:00 2 C 95 % 1.29 C
2015 20-02-2019 23:50:00 2.2 C 95 % 1.48 C
2016 20-02-2019 23:55:00 2.2 C 95 % 1.48 C
2017 21-02-2019 00:00:00 2.1 C 94 % 1.24 C
2018 21-02-2019 00:05:00 1.9 C 95 % 1.19 C
2019 21-02-2019 00:10:00 1.8 C 94 % 0.94 C
2020 21-02-2019 00:15:00 1.7 C 94 % 0.84 C
2021 21-02-2019 00:20:00 1.6 C 94 % 0.74 C
2022 21-02-2019 00:25:00 1.5 C 94 % 0.64 C
2023 21-02-2019 00:30:00 1.4 C 94 % 0.54 C
2024 21-02-2019 00:35:00 1.4 C 95 % 0.69 C
2025 21-02-2019 00:40:00 1.4 C 95 % 0.69 C
Sensor: Nr:Datum:Temp:Feuchte:Taupunkt:
Aussen-T/F 2026 21-02-2019 00:45:00 1.3 C 95 % 0.59 C
2027 21-02-2019 00:50:00 1.3 C 95 % 0.59 C
2028 21-02-2019 00:55:00 1.5 C 95 % 0.79 C
2029 21-02-2019 01:00:00 1.6 C 95 % 0.89 C
2030 21-02-2019 01:05:00 1.6 C 95 % 0.89 C
2031 21-02-2019 01:10:00 1.7 C 95 % 0.99 C
2032 21-02-2019 01:15:00 1.7 C 95 % 0.99 C
2033 21-02-2019 01:20:00 1.8 C 95 % 1.09 C
2034 21-02-2019 01:25:00 1.7 C 95 % 0.99 C
2035 21-02-2019 01:30:00 1.6 C 95 % 0.89 C
2036 21-02-2019 01:35:00 1.3 C 95 % 0.59 C
2037 21-02-2019 01:40:00 1.3 C 95 % 0.59 C
2038 21-02-2019 01:45:00 1.3 C 95 % 0.59 C
2039 21-02-2019 01:50:00 1.6 C 96 % 1.03 C
2040 21-02-2019 01:55:00 1.8 C 96 % 1.23 C
2041 21-02-2019 02:00:00 1.8 C 96 % 1.23 C
2042 21-02-2019 02:05:00 1.8 C 96 % 1.23 C
2043 21-02-2019 02:10:00 1.7 C 95 % 0.99 C
2044 21-02-2019 02:15:00 1.4 C 95 % 0.69 C
2045 21-02-2019 02:20:00 1.2 C 95 % 0.49 C
2046 21-02-2019 02:25:00 0.9 C 95 % 0.19 C
2047 21-02-2019 02:30:00 0.8 C 95 % 0.09 C
2048 21-02-2019 02:35:00 0.7 C 95 % -0.01 C
2049 21-02-2019 02:40:00 0.7 C 95 % -0.01 C
2050 21-02-2019 02:45:00 0.6 C 95 % -0.11 C
Sensor: Nr:Datum:Temp:Feuchte:Taupunkt:
Aussen-T/F 2051 21-02-2019 02:50:00 0.6 C 95 % -0.11 C
2052 21-02-2019 02:55:00 0.6 C 95 % -0.11 C
2053 21-02-2019 03:00:00 0.7 C 96 % 0.14 C
2054 21-02-2019 03:05:00 0.7 C 96 % 0.14 C
2055 21-02-2019 03:10:00 0.7 C 95 % -0.01 C
2056 21-02-2019 03:15:00 0.7 C 96 % 0.14 C
2057 21-02-2019 03:20:00 0.7 C 96 % 0.14 C
2058 21-02-2019 03:25:00 0.6 C 96 % 0.04 C
2059 21-02-2019 03:30:00 0.7 C 96 % 0.14 C
2060 21-02-2019 03:35:00 0.7 C 96 % 0.14 C
2061 21-02-2019 03:40:00 0.8 C 96 % 0.24 C
2062 21-02-2019 03:45:00 0.8 C 96 % 0.24 C
2063 21-02-2019 03:50:00 0.8 C 96 % 0.24 C
2064 21-02-2019 03:55:00 1 C 96 % 0.44 C
2065 21-02-2019 04:00:00 1.1 C 96 % 0.54 C
2066 21-02-2019 04:05:00 1.2 C 96 % 0.63 C
2067 21-02-2019 04:10:00 1.1 C 96 % 0.54 C
2068 21-02-2019 04:15:00 0.9 C 96 % 0.34 C
2069 21-02-2019 04:20:00 0.8 C 96 % 0.24 C
2070 21-02-2019 04:25:00 0.8 C 96 % 0.24 C
2071 21-02-2019 04:30:00 0.8 C 96 % 0.24 C
2072 21-02-2019 04:35:00 0.9 C 96 % 0.34 C
2073 21-02-2019 04:40:00 0.9 C 96 % 0.34 C
2074 21-02-2019 04:45:00 0.9 C 96 % 0.34 C
2075 21-02-2019 04:50:00 0.8 C 96 % 0.24 C
Sensor: Nr:Datum:Temp:Feuchte:Taupunkt:
Aussen-T/F 2076 21-02-2019 04:55:00 0.8 C 96 % 0.24 C
2077 21-02-2019 05:00:00 0.7 C 96 % 0.14 C
2078 21-02-2019 05:05:00 0.6 C 96 % 0.04 C
2079 21-02-2019 05:10:00 0.6 C 96 % 0.04 C
2080 21-02-2019 05:15:00 0.5 C 96 % -0.06 C
2081 21-02-2019 05:20:00 0.5 C 96 % -0.06 C
2082 21-02-2019 05:25:00 0.7 C 96 % 0.14 C
2083 21-02-2019 05:30:00 0.9 C 96 % 0.34 C
2084 21-02-2019 05:35:00 1.2 C 96 % 0.63 C
2085 21-02-2019 05:40:00 1.6 C 97 % 1.18 C
2086 21-02-2019 05:45:00 1.8 C 97 % 1.38 C
2087 21-02-2019 05:50:00 1.8 C 97 % 1.38 C
2088 21-02-2019 05:55:00 1.9 C 97 % 1.48 C
2089 21-02-2019 06:00:00 1.9 C 97 % 1.48 C
2090 21-02-2019 06:05:00 1.9 C 97 % 1.48 C
2091 21-02-2019 06:10:00 1.8 C 97 % 1.38 C
2092 21-02-2019 06:15:00 1.7 C 96 % 1.13 C
2093 21-02-2019 06:20:00 1.4 C 96 % 0.83 C
2094 21-02-2019 06:25:00 1.3 C 96 % 0.73 C
2095 21-02-2019 06:30:00 1.2 C 96 % 0.63 C
2096 21-02-2019 06:35:00 1 C 96 % 0.44 C
2097 21-02-2019 06:40:00 0.8 C 96 % 0.24 C
2098 21-02-2019 06:45:00 0.7 C 96 % 0.14 C
2099 21-02-2019 06:50:00 0.6 C 96 % 0.04 C
2100 21-02-2019 06:55:00 0.7 C 96 % 0.14 C
Sensor: Nr:Datum:Temp:Feuchte:Taupunkt:
Aussen-T/F 2101 21-02-2019 07:00:00 0.7 C 96 % 0.14 C
2102 21-02-2019 07:05:00 0.8 C 96 % 0.24 C
2103 21-02-2019 07:10:00 1.1 C 96 % 0.54 C
2104 21-02-2019 07:15:00 1.2 C 96 % 0.63 C
2105 21-02-2019 07:20:00 1.3 C 97 % 0.88 C
2106 21-02-2019 07:25:00 1.3 C 97 % 0.88 C
2107 21-02-2019 07:30:00 1.3 C 97 % 0.88 C
2108 21-02-2019 07:35:00 1.3 C 97 % 0.88 C
2109 21-02-2019 07:40:00 1.3 C 97 % 0.88 C
2110 21-02-2019 07:45:00 1.4 C 96 % 0.83 C
2111 21-02-2019 07:50:00 1.4 C 96 % 0.83 C
2112 21-02-2019 07:55:00 1.5 C 96 % 0.93 C
2113 21-02-2019 08:00:00 1.6 C 97 % 1.18 C
2114 21-02-2019 08:05:00 1.7 C 97 % 1.28 C
2115 21-02-2019 08:10:00 1.8 C 97 % 1.38 C
2116 21-02-2019 08:15:00 1.9 C 97 % 1.48 C
2117 21-02-2019 08:20:00 2.1 C 97 % 1.67 C
2118 21-02-2019 08:25:00 2.1 C 97 % 1.67 C
2119 21-02-2019 08:30:00 2.2 C 97 % 1.77 C
2120 21-02-2019 08:35:00 2.3 C 97 % 1.87 C
2121 21-02-2019 08:40:00 2.3 C 97 % 1.87 C
2122 21-02-2019 08:45:00 2.4 C 97 % 1.97 C
2123 21-02-2019 08:50:00 2.4 C 97 % 1.97 C
2124 21-02-2019 08:55:00 2.5 C 97 % 2.07 C
2125 21-02-2019 09:00:00 2.6 C 97 % 2.17 C
Sensor: Nr:Datum:Temp:Feuchte:Taupunkt:
Aussen-T/F 2126 21-02-2019 09:05:00 2.6 C 97 % 2.17 C
2127 21-02-2019 09:10:00 2.7 C 97 % 2.27 C
2128 21-02-2019 09:15:00 2.7 C 97 % 2.27 C
2129 21-02-2019 09:20:00 2.8 C 97 % 2.37 C
2130 21-02-2019 09:25:00 2.8 C 97 % 2.37 C
2131 21-02-2019 09:30:00 2.8 C 97 % 2.37 C
2132 21-02-2019 09:35:00 2.9 C 97 % 2.47 C
2133 21-02-2019 09:40:00 2.9 C 97 % 2.47 C
2134 21-02-2019 09:45:00 3 C 97 % 2.57 C
2135 21-02-2019 09:50:00 3.1 C 97 % 2.67 C
2136 21-02-2019 09:55:00 3.2 C 97 % 2.77 C
2137 21-02-2019 10:00:00 3.2 C 97 % 2.77 C
2138 21-02-2019 10:05:00 3.3 C 97 % 2.87 C
2139 21-02-2019 10:10:00 3.4 C 97 % 2.97 C
2140 21-02-2019 10:15:00 3.7 C 97 % 3.27 C
2141 21-02-2019 10:20:00 3.8 C 97 % 3.37 C
2142 21-02-2019 10:25:00 3.9 C 97 % 3.47 C
2143 21-02-2019 10:30:00 4 C 97 % 3.57 C
2144 21-02-2019 10:35:00 4.2 C 97 % 3.77 C
2145 21-02-2019 10:40:00 4.2 C 97 % 3.77 C
2146 21-02-2019 10:45:00 4.3 C 97 % 3.87 C
2147 21-02-2019 10:50:00 4.4 C 97 % 3.97 C
2148 21-02-2019 10:55:00 4.6 C 97 % 4.17 C
2149 21-02-2019 11:00:00 4.8 C 97 % 4.37 C
2150 21-02-2019 11:05:00 4.9 C 96 % 4.32 C
Sensor: Nr:Datum:Temp:Feuchte:Taupunkt:
Aussen-T/F 2151 21-02-2019 11:10:00 5.1 C 96 % 4.52 C
2152 21-02-2019 11:15:00 5.3 C 96 % 4.72 C
2153 21-02-2019 11:20:00 5.4 C 96 % 4.81 C
2154 21-02-2019 11:25:00 5.6 C 95 % 4.86 C
2155 21-02-2019 11:30:00 5.7 C 95 % 4.96 C
2156 21-02-2019 11:35:00 5.9 C 95 % 5.16 C
2157 21-02-2019 11:40:00 6.2 C 94 % 5.31 C
2158 21-02-2019 11:45:00 6.4 C 93 % 5.35 C
2159 21-02-2019 11:50:00 6.6 C 93 % 5.55 C
2160 21-02-2019 11:55:00 6.8 C 92 % 5.59 C
2161 21-02-2019 12:00:00 7 C 92 % 5.79 C
2162 21-02-2019 12:05:00 7.2 C 92 % 5.99 C
2163 21-02-2019 12:10:00 7.4 C 91 % 6.03 C
2164 21-02-2019 12:15:00 7.7 C 91 % 6.33 C
2165 21-02-2019 12:20:00 7.8 C 90 % 6.27 C
2166 21-02-2019 12:25:00 8.1 C 90 % 6.56 C
2167 21-02-2019 12:30:00 8.3 C 90 % 6.76 C
2168 21-02-2019 12:35:00 8.5 C 90 % 6.96 C
2169 21-02-2019 12:40:00 8.8 C 90 % 7.25 C
2170 21-02-2019 12:45:00 9.3 C 89 % 7.58 C
2171 21-02-2019 12:50:00 9.8 C 87 % 7.74 C
2172 21-02-2019 12:55:00 10.1 C 86 % 7.87 C
2173 21-02-2019 13:00:00 10.3 C 85 % 7.89 C
2174 21-02-2019 13:05:00 10.5 C 84 % 7.91 C
2175 21-02-2019 13:10:00 10.7 C 84 % 8.11 C
Sensor: Nr:Datum:Temp:Feuchte:Taupunkt:
Aussen-T/F 2176 21-02-2019 13:15:00 10.8 C 83 % 8.03 C
2177 21-02-2019 13:20:00 11 C 84 % 8.4 C
2178 21-02-2019 13:25:00 11.3 C 83 % 8.52 C
2179 21-02-2019 13:30:00 11.5 C 81 % 8.36 C
2180 21-02-2019 13:35:00 11.7 C 81 % 8.55 C
2181 21-02-2019 13:40:00 11.8 C 80 % 8.47 C
2182 21-02-2019 13:45:00 11.9 C 79 % 8.38 C
2183 21-02-2019 13:50:00 12 C 79 % 8.48 C
2184 21-02-2019 13:55:00 12.1 C 79 % 8.57 C
2185 21-02-2019 14:00:00 12.1 C 79 % 8.57 C
2186 21-02-2019 14:05:00 12.2 C 78 % 8.48 C
2187 21-02-2019 14:10:00 12.3 C 79 % 8.77 C
2188 21-02-2019 14:15:00 12.6 C 78 % 8.87 C
2189 21-02-2019 14:20:00 12.7 C 77 % 8.78 C
2190 21-02-2019 14:25:00 12.7 C 76 % 8.58 C
2191 21-02-2019 14:30:00 12.8 C 76 % 8.68 C
2192 21-02-2019 14:35:00 12.8 C 76 % 8.68 C
2193 21-02-2019 14:40:00 12.7 C 76 % 8.58 C
2194 21-02-2019 14:45:00 12.7 C 76 % 8.58 C
2195 21-02-2019 14:50:00 12.7 C 76 % 8.58 C
2196 21-02-2019 14:55:00 12.9 C 77 % 8.97 C
2197 21-02-2019 15:00:00 13.2 C 75 % 8.87 C
2198 21-02-2019 15:05:00 13.2 C 75 % 8.87 C
2199 21-02-2019 15:10:00 13.3 C 74 % 8.77 C
2200 21-02-2019 15:15:00 13.4 C 74 % 8.87 C
Sensor: Nr:Datum:Temp:Feuchte:Taupunkt:
Aussen-T/F 2201 21-02-2019 15:20:00 13.4 C 74 % 8.87 C
2202 21-02-2019 15:25:00 13.3 C 74 % 8.77 C
2203 21-02-2019 15:30:00 13.3 C 75 % 8.97 C
2204 21-02-2019 15:35:00 13.3 C 74 % 8.77 C
2205 21-02-2019 15:40:00 13.3 C 75 % 8.97 C
2206 21-02-2019 15:45:00 13.4 C 74 % 8.87 C
2207 21-02-2019 15:50:00 13.4 C 73 % 8.66 C
2208 21-02-2019 15:55:00 13.4 C 74 % 8.87 C
2209 21-02-2019 16:00:00 13.3 C 73 % 8.57 C
2210 21-02-2019 16:05:00 13.3 C 73 % 8.57 C
2211 21-02-2019 16:10:00 13.3 C 74 % 8.77 C
2212 21-02-2019 16:15:00 13.3 C 75 % 8.97 C
2213 21-02-2019 16:20:00 13.4 C 75 % 9.06 C
2214 21-02-2019 16:25:00 13.4 C 74 % 8.87 C
2215 21-02-2019 16:30:00 13.4 C 74 % 8.87 C
2216 21-02-2019 16:35:00 13.4 C 74 % 8.87 C
2217 21-02-2019 16:40:00 13.4 C 74 % 8.87 C
2218 21-02-2019 16:45:00 13.3 C 75 % 8.97 C
2219 21-02-2019 16:50:00 13.3 C 74 % 8.77 C
2220 21-02-2019 16:55:00 13.3 C 74 % 8.77 C
2221 21-02-2019 17:00:00 13.2 C 73 % 8.47 C
2222 21-02-2019 17:05:00 13.1 C 73 % 8.38 C
2223 21-02-2019 17:10:00 13.1 C 73 % 8.38 C
2224 21-02-2019 17:15:00 13.1 C 75 % 8.77 C
2225 21-02-2019 17:20:00 13.1 C 80 % 9.73 C
Sensor: Nr:Datum:Temp:Feuchte:Taupunkt:
Aussen-T/F 2226 21-02-2019 17:25:00 12.8 C 81 % 9.62 C
2227 21-02-2019 17:30:00 12.6 C 82 % 9.61 C
2228 21-02-2019 17:35:00 12.3 C 83 % 9.5 C
2229 21-02-2019 17:40:00 12 C 84 % 9.38 C
2230 21-02-2019 17:45:00 11.7 C 84 % 9.09 C
2231 21-02-2019 17:50:00 11.5 C 85 % 9.07 C
2232 21-02-2019 17:55:00 11.3 C 85 % 8.87 C
2233 21-02-2019 18:00:00 11.1 C 86 % 8.85 C
2234 21-02-2019 18:05:00 10.9 C 86 % 8.65 C
2235 21-02-2019 18:10:00 10.8 C 86 % 8.56 C
2236 21-02-2019 18:15:00 10.7 C 86 % 8.46 C
2237 21-02-2019 18:20:00 10.6 C 86 % 8.36 C
2238 21-02-2019 18:25:00 10.6 C 86 % 8.36 C
2239 21-02-2019 18:30:00 10.5 C 86 % 8.26 C
2240 21-02-2019 18:35:00 10.4 C 86 % 8.16 C
2241 21-02-2019 18:40:00 10.4 C 86 % 8.16 C
2242 21-02-2019 18:45:00 10.3 C 86 % 8.06 C
2243 21-02-2019 18:50:00 10.3 C 87 % 8.23 C
2244 21-02-2019 18:55:00 10.2 C 87 % 8.14 C
2245 21-02-2019 19:00:00 10.2 C 87 % 8.14 C
2246 21-02-2019 19:05:00 10.1 C 86 % 7.87 C
2247 21-02-2019 19:10:00 10 C 86 % 7.77 C
2248 21-02-2019 19:15:00 9.8 C 86 % 7.57 C
2249 21-02-2019 19:20:00 9.8 C 87 % 7.74 C
2250 21-02-2019 19:25:00 9.7 C 88 % 7.81 C
Sensor: Nr:Datum:Temp:Feuchte:Taupunkt:
Aussen-T/F 2251 21-02-2019 19:30:00 9.7 C 88 % 7.81 C
2252 21-02-2019 19:35:00 9.7 C 88 % 7.81 C
2253 21-02-2019 19:40:00 9.6 C 88 % 7.71 C
2254 21-02-2019 19:45:00 9.6 C 87 % 7.55 C
2255 21-02-2019 19:50:00 9.4 C 88 % 7.52 C
2256 21-02-2019 19:55:00 9.3 C 88 % 7.42 C
2257 21-02-2019 20:00:00 9.2 C 88 % 7.32 C
2258 21-02-2019 20:05:00 9.2 C 89 % 7.48 C
2259 21-02-2019 20:10:00 9.2 C 89 % 7.48 C
2260 21-02-2019 20:15:00 9.1 C 89 % 7.39 C
2261 21-02-2019 20:20:00 9.1 C 89 % 7.39 C
2262 21-02-2019 20:25:00 9.2 C 90 % 7.65 C
2263 21-02-2019 20:30:00 9.2 C 90 % 7.65 C
2264 21-02-2019 20:35:00 9.2 C 90 % 7.65 C
2265 21-02-2019 20:40:00 9.2 C 90 % 7.65 C
2266 21-02-2019 20:45:00 9.2 C 90 % 7.65 C
2267 21-02-2019 20:50:00 9.2 C 90 % 7.65 C
2268 21-02-2019 20:55:00 9.2 C 90 % 7.65 C
2269 21-02-2019 21:00:00 9.3 C 90 % 7.75 C
2270 21-02-2019 21:05:00 9.3 C 90 % 7.75 C
2271 21-02-2019 21:10:00 9.3 C 91 % 7.91 C
2272 21-02-2019 21:15:00 9.3 C 91 % 7.91 C
2273 21-02-2019 21:20:00 9.3 C 91 % 7.91 C
2274 21-02-2019 21:25:00 9.3 C 91 % 7.91 C
2275 21-02-2019 21:30:00 9.3 C 91 % 7.91 C
Sensor: Nr:Datum:Temp:Feuchte:Taupunkt:
Aussen-T/F 2276 21-02-2019 21:35:00 9.3 C 91 % 7.91 C
2277 21-02-2019 21:40:00 9.3 C 90 % 7.75 C
2278 21-02-2019 21:45:00 9.4 C 90 % 7.85 C
2279 21-02-2019 21:50:00 9.4 C 90 % 7.85 C
2280 21-02-2019 21:55:00 9.4 C 90 % 7.85 C
2281 21-02-2019 22:00:00 9.3 C 90 % 7.75 C
2282 21-02-2019 22:05:00 9.3 C 90 % 7.75 C
2283 21-02-2019 22:10:00 9.3 C 89 % 7.58 C
2284 21-02-2019 22:15:00 9.3 C 90 % 7.75 C
2285 21-02-2019 22:20:00 9.3 C 89 % 7.58 C
2286 21-02-2019 22:25:00 9.3 C 89 % 7.58 C
2287 21-02-2019 22:30:00 9.3 C 89 % 7.58 C
2288 21-02-2019 22:35:00 9.3 C 89 % 7.58 C
2289 21-02-2019 22:40:00 9.3 C 89 % 7.58 C
2290 21-02-2019 22:45:00 9.2 C 89 % 7.48 C
2291 21-02-2019 22:50:00 9.2 C 89 % 7.48 C
2292 21-02-2019 22:55:00 9.2 C 89 % 7.48 C
2293 21-02-2019 23:00:00 9.1 C 89 % 7.39 C
2294 21-02-2019 23:05:00 9.1 C 89 % 7.39 C
2295 21-02-2019 23:10:00 9 C 89 % 7.29 C
2296 21-02-2019 23:15:00 9 C 90 % 7.45 C
2297 21-02-2019 23:20:00 9.1 C 90 % 7.55 C
2298 21-02-2019 23:25:00 9.2 C 90 % 7.65 C
2299 21-02-2019 23:30:00 9.3 C 90 % 7.75 C
2300 21-02-2019 23:35:00 9.3 C 89 % 7.58 C
Sensor: Nr:Datum:Temp:Feuchte:Taupunkt:
Aussen-T/F 2301 21-02-2019 23:40:00 9.4 C 89 % 7.68 C
2302 21-02-2019 23:45:00 9.3 C 89 % 7.58 C
2303 21-02-2019 23:50:00 9.4 C 89 % 7.68 C
2304 21-02-2019 23:55:00 9.4 C 89 % 7.68 C
2305 22-02-2019 00:00:00 9.4 C 89 % 7.68 C
2306 22-02-2019 00:05:00 9.4 C 88 % 7.52 C
2307 22-02-2019 00:10:00 9.3 C 89 % 7.58 C
2308 22-02-2019 00:15:00 9.3 C 89 % 7.58 C
2309 22-02-2019 00:20:00 9.3 C 89 % 7.58 C
2310 22-02-2019 00:25:00 9.3 C 89 % 7.58 C
2311 22-02-2019 00:30:00 9.4 C 89 % 7.68 C
2312 22-02-2019 00:35:00 9.5 C 90 % 7.94 C
2313 22-02-2019 00:40:00 9.8 C 90 % 8.24 C
2314 22-02-2019 00:45:00 10 C 88 % 8.11 C
2315 22-02-2019 00:50:00 10.1 C 88 % 8.21 C
2316 22-02-2019 00:55:00 10.1 C 88 % 8.21 C
2317 22-02-2019 01:00:00 10.1 C 88 % 8.21 C
2318 22-02-2019 01:05:00 10.1 C 87 % 8.04 C
2319 22-02-2019 01:10:00 9.9 C 87 % 7.84 C
2320 22-02-2019 01:15:00 9.8 C 87 % 7.74 C
2321 22-02-2019 01:20:00 9.8 C 88 % 7.91 C
2322 22-02-2019 01:25:00 9.7 C 88 % 7.81 C
2323 22-02-2019 01:30:00 9.7 C 89 % 7.98 C
2324 22-02-2019 01:35:00 9.7 C 89 % 7.98 C
2325 22-02-2019 01:40:00 9.7 C 89 % 7.98 C
Sensor: Nr:Datum:Temp:Feuchte:Taupunkt:
Aussen-T/F 2326 22-02-2019 01:45:00 9.6 C 89 % 7.88 C
2327 22-02-2019 01:50:00 9.6 C 89 % 7.88 C
2328 22-02-2019 01:55:00 9.5 C 89 % 7.78 C
2329 22-02-2019 02:00:00 9.4 C 89 % 7.68 C
2330 22-02-2019 02:05:00 9.4 C 89 % 7.68 C
2331 22-02-2019 02:10:00 9.4 C 90 % 7.85 C
2332 22-02-2019 02:15:00 9.4 C 90 % 7.85 C
2333 22-02-2019 02:20:00 9.4 C 90 % 7.85 C
2334 22-02-2019 02:25:00 9.3 C 90 % 7.75 C
2335 22-02-2019 02:30:00 9.3 C 90 % 7.75 C
2336 22-02-2019 02:35:00 9.3 C 90 % 7.75 C
2337 22-02-2019 02:40:00 9.2 C 90 % 7.65 C
2338 22-02-2019 02:45:00 9.2 C 91 % 7.81 C
2339 22-02-2019 02:50:00 9.3 C 91 % 7.91 C
2340 22-02-2019 02:55:00 9.3 C 92 % 8.07 C
2341 22-02-2019 03:00:00 9.4 C 92 % 8.17 C
2342 22-02-2019 03:05:00 9.4 C 91 % 8.01 C
2343 22-02-2019 03:10:00 9.4 C 92 % 8.17 C
2344 22-02-2019 03:15:00 9.4 C 92 % 8.17 C
2345 22-02-2019 03:20:00 9.5 C 92 % 8.27 C
2346 22-02-2019 03:25:00 9.5 C 92 % 8.27 C
2347 22-02-2019 03:30:00 9.6 C 92 % 8.37 C
2348 22-02-2019 03:35:00 9.6 C 93 % 8.53 C
2349 22-02-2019 03:40:00 9.7 C 93 % 8.62 C
2350 22-02-2019 03:45:00 9.7 C 92 % 8.46 C
Sensor: Nr:Datum:Temp:Feuchte:Taupunkt:
Aussen-T/F 2351 22-02-2019 03:50:00 9.7 C 92 % 8.46 C
2352 22-02-2019 03:55:00 9.7 C 92 % 8.46 C
2353 22-02-2019 04:00:00 9.8 C 92 % 8.56 C
2354 22-02-2019 04:05:00 9.8 C 92 % 8.56 C
2355 22-02-2019 04:10:00 9.8 C 92 % 8.56 C
2356 22-02-2019 04:15:00 9.8 C 93 % 8.72 C
2357 22-02-2019 04:20:00 9.8 C 93 % 8.72 C
2358 22-02-2019 04:25:00 9.7 C 93 % 8.62 C
2359 22-02-2019 04:30:00 9.7 C 93 % 8.62 C
2360 22-02-2019 04:35:00 9.6 C 93 % 8.53 C
2361 22-02-2019 04:40:00 9.6 C 93 % 8.53 C
2362 22-02-2019 04:45:00 9.5 C 93 % 8.43 C
2363 22-02-2019 04:50:00 9.5 C 94 % 8.58 C
2364 22-02-2019 04:55:00 9.4 C 94 % 8.48 C
2365 22-02-2019 05:00:00 9.4 C 94 % 8.48 C
2366 22-02-2019 05:05:00 9.4 C 94 % 8.48 C
2367 22-02-2019 05:10:00 9.4 C 94 % 8.48 C
2368 22-02-2019 05:15:00 9.4 C 94 % 8.48 C
2369 22-02-2019 05:20:00 9.4 C 94 % 8.48 C
2370 22-02-2019 05:25:00 9.3 C 94 % 8.39 C
2371 22-02-2019 05:30:00 9.3 C 94 % 8.39 C
2372 22-02-2019 05:35:00 9.3 C 94 % 8.39 C
2373 22-02-2019 05:40:00 9.3 C 94 % 8.39 C
2374 22-02-2019 05:45:00 9.3 C 95 % 8.54 C
2375 22-02-2019 05:50:00 9.3 C 95 % 8.54 C
Sensor: Nr:Datum:Temp:Feuchte:Taupunkt:
Aussen-T/F 2376 22-02-2019 05:55:00 9.3 C 95 % 8.54 C
2377 22-02-2019 06:00:00 9.3 C 95 % 8.54 C
2378 22-02-2019 06:05:00 9.3 C 95 % 8.54 C
2379 22-02-2019 06:10:00 9.3 C 95 % 8.54 C
2380 22-02-2019 06:15:00 9.4 C 95 % 8.64 C
2381 22-02-2019 06:20:00 9.4 C 95 % 8.64 C
2382 22-02-2019 06:25:00 9.4 C 95 % 8.64 C
2383 22-02-2019 06:30:00 9.4 C 95 % 8.64 C
2384 22-02-2019 06:35:00 9.4 C 95 % 8.64 C
2385 22-02-2019 06:40:00 9.3 C 95 % 8.54 C
2386 22-02-2019 06:45:00 9.3 C 95 % 8.54 C
2387 22-02-2019 06:50:00 9.3 C 95 % 8.54 C
2388 22-02-2019 06:55:00 9.3 C 95 % 8.54 C
2389 22-02-2019 07:00:00 9.3 C 95 % 8.54 C
2390 22-02-2019 07:05:00 9.3 C 95 % 8.54 C
2391 22-02-2019 07:10:00 9.3 C 95 % 8.54 C
2392 22-02-2019 07:15:00 9.2 C 95 % 8.44 C
2393 22-02-2019 07:20:00 9.2 C 95 % 8.44 C
2394 22-02-2019 07:25:00 9.2 C 95 % 8.44 C
2395 22-02-2019 07:30:00 9.2 C 95 % 8.44 C
2396 22-02-2019 07:35:00 9.2 C 96 % 8.6 C
2397 22-02-2019 07:40:00 9.2 C 96 % 8.6 C
2398 22-02-2019 07:45:00 9.2 C 96 % 8.6 C
2399 22-02-2019 07:50:00 9.2 C 96 % 8.6 C
2400 22-02-2019 07:55:00 9.2 C 96 % 8.6 C
Sensor: Nr:Datum:Temp:Feuchte:Taupunkt:
Aussen-T/F 2401 22-02-2019 08:00:00 9.1 C 96 % 8.5 C
2402 22-02-2019 08:05:00 9.1 C 96 % 8.5 C
2403 22-02-2019 08:10:00 9.1 C 96 % 8.5 C
2404 22-02-2019 08:15:00 9.1 C 96 % 8.5 C
2405 22-02-2019 08:20:00 9.1 C 96 % 8.5 C
2406 22-02-2019 08:25:00 9.1 C 96 % 8.5 C
2407 22-02-2019 08:30:00 9.2 C 96 % 8.6 C
2408 22-02-2019 08:35:00 9.2 C 96 % 8.6 C
2409 22-02-2019 08:40:00 9.2 C 96 % 8.6 C
2410 22-02-2019 08:45:00 9.2 C 96 % 8.6 C
2411 22-02-2019 08:50:00 9.3 C 96 % 8.7 C
2412 22-02-2019 08:55:00 9.3 C 96 % 8.7 C
2413 22-02-2019 09:00:00 9.4 C 96 % 8.8 C
2414 22-02-2019 09:05:00 9.4 C 96 % 8.8 C
2415 22-02-2019 09:10:00 9.5 C 96 % 8.89 C
2416 22-02-2019 09:15:00 9.5 C 96 % 8.89 C
2417 22-02-2019 09:20:00 9.5 C 96 % 8.89 C
2418 22-02-2019 09:25:00 9.5 C 96 % 8.89 C
2419 22-02-2019 09:30:00 9.5 C 96 % 8.89 C
2420 22-02-2019 09:35:00 9.5 C 96 % 8.89 C
2421 22-02-2019 09:40:00 9.5 C 96 % 8.89 C
2422 22-02-2019 09:45:00 9.6 C 96 % 8.99 C
2423 22-02-2019 09:50:00 9.6 C 96 % 8.99 C
2424 22-02-2019 09:55:00 9.6 C 96 % 8.99 C
2425 22-02-2019 10:00:00 9.7 C 96 % 9.09 C
Sensor: Nr:Datum:Temp:Feuchte:Taupunkt:
Aussen-T/F 2426 22-02-2019 10:05:00 9.7 C 96 % 9.09 C
2427 22-02-2019 10:10:00 9.8 C 96 % 9.19 C
2428 22-02-2019 10:15:00 9.8 C 96 % 9.19 C
2429 22-02-2019 10:20:00 9.8 C 96 % 9.19 C
2430 22-02-2019 10:25:00 9.9 C 96 % 9.29 C
2431 22-02-2019 10:30:00 9.9 C 96 % 9.29 C
2432 22-02-2019 10:35:00 10 C 96 % 9.39 C
2433 22-02-2019 10:40:00 10.1 C 96 % 9.49 C
2434 22-02-2019 10:45:00 10.1 C 96 % 9.49 C
2435 22-02-2019 10:50:00 10.2 C 96 % 9.59 C
2436 22-02-2019 10:55:00 10.2 C 96 % 9.59 C
2437 22-02-2019 11:00:00 10.3 C 96 % 9.69 C
2438 22-02-2019 11:05:00 10.3 C 96 % 9.69 C
2439 22-02-2019 11:10:00 10.5 C 96 % 9.89 C
2440 22-02-2019 11:15:00 10.6 C 96 % 9.99 C
2441 22-02-2019 11:20:00 10.6 C 96 % 9.99 C
2442 22-02-2019 11:25:00 10.6 C 95 % 9.83 C
2443 22-02-2019 11:30:00 10.7 C 95 % 9.93 C
2444 22-02-2019 11:35:00 10.7 C 95 % 9.93 C
2445 22-02-2019 11:40:00 10.7 C 94 % 9.77 C
2446 22-02-2019 11:45:00 10.8 C 93 % 9.71 C
2447 22-02-2019 11:50:00 10.9 C 93 % 9.81 C
2448 22-02-2019 11:55:00 11 C 93 % 9.91 C
2449 22-02-2019 12:00:00 11.2 C 92 % 9.95 C
2450 22-02-2019 12:05:00 11.2 C 91 % 9.79 C
Sensor: Nr:Datum:Temp:Feuchte:Taupunkt:
Aussen-T/F 2451 22-02-2019 12:10:00 11.3 C 91 % 9.89 C
2452 22-02-2019 12:15:00 11.4 C 89 % 9.65 C
2453 22-02-2019 12:20:00 11.4 C 89 % 9.65 C
2454 22-02-2019 12:25:00 11.6 C 88 % 9.68 C
2455 22-02-2019 12:30:00 11.7 C 88 % 9.78 C
2456 22-02-2019 12:35:00 11.8 C 87 % 9.71 C
2457 22-02-2019 12:40:00 11.8 C 85 % 9.36 C
2458 22-02-2019 12:45:00 11.9 C 85 % 9.46 C
2459 22-02-2019 12:50:00 11.9 C 85 % 9.46 C
2460 22-02-2019 12:55:00 12 C 85 % 9.56 C
2461 22-02-2019 13:00:00 12.1 C 85 % 9.66 C
2462 22-02-2019 13:05:00 12.1 C 84 % 9.48 C
2463 22-02-2019 13:10:00 12.1 C 84 % 9.48 C
2464 22-02-2019 13:15:00 12.1 C 84 % 9.48 C
2465 22-02-2019 13:20:00 12.2 C 84 % 9.58 C
2466 22-02-2019 13:25:00 12.5 C 82 % 9.51 C
2467 22-02-2019 13:30:00 12.8 C 82 % 9.81 C
2468 22-02-2019 13:35:00 12.8 C 80 % 9.44 C
2469 22-02-2019 13:40:00 12.8 C 80 % 9.44 C
2470 22-02-2019 13:45:00 12.8 C 80 % 9.44 C
2471 22-02-2019 13:50:00 12.7 C 80 % 9.34 C
2472 22-02-2019 13:55:00 12.6 C 80 % 9.25 C
2473 22-02-2019 14:00:00 12.6 C 80 % 9.25 C
2474 22-02-2019 14:05:00 12.6 C 80 % 9.25 C
2475 22-02-2019 14:10:00 12.6 C 79 % 9.06 C
Sensor: Nr:Datum:Temp:Feuchte:Taupunkt:
Aussen-T/F 2476 22-02-2019 14:15:00 12.7 C 79 % 9.16 C
2477 22-02-2019 14:20:00 12.7 C 78 % 8.97 C
2478 22-02-2019 14:25:00 12.8 C 78 % 9.06 C
2479 22-02-2019 14:30:00 12.8 C 78 % 9.06 C
2480 22-02-2019 14:35:00 12.9 C 79 % 9.35 C
2481 22-02-2019 14:40:00 13 C 76 % 8.87 C
2482 22-02-2019 14:45:00 13.1 C 76 % 8.97 C
2483 22-02-2019 14:50:00 13.1 C 76 % 8.97 C
2484 22-02-2019 14:55:00 13.1 C 76 % 8.97 C
2485 22-02-2019 15:00:00 13.2 C 75 % 8.87 C
2486 22-02-2019 15:05:00 13.3 C 76 % 9.16 C
2487 22-02-2019 15:10:00 13.3 C 75 % 8.97 C
2488 22-02-2019 15:15:00 13.4 C 74 % 8.87 C
2489 22-02-2019 15:20:00 13.4 C 74 % 8.87 C
2490 22-02-2019 15:25:00 13.4 C 73 % 8.66 C
2491 22-02-2019 15:30:00 13.3 C 74 % 8.77 C
2492 22-02-2019 15:35:00 13.3 C 74 % 8.77 C
2493 22-02-2019 15:40:00 13.2 C 74 % 8.67 C
2494 22-02-2019 15:45:00 13.2 C 74 % 8.67 C
2495 22-02-2019 15:50:00 13.2 C 75 % 8.87 C
2496 22-02-2019 15:55:00 13.1 C 74 % 8.58 C
2497 22-02-2019 16:00:00 13.1 C 74 % 8.58 C
2498 22-02-2019 16:05:00 13.1 C 75 % 8.77 C
2499 22-02-2019 16:10:00 13.1 C 75 % 8.77 C
2500 22-02-2019 16:15:00 12.9 C 74 % 8.38 C
Sensor: Nr:Datum:Temp:Feuchte:Taupunkt:
Aussen-T/F 2501 22-02-2019 16:20:00 12.9 C 73 % 8.18 C
2502 22-02-2019 16:25:00 12.8 C 73 % 8.09 C
2503 22-02-2019 16:30:00 12.8 C 72 % 7.88 C
2504 22-02-2019 16:35:00 12.7 C 72 % 7.79 C
2505 22-02-2019 16:40:00 12.7 C 72 % 7.79 C
2506 22-02-2019 16:45:00 12.7 C 74 % 8.19 C
2507 22-02-2019 16:50:00 12.7 C 74 % 8.19 C
2508 22-02-2019 16:55:00 12.6 C 73 % 7.89 C
2509 22-02-2019 17:00:00 12.5 C 74 % 8 C
2510 22-02-2019 17:05:00 12.4 C 74 % 7.9 C
2511 22-02-2019 17:10:00 12.3 C 75 % 8 C
2512 22-02-2019 17:15:00 12.2 C 73 % 7.51 C
2513 22-02-2019 17:20:00 12.2 C 74 % 7.71 C
2514 22-02-2019 17:25:00 12.1 C 76 % 8 C
2515 22-02-2019 17:30:00 11.9 C 77 % 8 C
2516 22-02-2019 17:35:00 11.7 C 77 % 7.81 C
2517 22-02-2019 17:40:00 11.4 C 78 % 7.71 C
2518 22-02-2019 17:45:00 11.3 C 78 % 7.61 C
2519 22-02-2019 17:50:00 11.1 C 79 % 7.6 C
2520 22-02-2019 17:55:00 10.8 C 79 % 7.31 C
2521 22-02-2019 18:00:00 10.4 C 80 % 7.1 C
2522 22-02-2019 18:05:00 10.1 C 80 % 6.81 C
2523 22-02-2019 18:10:00 9.8 C 81 % 6.7 C
2524 22-02-2019 18:15:00 9.4 C 82 % 6.49 C
2525 22-02-2019 18:20:00 9.2 C 82 % 6.29 C
Sensor: Nr:Datum:Temp:Feuchte:Taupunkt:
Aussen-T/F 2526 22-02-2019 18:25:00 9 C 83 % 6.27 C
2527 22-02-2019 18:30:00 8.8 C 84 % 6.25 C
2528 22-02-2019 18:35:00 8.7 C 84 % 6.15 C
2529 22-02-2019 18:40:00 8.6 C 85 % 6.23 C
2530 22-02-2019 18:45:00 8.4 C 85 % 6.03 C
2531 22-02-2019 18:50:00 8.3 C 85 % 5.93 C
2532 22-02-2019 18:55:00 8.2 C 86 % 6 C
2533 22-02-2019 19:00:00 8.2 C 86 % 6 C
2534 22-02-2019 19:05:00 8.3 C 86 % 6.1 C
2535 22-02-2019 19:10:00 8.3 C 87 % 6.27 C
2536 22-02-2019 19:15:00 8.4 C 87 % 6.37 C
2537 22-02-2019 19:20:00 8.5 C 86 % 6.3 C
2538 22-02-2019 19:25:00 8.6 C 86 % 6.39 C
2539 22-02-2019 19:30:00 8.6 C 86 % 6.39 C
2540 22-02-2019 19:35:00 8.6 C 86 % 6.39 C
2541 22-02-2019 19:40:00 8.7 C 86 % 6.49 C
2542 22-02-2019 19:45:00 8.7 C 86 % 6.49 C
2543 22-02-2019 19:50:00 8.8 C 86 % 6.59 C
2544 22-02-2019 19:55:00 8.9 C 86 % 6.69 C
2545 22-02-2019 20:00:00 8.9 C 85 % 6.52 C
2546 22-02-2019 20:05:00 9 C 85 % 6.62 C
2547 22-02-2019 20:10:00 9 C 85 % 6.62 C
2548 22-02-2019 20:15:00 9.1 C 85 % 6.72 C
2549 22-02-2019 20:20:00 9.1 C 85 % 6.72 C
2550 22-02-2019 20:25:00 9.1 C 85 % 6.72 C
Sensor: Nr:Datum:Temp:Feuchte:Taupunkt:
Aussen-T/F 2551 22-02-2019 20:30:00 9.1 C 85 % 6.72 C
2552 22-02-2019 20:35:00 9 C 85 % 6.62 C
2553 22-02-2019 20:40:00 8.9 C 86 % 6.69 C
2554 22-02-2019 20:45:00 8.9 C 86 % 6.69 C
2555 22-02-2019 20:50:00 8.9 C 86 % 6.69 C
2556 22-02-2019 20:55:00 8.9 C 86 % 6.69 C
2557 22-02-2019 21:00:00 8.8 C 86 % 6.59 C
2558 22-02-2019 21:05:00 8.8 C 86 % 6.59 C
2559 22-02-2019 21:10:00 8.8 C 86 % 6.59 C
2560 22-02-2019 21:15:00 8.8 C 86 % 6.59 C
2561 22-02-2019 21:20:00 8.7 C 87 % 6.66 C
2562 22-02-2019 21:25:00 8.7 C 86 % 6.49 C
2563 22-02-2019 21:30:00 8.6 C 86 % 6.39 C
2564 22-02-2019 21:35:00 8.4 C 86 % 6.2 C
2565 22-02-2019 21:40:00 8.3 C 86 % 6.1 C
2566 22-02-2019 21:45:00 8.1 C 86 % 5.9 C
2567 22-02-2019 21:50:00 7.9 C 86 % 5.71 C
2568 22-02-2019 21:55:00 7.8 C 87 % 5.78 C
2569 22-02-2019 22:00:00 7.6 C 87 % 5.58 C
2570 22-02-2019 22:05:00 7.4 C 88 % 5.55 C
2571 22-02-2019 22:10:00 7.3 C 88 % 5.45 C
2572 22-02-2019 22:15:00 7.2 C 88 % 5.35 C
2573 22-02-2019 22:20:00 7.1 C 89 % 5.41 C
2574 22-02-2019 22:25:00 7 C 89 % 5.31 C
2575 22-02-2019 22:30:00 6.9 C 89 % 5.22 C
Sensor: Nr:Datum:Temp:Feuchte:Taupunkt:
Aussen-T/F 2576 22-02-2019 22:35:00 6.8 C 89 % 5.12 C
2577 22-02-2019 22:40:00 6.7 C 90 % 5.18 C
2578 22-02-2019 22:45:00 6.6 C 90 % 5.08 C
2579 22-02-2019 22:50:00 6.4 C 90 % 4.88 C
2580 22-02-2019 22:55:00 6.3 C 90 % 4.78 C
2581 22-02-2019 23:00:00 6.2 C 90 % 4.69 C
2582 22-02-2019 23:05:00 6.1 C 91 % 4.74 C
2583 22-02-2019 23:10:00 6.1 C 91 % 4.74 C
2584 22-02-2019 23:15:00 6 C 91 % 4.65 C
2585 22-02-2019 23:20:00 6 C 92 % 4.8 C
2586 22-02-2019 23:25:00 5.9 C 92 % 4.7 C
2587 22-02-2019 23:30:00 5.9 C 92 % 4.7 C
2588 22-02-2019 23:35:00 5.9 C 92 % 4.7 C
2589 22-02-2019 23:40:00 5.9 C 92 % 4.7 C
2590 22-02-2019 23:45:00 5.9 C 92 % 4.7 C
2591 22-02-2019 23:50:00 5.8 C 92 % 4.6 C
2592 22-02-2019 23:55:00 5.7 C 92 % 4.5 C
2593 23-02-2019 00:00:00 5.7 C 92 % 4.5 C
2594 23-02-2019 00:05:00 5.7 C 92 % 4.5 C
2595 23-02-2019 00:10:00 5.6 C 92 % 4.41 C
2596 23-02-2019 00:15:00 5.4 C 92 % 4.21 C
2597 23-02-2019 00:20:00 5.3 C 92 % 4.11 C
2598 23-02-2019 00:25:00 5.3 C 92 % 4.11 C
2599 23-02-2019 00:30:00 5.2 C 92 % 4.01 C
2600 23-02-2019 00:35:00 5.2 C 92 % 4.01 C
Sensor: Nr:Datum:Temp:Feuchte:Taupunkt:
Aussen-T/F 2601 23-02-2019 00:40:00 5.2 C 93 % 4.16 C
2602 23-02-2019 00:45:00 5.1 C 93 % 4.06 C
2603 23-02-2019 00:50:00 5.1 C 93 % 4.06 C
2604 23-02-2019 00:55:00 5 C 93 % 3.96 C
2605 23-02-2019 01:00:00 4.9 C 93 % 3.87 C
2606 23-02-2019 01:05:00 4.8 C 93 % 3.77 C
2607 23-02-2019 01:10:00 4.8 C 93 % 3.77 C
2608 23-02-2019 01:15:00 4.7 C 93 % 3.67 C
2609 23-02-2019 01:20:00 4.7 C 93 % 3.67 C
2610 23-02-2019 01:25:00 4.6 C 93 % 3.57 C
2611 23-02-2019 01:30:00 4.4 C 93 % 3.37 C
2612 23-02-2019 01:35:00 4.4 C 93 % 3.37 C
2613 23-02-2019 01:40:00 4.4 C 93 % 3.37 C
2614 23-02-2019 01:45:00 4.3 C 94 % 3.42 C
2615 23-02-2019 01:50:00 4.3 C 94 % 3.42 C
2616 23-02-2019 01:55:00 4.3 C 94 % 3.42 C
2617 23-02-2019 02:00:00 4.3 C 94 % 3.42 C
2618 23-02-2019 02:05:00 4.3 C 94 % 3.42 C
2619 23-02-2019 02:10:00 4.4 C 94 % 3.52 C
2620 23-02-2019 02:15:00 4.4 C 94 % 3.52 C
2621 23-02-2019 02:20:00 4.3 C 94 % 3.42 C
2622 23-02-2019 02:25:00 4.3 C 94 % 3.42 C
2623 23-02-2019 02:30:00 4.2 C 94 % 3.32 C
2624 23-02-2019 02:35:00 4.1 C 94 % 3.22 C
2625 23-02-2019 02:40:00 4 C 94 % 3.12 C
Sensor: Nr:Datum:Temp:Feuchte:Taupunkt:
Aussen-T/F 2626 23-02-2019 02:45:00 4 C 94 % 3.12 C
2627 23-02-2019 02:50:00 4 C 94 % 3.12 C
2628 23-02-2019 02:55:00 3.9 C 94 % 3.02 C
2629 23-02-2019 03:00:00 3.8 C 94 % 2.93 C
2630 23-02-2019 03:05:00 3.8 C 95 % 3.07 C
2631 23-02-2019 03:10:00 3.8 C 95 % 3.07 C
2632 23-02-2019 03:15:00 3.8 C 95 % 3.07 C
2633 23-02-2019 03:20:00 3.9 C 95 % 3.17 C
2634 23-02-2019 03:25:00 3.8 C 95 % 3.07 C
2635 23-02-2019 03:30:00 3.7 C 95 % 2.98 C
2636 23-02-2019 03:35:00 3.7 C 95 % 2.98 C
2637 23-02-2019 03:40:00 3.8 C 95 % 3.07 C
2638 23-02-2019 03:45:00 3.8 C 95 % 3.07 C
2639 23-02-2019 03:50:00 3.9 C 95 % 3.17 C
2640 23-02-2019 03:55:00 4 C 95 % 3.27 C
2641 23-02-2019 04:00:00 4.1 C 95 % 3.37 C
2642 23-02-2019 04:05:00 4.2 C 95 % 3.47 C
2643 23-02-2019 04:10:00 4.2 C 95 % 3.47 C
2644 23-02-2019 04:15:00 4.3 C 95 % 3.57 C
2645 23-02-2019 04:20:00 4.3 C 95 % 3.57 C
2646 23-02-2019 04:25:00 4.3 C 95 % 3.57 C
2647 23-02-2019 04:30:00 4.4 C 95 % 3.67 C
2648 23-02-2019 04:35:00 4.3 C 95 % 3.57 C
2649 23-02-2019 04:40:00 4.3 C 95 % 3.57 C
2650 23-02-2019 04:45:00 4.3 C 95 % 3.57 C
Sensor: Nr:Datum:Temp:Feuchte:Taupunkt:
Aussen-T/F 2651 23-02-2019 04:50:00 4.3 C 95 % 3.57 C
2652 23-02-2019 04:55:00 4.2 C 95 % 3.47 C
2653 23-02-2019 05:00:00 4.2 C 95 % 3.47 C
2654 23-02-2019 05:05:00 4.2 C 95 % 3.47 C
2655 23-02-2019 05:10:00 4.3 C 95 % 3.57 C
2656 23-02-2019 05:15:00 4.3 C 95 % 3.57 C
2657 23-02-2019 05:20:00 4.5 C 94 % 3.62 C
2658 23-02-2019 05:25:00 4.6 C 94 % 3.72 C
2659 23-02-2019 05:30:00 4.6 C 93 % 3.57 C
2660 23-02-2019 05:35:00 4.7 C 93 % 3.67 C
2661 23-02-2019 05:40:00 4.7 C 93 % 3.67 C
2662 23-02-2019 05:45:00 4.7 C 92 % 3.51 C
2663 23-02-2019 05:50:00 4.7 C 92 % 3.51 C
2664 23-02-2019 05:55:00 4.8 C 91 % 3.46 C
2665 23-02-2019 06:00:00 4.8 C 91 % 3.46 C
2666 23-02-2019 06:05:00 4.8 C 91 % 3.46 C
2667 23-02-2019 06:10:00 4.9 C 90 % 3.4 C
2668 23-02-2019 06:15:00 4.8 C 91 % 3.46 C
2669 23-02-2019 06:20:00 4.8 C 91 % 3.46 C
2670 23-02-2019 06:25:00 4.8 C 89 % 3.14 C
2671 23-02-2019 06:30:00 4.8 C 89 % 3.14 C
2672 23-02-2019 06:35:00 4.8 C 89 % 3.14 C
2673 23-02-2019 06:40:00 4.9 C 89 % 3.24 C
2674 23-02-2019 06:45:00 4.9 C 90 % 3.4 C
2675 23-02-2019 06:50:00 4.9 C 89 % 3.24 C
Sensor: Nr:Datum:Temp:Feuchte:Taupunkt:
Aussen-T/F 2676 23-02-2019 06:55:00 4.8 C 89 % 3.14 C
2677 23-02-2019 07:00:00 4.8 C 88 % 2.99 C
2678 23-02-2019 07:05:00 4.8 C 88 % 2.99 C
2679 23-02-2019 07:10:00 4.8 C 88 % 2.99 C
2680 23-02-2019 07:15:00 4.7 C 87 % 2.73 C
2681 23-02-2019 07:20:00 4.8 C 87 % 2.82 C
2682 23-02-2019 07:25:00 4.8 C 87 % 2.82 C
2683 23-02-2019 07:30:00 4.8 C 87 % 2.82 C
2684 23-02-2019 07:35:00 4.8 C 86 % 2.66 C
2685 23-02-2019 07:40:00 4.8 C 86 % 2.66 C
2686 23-02-2019 07:45:00 4.8 C 87 % 2.82 C
2687 23-02-2019 07:50:00 4.8 C 86 % 2.66 C
2688 23-02-2019 07:55:00 4.8 C 86 % 2.66 C
2689 23-02-2019 08:00:00 4.8 C 86 % 2.66 C
2690 23-02-2019 08:05:00 4.8 C 87 % 2.82 C
2691 23-02-2019 08:10:00 4.8 C 86 % 2.66 C
2692 23-02-2019 08:15:00 4.8 C 85 % 2.5 C
2693 23-02-2019 08:20:00 4.8 C 85 % 2.5 C
2694 23-02-2019 08:25:00 4.8 C 85 % 2.5 C
2695 23-02-2019 08:30:00 4.9 C 85 % 2.6 C
2696 23-02-2019 08:35:00 4.9 C 85 % 2.6 C
2697 23-02-2019 08:40:00 4.9 C 84 % 2.43 C
2698 23-02-2019 08:45:00 4.9 C 84 % 2.43 C
2699 23-02-2019 08:50:00 4.9 C 84 % 2.43 C
2700 23-02-2019 08:55:00 4.9 C 84 % 2.43 C
Sensor: Nr:Datum:Temp:Feuchte:Taupunkt:
Aussen-T/F 2701 23-02-2019 09:00:00 4.9 C 84 % 2.43 C
2702 23-02-2019 09:05:00 4.9 C 83 % 2.26 C
2703 23-02-2019 09:10:00 4.8 C 83 % 2.16 C
2704 23-02-2019 09:15:00 4.8 C 83 % 2.16 C
2705 23-02-2019 09:20:00 4.8 C 84 % 2.33 C
2706 23-02-2019 09:25:00 4.8 C 84 % 2.33 C
2707 23-02-2019 09:30:00 4.8 C 84 % 2.33 C
2708 23-02-2019 09:35:00 4.7 C 84 % 2.23 C
2709 23-02-2019 09:40:00 4.7 C 83 % 2.07 C
2710 23-02-2019 09:45:00 4.7 C 83 % 2.07 C
2711 23-02-2019 09:50:00 4.7 C 83 % 2.07 C
2712 23-02-2019 09:55:00 4.7 C 83 % 2.07 C
2713 23-02-2019 10:00:00 4.7 C 83 % 2.07 C
2714 23-02-2019 10:05:00 4.7 C 83 % 2.07 C
2715 23-02-2019 10:10:00 4.7 C 83 % 2.07 C
2716 23-02-2019 10:15:00 4.8 C 83 % 2.16 C
2717 23-02-2019 10:20:00 4.8 C 82 % 1.99 C
2718 23-02-2019 10:25:00 4.8 C 82 % 1.99 C
2719 23-02-2019 10:30:00 4.9 C 82 % 2.09 C
2720 23-02-2019 10:35:00 5 C 81 % 2.02 C
2721 23-02-2019 10:40:00 5.1 C 81 % 2.12 C
2722 23-02-2019 10:45:00 5.2 C 81 % 2.21 C
2723 23-02-2019 10:50:00 5.3 C 81 % 2.31 C
2724 23-02-2019 10:55:00 5.4 C 80 % 2.23 C
2725 23-02-2019 11:00:00 5.4 C 81 % 2.41 C
Sensor: Nr:Datum:Temp:Feuchte:Taupunkt:
Aussen-T/F 2726 23-02-2019 11:05:00 5.6 C 81 % 2.6 C
2727 23-02-2019 11:10:00 5.7 C 80 % 2.53 C
2728 23-02-2019 11:15:00 5.8 C 80 % 2.62 C
2729 23-02-2019 11:20:00 5.9 C 80 % 2.72 C
2730 23-02-2019 11:25:00 6.1 C 80 % 2.92 C
2731 23-02-2019 11:30:00 6.2 C 79 % 2.84 C
2732 23-02-2019 11:35:00 6.3 C 79 % 2.93 C
2733 23-02-2019 11:40:00 6.4 C 78 % 2.85 C
2734 23-02-2019 11:45:00 6.6 C 77 % 2.86 C
2735 23-02-2019 11:50:00 6.7 C 77 % 2.96 C
2736 23-02-2019 11:55:00 6.8 C 76 % 2.87 C
2737 23-02-2019 12:00:00 6.9 C 76 % 2.97 C
2738 23-02-2019 12:05:00 7.1 C 75 % 2.98 C
2739 23-02-2019 12:10:00 7.2 C 74 % 2.89 C
2740 23-02-2019 12:15:00 7.3 C 74 % 2.98 C
2741 23-02-2019 12:20:00 7.5 C 73 % 2.98 C
2742 23-02-2019 12:25:00 7.7 C 72 % 2.98 C
2743 23-02-2019 12:30:00 7.8 C 71 % 2.88 C
2744 23-02-2019 12:35:00 7.8 C 71 % 2.88 C
2745 23-02-2019 12:40:00 7.9 C 70 % 2.78 C
2746 23-02-2019 12:45:00 8 C 71 % 3.07 C
2747 23-02-2019 12:50:00 8.1 C 70 % 2.97 C
2748 23-02-2019 12:55:00 8.2 C 71 % 3.26 C
2749 23-02-2019 13:00:00 8.3 C 69 % 2.96 C
2750 23-02-2019 13:05:00 8.4 C 68 % 2.85 C
Sensor: Nr:Datum:Temp:Feuchte:Taupunkt:
Aussen-T/F 2751 23-02-2019 13:10:00 8.4 C 69 % 3.05 C
2752 23-02-2019 13:15:00 8.7 C 68 % 3.13 C
2753 23-02-2019 13:20:00 8.9 C 68 % 3.32 C
2754 23-02-2019 13:25:00 9.1 C 67 % 3.31 C
2755 23-02-2019 13:30:00 9.3 C 66 % 3.28 C
2756 23-02-2019 13:35:00 9.3 C 66 % 3.28 C
2757 23-02-2019 13:40:00 9.4 C 67 % 3.59 C
2758 23-02-2019 13:45:00 9.6 C 65 % 3.35 C
2759 23-02-2019 13:50:00 9.6 C 65 % 3.35 C
2760 23-02-2019 13:55:00 9.7 C 64 % 3.23 C
2761 23-02-2019 14:00:00 9.7 C 64 % 3.23 C
2762 23-02-2019 14:05:00 9.7 C 63 % 3.01 C
2763 23-02-2019 14:10:00 9.7 C 64 % 3.23 C
2764 23-02-2019 14:15:00 9.8 C 63 % 3.1 C
2765 23-02-2019 14:20:00 9.8 C 62 % 2.88 C
2766 23-02-2019 14:25:00 9.9 C 62 % 2.97 C
2767 23-02-2019 14:30:00 10 C 61 % 2.84 C
2768 23-02-2019 14:35:00 10.1 C 60 % 2.7 C
2769 23-02-2019 14:40:00 10.2 C 59 % 2.56 C
2770 23-02-2019 14:45:00 10.3 C 54 % 1.41 C
2771 23-02-2019 14:50:00 10.4 C 52 % 0.98 C
2772 23-02-2019 14:55:00 10.6 C 49 % 0.35 C
2773 23-02-2019 15:00:00 10.6 C 47 % -0.23 C
2774 23-02-2019 15:05:00 10.7 C 46 % -0.43 C
2775 23-02-2019 15:10:00 10.8 C 48 % 0.24 C
Sensor: Nr:Datum:Temp:Feuchte:Taupunkt:
Aussen-T/F 2776 23-02-2019 15:15:00 10.8 C 46 % -0.34 C
2777 23-02-2019 15:20:00 10.8 C 46 % -0.34 C
2778 23-02-2019 15:25:00 10.8 C 46 % -0.34 C
2779 23-02-2019 15:30:00 10.8 C 45 % -0.64 C
2780 23-02-2019 15:35:00 10.8 C 42 % -1.58 C
2781 23-02-2019 15:40:00 10.8 C 42 % -1.58 C
2782 23-02-2019 15:45:00 10.8 C 43 % -1.26 C
2783 23-02-2019 15:50:00 10.8 C 42 % -1.58 C
2784 23-02-2019 15:55:00 10.9 C 44 % -0.86 C
2785 23-02-2019 16:00:00 10.9 C 43 % -1.17 C
2786 23-02-2019 16:05:00 10.9 C 43 % -1.17 C
2787 23-02-2019 16:10:00 11.1 C 46 % -0.07 C
2788 23-02-2019 16:15:00 11.1 C 52 % 1.63 C
2789 23-02-2019 16:20:00 11 C 43 % -1.08 C
2790 23-02-2019 16:25:00 10.9 C 42 % -1.49 C
2791 23-02-2019 16:30:00 10.8 C 44 % -0.95 C
2792 23-02-2019 16:35:00 10.8 C 47 % -0.04 C
2793 23-02-2019 16:40:00 10.6 C 46 % -0.52 C
2794 23-02-2019 16:45:00 10.4 C 52 % 0.98 C
2795 23-02-2019 16:50:00 10.2 C 53 % 1.06 C
2796 23-02-2019 16:55:00 9.9 C 54 % 1.04 C
2797 23-02-2019 17:00:00 9.6 C 56 % 1.27 C
2798 23-02-2019 17:05:00 9.3 C 59 % 1.71 C
2799 23-02-2019 17:10:00 8.9 C 61 % 1.8 C
2800 23-02-2019 17:15:00 8.7 C 62 % 1.84 C
Sensor: Nr:Datum:Temp:Feuchte:Taupunkt:
Aussen-T/F 2801 23-02-2019 17:20:00 8.3 C 62 % 1.46 C
2802 23-02-2019 17:25:00 8 C 64 % 1.62 C
2803 23-02-2019 17:30:00 7.8 C 64 % 1.43 C
2804 23-02-2019 17:35:00 7.5 C 65 % 1.36 C
2805 23-02-2019 17:40:00 7.3 C 65 % 1.17 C
2806 23-02-2019 17:45:00 7.1 C 66 % 1.19 C
2807 23-02-2019 17:50:00 6.8 C 67 % 1.11 C
2808 23-02-2019 17:55:00 6.6 C 67 % 0.92 C
2809 23-02-2019 18:00:00 6.4 C 69 % 1.14 C
2810 23-02-2019 18:05:00 6.2 C 70 % 1.15 C
2811 23-02-2019 18:10:00 5.9 C 70 % 0.86 C
2812 23-02-2019 18:15:00 5.7 C 70 % 0.67 C
2813 23-02-2019 18:20:00 5.6 C 71 % 0.77 C
2814 23-02-2019 18:25:00 5.4 C 71 % 0.58 C
2815 23-02-2019 18:30:00 5.3 C 71 % 0.48 C
2816 23-02-2019 18:35:00 5.2 C 71 % 0.38 C
2817 23-02-2019 18:40:00 5.1 C 72 % 0.48 C
2818 23-02-2019 18:45:00 5 C 72 % 0.38 C
2819 23-02-2019 18:50:00 4.9 C 72 % 0.29 C
2820 23-02-2019 18:55:00 4.8 C 72 % 0.19 C
2821 23-02-2019 19:00:00 4.7 C 73 % 0.28 C
2822 23-02-2019 19:05:00 4.7 C 73 % 0.28 C
2823 23-02-2019 19:10:00 4.6 C 73 % 0.19 C
2824 23-02-2019 19:15:00 4.6 C 74 % 0.38 C
2825 23-02-2019 19:20:00 4.5 C 74 % 0.28 C
Sensor: Nr:Datum:Temp:Feuchte:Taupunkt:
Aussen-T/F 2826 23-02-2019 19:25:00 4.4 C 73 % 0 C
2827 23-02-2019 19:30:00 4.3 C 74 % 0.09 C
2828 23-02-2019 19:35:00 4.3 C 75 % 0.27 C
2829 23-02-2019 19:40:00 4.2 C 75 % 0.17 C
2830 23-02-2019 19:45:00 4.1 C 74 % -0.11 C
2831 23-02-2019 19:50:00 4.1 C 75 % 0.08 C
2832 23-02-2019 19:55:00 3.9 C 75 % -0.12 C
2833 23-02-2019 20:00:00 3.9 C 75 % -0.12 C
2834 23-02-2019 20:05:00 3.8 C 75 % -0.21 C
2835 23-02-2019 20:10:00 3.7 C 75 % -0.31 C
2836 23-02-2019 20:15:00 3.7 C 75 % -0.31 C
2837 23-02-2019 20:20:00 3.6 C 75 % -0.41 C
2838 23-02-2019 20:25:00 3.5 C 76 % -0.32 C
2839 23-02-2019 20:30:00 3.4 C 76 % -0.42 C
2840 23-02-2019 20:35:00 3.3 C 77 % -0.34 C
2841 23-02-2019 20:40:00 3.2 C 77 % -0.43 C
2842 23-02-2019 20:45:00 3 C 77 % -0.63 C
2843 23-02-2019 20:50:00 2.8 C 77 % -0.82 C
2844 23-02-2019 20:55:00 2.7 C 78 % -0.74 C
2845 23-02-2019 21:00:00 2.6 C 78 % -0.84 C
2846 23-02-2019 21:05:00 2.4 C 79 % -0.86 C
2847 23-02-2019 21:10:00 2.3 C 78 % -1.13 C
2848 23-02-2019 21:15:00 2.2 C 78 % -1.23 C
2849 23-02-2019 21:20:00 2.2 C 79 % -1.05 C
2850 23-02-2019 21:25:00 2.1 C 79 % -1.15 C
Sensor: Nr:Datum:Temp:Feuchte:Taupunkt:
Aussen-T/F 2851 23-02-2019 21:30:00 2.1 C 80 % -0.98 C
2852 23-02-2019 21:35:00 2 C 79 % -1.25 C
2853 23-02-2019 21:40:00 1.8 C 80 % -1.27 C
2854 23-02-2019 21:45:00 1.7 C 80 % -1.37 C
2855 23-02-2019 21:50:00 1.6 C 81 % -1.3 C
2856 23-02-2019 21:55:00 1.4 C 81 % -1.49 C
2857 23-02-2019 22:00:00 1.3 C 81 % -1.59 C
2858 23-02-2019 22:05:00 1.2 C 82 % -1.52 C
2859 23-02-2019 22:10:00 1.2 C 82 % -1.52 C
2860 23-02-2019 22:15:00 1.1 C 83 % -1.46 C
2861 23-02-2019 22:20:00 1.1 C 84 % -1.29 C
2862 23-02-2019 22:25:00 1.1 C 84 % -1.29 C
2863 23-02-2019 22:30:00 1.1 C 83 % -1.46 C
2864 23-02-2019 22:35:00 0.9 C 83 % -1.65 C
2865 23-02-2019 22:40:00 0.8 C 83 % -1.75 C
2866 23-02-2019 22:45:00 0.7 C 83 % -1.85 C
2867 23-02-2019 22:50:00 0.7 C 83 % -1.85 C
2868 23-02-2019 22:55:00 0.6 C 83 % -1.95 C
2869 23-02-2019 23:00:00 0.6 C 84 % -1.78 C
2870 23-02-2019 23:05:00 0.6 C 84 % -1.78 C
2871 23-02-2019 23:10:00 0.5 C 83 % -2.04 C
2872 23-02-2019 23:15:00 0.4 C 83 % -2.14 C
2873 23-02-2019 23:20:00 0.4 C 84 % -1.98 C
2874 23-02-2019 23:25:00 0.5 C 83 % -2.04 C
2875 23-02-2019 23:30:00 0.4 C 83 % -2.14 C
Sensor: Nr:Datum:Temp:Feuchte:Taupunkt:
Aussen-T/F 2876 23-02-2019 23:35:00 0.5 C 83 % -2.04 C
2877 23-02-2019 23:40:00 0.4 C 83 % -2.14 C
2878 23-02-2019 23:45:00 0.4 C 84 % -1.98 C
2879 23-02-2019 23:50:00 0.4 C 84 % -1.98 C
2880 23-02-2019 23:55:00 0.4 C 84 % -1.98 C
2881 24-02-2019 00:00:00 0.2 C 84 % -2.18 C
2882 24-02-2019 00:05:00 0.1 C 84 % -2.27 C
2883 24-02-2019 00:10:00 -0.1 C 84 % -2.47 C
2884 24-02-2019 00:15:00 -0.2 C 85 % -2.41 C
2885 24-02-2019 00:20:00 -0.3 C 85 % -2.51 C
2886 24-02-2019 00:25:00 -0.3 C 85 % -2.51 C
2887 24-02-2019 00:30:00 -0.3 C 86 % -2.35 C
2888 24-02-2019 00:35:00 -0.3 C 86 % -2.35 C
2889 24-02-2019 00:40:00 -0.4 C 86 % -2.45 C
2890 24-02-2019 00:45:00 -0.4 C 86 % -2.45 C
2891 24-02-2019 00:50:00 -0.5 C 87 % -2.39 C
2892 24-02-2019 00:55:00 -0.6 C 87 % -2.49 C
2893 24-02-2019 01:00:00 -0.6 C 87 % -2.49 C
2894 24-02-2019 01:05:00 -0.6 C 87 % -2.49 C
2895 24-02-2019 01:10:00 -0.6 C 87 % -2.49 C
2896 24-02-2019 01:15:00 -0.6 C 87 % -2.49 C
2897 24-02-2019 01:20:00 -0.6 C 87 % -2.49 C
2898 24-02-2019 01:25:00 -0.6 C 87 % -2.49 C
2899 24-02-2019 01:30:00 -0.7 C 87 % -2.59 C
2900 24-02-2019 01:35:00 -0.7 C 87 % -2.59 C
Sensor: Nr:Datum:Temp:Feuchte:Taupunkt:
Aussen-T/F 2901 24-02-2019 01:40:00 -0.7 C 87 % -2.59 C
2902 24-02-2019 01:45:00 -0.7 C 87 % -2.59 C
2903 24-02-2019 01:50:00 -0.8 C 87 % -2.69 C
2904 24-02-2019 01:55:00 -0.8 C 87 % -2.69 C
2905 24-02-2019 02:00:00 -0.9 C 87 % -2.79 C
2906 24-02-2019 02:05:00 -1 C 87 % -2.88 C
2907 24-02-2019 02:10:00 -1.1 C 88 % -2.83 C
2908 24-02-2019 02:15:00 -1.1 C 88 % -2.83 C
2909 24-02-2019 02:20:00 -1.1 C 88 % -2.83 C
2910 24-02-2019 02:25:00 -1.2 C 88 % -2.93 C
2911 24-02-2019 02:30:00 -1.2 C 88 % -2.93 C
2912 24-02-2019 02:35:00 -1.2 C 88 % -2.93 C
2913 24-02-2019 02:40:00 -1.3 C 88 % -3.03 C
2914 24-02-2019 02:45:00 -1.3 C 88 % -3.03 C
2915 24-02-2019 02:50:00 -1.3 C 88 % -3.03 C
2916 24-02-2019 02:55:00 -1.3 C 89 % -2.88 C
2917 24-02-2019 03:00:00 -1.3 C 89 % -2.88 C
2918 24-02-2019 03:05:00 -1.4 C 89 % -2.97 C
2919 24-02-2019 03:10:00 -1.4 C 89 % -2.97 C
2920 24-02-2019 03:15:00 -1.4 C 89 % -2.97 C
2921 24-02-2019 03:20:00 -1.4 C 89 % -2.97 C
2922 24-02-2019 03:25:00 -1.5 C 89 % -3.07 C
2923 24-02-2019 03:30:00 -1.5 C 89 % -3.07 C
2924 24-02-2019 03:35:00 -1.6 C 89 % -3.17 C
2925 24-02-2019 03:40:00 -1.6 C 89 % -3.17 C
Sensor: Nr:Datum:Temp:Feuchte:Taupunkt:
Aussen-T/F 2926 24-02-2019 03:45:00 -1.6 C 89 % -3.17 C
2927 24-02-2019 03:50:00 -1.6 C 90 % -3.02 C
2928 24-02-2019 03:55:00 -1.7 C 90 % -3.12 C
2929 24-02-2019 04:00:00 -1.7 C 90 % -3.12 C
2930 24-02-2019 04:05:00 -1.7 C 90 % -3.12 C
2931 24-02-2019 04:10:00 -1.7 C 90 % -3.12 C
2932 24-02-2019 04:15:00 -1.6 C 90 % -3.02 C
2933 24-02-2019 04:20:00 -1.7 C 90 % -3.12 C
2934 24-02-2019 04:25:00 -1.7 C 90 % -3.12 C
2935 24-02-2019 04:30:00 -1.7 C 90 % -3.12 C
2936 24-02-2019 04:35:00 -1.8 C 90 % -3.22 C
2937 24-02-2019 04:40:00 -1.8 C 90 % -3.22 C
2938 24-02-2019 04:45:00 -1.8 C 90 % -3.22 C
2939 24-02-2019 04:50:00 -1.8 C 90 % -3.22 C
2940 24-02-2019 04:55:00 -1.8 C 90 % -3.22 C
2941 24-02-2019 05:00:00 -1.8 C 90 % -3.22 C
2942 24-02-2019 05:05:00 -1.8 C 90 % -3.22 C
2943 24-02-2019 05:10:00 -1.8 C 90 % -3.22 C
2944 24-02-2019 05:15:00 -1.8 C 90 % -3.22 C
2945 24-02-2019 05:20:00 -1.8 C 90 % -3.22 C
2946 24-02-2019 05:25:00 -1.9 C 90 % -3.32 C
2947 24-02-2019 05:30:00 -1.9 C 90 % -3.32 C
2948 24-02-2019 05:35:00 -1.9 C 90 % -3.32 C
2949 24-02-2019 05:40:00 -2 C 90 % -3.42 C
2950 24-02-2019 05:45:00 -2 C 90 % -3.42 C
Sensor: Nr:Datum:Temp:Feuchte:Taupunkt:
Aussen-T/F 2951 24-02-2019 05:50:00 -1.9 C 90 % -3.32 C
2952 24-02-2019 05:55:00 -1.9 C 90 % -3.32 C
2953 24-02-2019 06:00:00 -1.9 C 90 % -3.32 C
2954 24-02-2019 06:05:00 -1.9 C 90 % -3.32 C
2955 24-02-2019 06:10:00 -2 C 90 % -3.42 C
2956 24-02-2019 06:15:00 -2 C 90 % -3.42 C
2957 24-02-2019 06:20:00 -2.1 C 90 % -3.52 C
2958 24-02-2019 06:25:00 -2.1 C 90 % -3.52 C
2959 24-02-2019 06:30:00 -2.1 C 91 % -3.37 C
2960 24-02-2019 06:35:00 -2.1 C 91 % -3.37 C
2961 24-02-2019 06:40:00 -2.1 C 91 % -3.37 C
2962 24-02-2019 06:45:00 -2.1 C 91 % -3.37 C
2963 24-02-2019 06:50:00 -2.2 C 91 % -3.47 C
2964 24-02-2019 06:55:00 -2.2 C 91 % -3.47 C
2965 24-02-2019 07:00:00 -2.2 C 91 % -3.47 C
2966 24-02-2019 07:05:00 -2.3 C 91 % -3.57 C
2967 24-02-2019 07:10:00 -2.3 C 91 % -3.57 C
2968 24-02-2019 07:15:00 -2.3 C 91 % -3.57 C
2969 24-02-2019 07:20:00 -2.4 C 91 % -3.66 C
2970 24-02-2019 07:25:00 -2.4 C 91 % -3.66 C
2971 24-02-2019 07:30:00 -2.4 C 91 % -3.66 C
2972 24-02-2019 07:35:00 -2.4 C 91 % -3.66 C
2973 24-02-2019 07:40:00 -2.4 C 91 % -3.66 C
2974 24-02-2019 07:45:00 -2.4 C 92 % -3.52 C
2975 24-02-2019 07:50:00 -2.4 C 92 % -3.52 C
Sensor: Nr:Datum:Temp:Feuchte:Taupunkt:
Aussen-T/F 2976 24-02-2019 07:55:00 -2.4 C 92 % -3.52 C
2977 24-02-2019 08:00:00 -2.3 C 92 % -3.42 C
2978 24-02-2019 08:05:00 -2.3 C 92 % -3.42 C
2979 24-02-2019 08:10:00 -2.2 C 92 % -3.32 C
2980 24-02-2019 08:15:00 -2.2 C 92 % -3.32 C
2981 24-02-2019 08:20:00 -2.2 C 92 % -3.32 C
2982 24-02-2019 08:25:00 -2.1 C 92 % -3.22 C
2983 24-02-2019 08:30:00 -2.1 C 92 % -3.22 C
2984 24-02-2019 08:35:00 -2 C 92 % -3.12 C
2985 24-02-2019 08:40:00 -2 C 92 % -3.12 C
2986 24-02-2019 08:45:00 -2 C 92 % -3.12 C
2987 24-02-2019 08:50:00 -2 C 92 % -3.12 C
2988 24-02-2019 08:55:00 -1.9 C 92 % -3.02 C
2989 24-02-2019 09:00:00 -1.9 C 92 % -3.02 C
2990 24-02-2019 09:05:00 -1.8 C 92 % -2.92 C
2991 24-02-2019 09:10:00 -1.8 C 92 % -2.92 C
2992 24-02-2019 09:15:00 -1.7 C 92 % -2.83 C
2993 24-02-2019 09:20:00 -1.6 C 92 % -2.73 C
2994 24-02-2019 09:25:00 -1.6 C 92 % -2.73 C
2995 24-02-2019 09:30:00 -1.5 C 92 % -2.63 C
2996 24-02-2019 09:35:00 -1.4 C 92 % -2.53 C
2997 24-02-2019 09:40:00 -1.3 C 92 % -2.43 C
2998 24-02-2019 09:45:00 -1.2 C 92 % -2.33 C
2999 24-02-2019 09:50:00 -1.1 C 92 % -2.23 C
3000 24-02-2019 09:55:00 -1 C 91 % -2.28 C
Sensor: Nr:Datum:Temp:Feuchte:Taupunkt:
Aussen-T/F 3001 24-02-2019 10:00:00 -0.9 C 91 % -2.18 C
3002 24-02-2019 10:05:00 -0.8 C 91 % -2.08 C
3003 24-02-2019 10:10:00 -0.6 C 90 % -2.03 C
3004 24-02-2019 10:15:00 -0.4 C 90 % -1.84 C
3005 24-02-2019 10:20:00 -0.2 C 90 % -1.64 C
3006 24-02-2019 10:25:00 0 C 89 % -1.59 C
3007 24-02-2019 10:30:00 0.3 C 89 % -1.29 C
3008 24-02-2019 10:35:00 0.7 C 88 % -1.05 C
3009 24-02-2019 10:40:00 1 C 88 % -0.76 C
3010 24-02-2019 10:45:00 1.4 C 87 % -0.52 C
3011 24-02-2019 10:50:00 1.7 C 86 % -0.38 C
3012 24-02-2019 10:55:00 2.2 C 85 % -0.05 C
3013 24-02-2019 11:00:00 2.6 C 83 % 0.01 C
3014 24-02-2019 11:05:00 2.9 C 82 % 0.14 C
3015 24-02-2019 11:10:00 3.2 C 82 % 0.43 C
3016 24-02-2019 11:15:00 3.4 C 81 % 0.46 C
3017 24-02-2019 11:20:00 3.7 C 80 % 0.58 C
3018 24-02-2019 11:25:00 3.9 C 79 % 0.6 C
3019 24-02-2019 11:30:00 4.2 C 76 % 0.36 C
3020 24-02-2019 11:35:00 4.6 C 75 % 0.56 C
3021 24-02-2019 11:40:00 4.8 C 76 % 0.94 C
3022 24-02-2019 11:45:00 5.1 C 74 % 0.86 C
3023 24-02-2019 11:50:00 5.3 C 74 % 1.05 C
3024 24-02-2019 11:55:00 5.4 C 73 % 0.96 C
3025 24-02-2019 12:00:00 5.6 C 73 % 1.15 C
Sensor: Nr:Datum:Temp:Feuchte:Taupunkt:
Aussen-T/F 3026 24-02-2019 12:05:00 5.7 C 72 % 1.06 C
3027 24-02-2019 12:10:00 5.9 C 72 % 1.25 C
3028 24-02-2019 12:15:00 6.3 C 70 % 1.24 C
3029 24-02-2019 12:20:00 6.6 C 69 % 1.33 C
3030 24-02-2019 12:25:00 6.9 C 68 % 1.41 C
3031 24-02-2019 12:30:00 7.4 C 67 % 1.69 C
3032 24-02-2019 12:35:00 8.1 C 66 % 2.14 C
3033 24-02-2019 12:40:00 8.6 C 63 % 1.97 C
3034 24-02-2019 12:45:00 8.8 C 58 % 1 C
3035 24-02-2019 12:50:00 9.1 C 58 % 1.29 C
3036 24-02-2019 12:55:00 9.2 C 57 % 1.14 C
3037 24-02-2019 13:00:00 9.2 C 55 % 0.64 C
3038 24-02-2019 13:05:00 9.3 C 49 % -0.85 C
3039 24-02-2019 13:10:00 9.4 C 48 % -1.04 C
3040 24-02-2019 13:15:00 9.7 C 46 % -1.34 C
3041 24-02-2019 13:20:00 9.9 C 42 % -2.39 C
3042 24-02-2019 13:25:00 10.3 C 45 % -1.1 C
3043 24-02-2019 13:30:00 10.6 C 44 % -1.13 C
3044 24-02-2019 13:35:00 10.9 C 44 % -0.86 C
3045 24-02-2019 13:40:00 11.2 C 40 % -1.88 C
3046 24-02-2019 13:45:00 11.4 C 40 % -1.7 C
3047 24-02-2019 13:50:00 11.7 C 40 % -1.43 C
3048 24-02-2019 13:55:00 11.9 C 37 % -2.31 C
3049 24-02-2019 14:00:00 11.9 C 35 % -3.05 C
3050 24-02-2019 14:05:00 11.9 C 36 % -2.68 C
Sensor: Nr:Datum:Temp:Feuchte:Taupunkt:
Aussen-T/F 3051 24-02-2019 14:10:00 11.9 C 36 % -2.68 C
3052 24-02-2019 14:15:00 11.9 C 36 % -2.68 C
3053 24-02-2019 14:20:00 11.9 C 38 % -1.95 C
3054 24-02-2019 14:25:00 11.8 C 37 % -2.4 C
3055 24-02-2019 14:30:00 11.8 C 37 % -2.4 C
3056 24-02-2019 14:35:00 11.8 C 38 % -2.04 C
3057 24-02-2019 14:40:00 11.8 C 40 % -1.34 C
3058 24-02-2019 14:45:00 11.9 C 36 % -2.68 C
3059 24-02-2019 14:50:00 12 C 35 % -2.97 C
3060 24-02-2019 14:55:00 12.1 C 34 % -3.27 C
3061 24-02-2019 15:00:00 12.2 C 36 % -2.41 C
3062 24-02-2019 15:05:00 12.3 C 35 % -2.7 C
3063 24-02-2019 15:10:00 12.4 C 35 % -2.61 C
3064 24-02-2019 15:15:00 12.4 C 35 % -2.61 C
3065 24-02-2019 15:20:00 12.5 C 34 % -2.91 C
3066 24-02-2019 15:25:00 12.6 C 36 % -2.06 C
3067 24-02-2019 15:30:00 12.6 C 39 % -0.97 C
3068 24-02-2019 15:35:00 12.6 C 44 % 0.69 C
3069 24-02-2019 15:40:00 12.4 C 42 % -0.14 C
3070 24-02-2019 15:45:00 12.4 C 44 % 0.5 C
3071 24-02-2019 15:50:00 12.3 C 44 % 0.41 C
3072 24-02-2019 15:55:00 12.3 C 44 % 0.41 C
3073 24-02-2019 16:00:00 12.3 C 45 % 0.72 C
3074 24-02-2019 16:05:00 12.2 C 46 % 0.94 C
3075 24-02-2019 16:10:00 12.3 C 41 % -0.56 C
Sensor: Nr:Datum:Temp:Feuchte:Taupunkt:
Aussen-T/F 3076 24-02-2019 16:15:00 12.4 C 44 % 0.5 C
3077 24-02-2019 16:20:00 12.3 C 45 % 0.72 C
3078 24-02-2019 16:25:00 12.2 C 44 % 0.32 C
3079 24-02-2019 16:30:00 11.9 C 46 % 0.66 C
3080 24-02-2019 16:35:00 11.6 C 47 % 0.69 C
3081 24-02-2019 16:40:00 11.3 C 48 % 0.7 C
3082 24-02-2019 16:45:00 11.2 C 50 % 1.18 C
3083 24-02-2019 16:50:00 11.1 C 51 % 1.36 C
3084 24-02-2019 16:55:00 10.9 C 51 % 1.17 C
3085 24-02-2019 17:00:00 10.8 C 52 % 1.35 C
3086 24-02-2019 17:05:00 10.7 C 52 % 1.26 C
3087 24-02-2019 17:10:00 10.7 C 52 % 1.26 C
3088 24-02-2019 17:15:00 10.5 C 52 % 1.07 C
3089 24-02-2019 17:20:00 10.4 C 52 % 0.98 C
3090 24-02-2019 17:25:00 10.3 C 52 % 0.89 C
3091 24-02-2019 17:30:00 10.3 C 52 % 0.89 C
3092 24-02-2019 17:35:00 10.3 C 52 % 0.89 C
3093 24-02-2019 17:40:00 10.2 C 53 % 1.06 C
3094 24-02-2019 17:45:00 10 C 53 % 0.87 C
3095 24-02-2019 17:50:00 9.8 C 53 % 0.69 C
3096 24-02-2019 17:55:00 9.6 C 54 % 0.76 C
3097 24-02-2019 18:00:00 9.3 C 55 % 0.74 C
3098 24-02-2019 18:05:00 9.1 C 56 % 0.8 C
3099 24-02-2019 18:10:00 8.8 C 56 % 0.52 C
3100 24-02-2019 18:15:00 8.7 C 56 % 0.43 C
Sensor: Nr:Datum:Temp:Feuchte:Taupunkt:
Aussen-T/F 3101 24-02-2019 18:20:00 8.6 C 56 % 0.33 C
3102 24-02-2019 18:25:00 8.4 C 56 % 0.15 C
3103 24-02-2019 18:30:00 8.4 C 57 % 0.39 C
3104 24-02-2019 18:35:00 8.3 C 56 % 0.05 C
3105 24-02-2019 18:40:00 8.2 C 57 % 0.2 C
3106 24-02-2019 18:45:00 8 C 58 % 0.25 C
3107 24-02-2019 18:50:00 7.8 C 59 % 0.3 C
3108 24-02-2019 18:55:00 7.7 C 58 % -0.03 C
3109 24-02-2019 19:00:00 7.6 C 59 % 0.11 C
3110 24-02-2019 19:05:00 7.4 C 59 % -0.07 C
3111 24-02-2019 19:10:00 7.2 C 60 % -0.03 C
3112 24-02-2019 19:15:00 7.2 C 60 % -0.03 C
3113 24-02-2019 19:20:00 7.1 C 59 % -0.36 C
3114 24-02-2019 19:25:00 7 C 62 % 0.23 C
3115 24-02-2019 19:30:00 6.8 C 61 % -0.18 C
3116 24-02-2019 19:35:00 6.7 C 61 % -0.28 C
3117 24-02-2019 19:40:00 6.6 C 62 % -0.15 C
3118 24-02-2019 19:45:00 6.4 C 62 % -0.34 C
3119 24-02-2019 19:50:00 6.3 C 64 % 0 C
3120 24-02-2019 19:55:00 6.1 C 64 % -0.19 C
3121 24-02-2019 20:00:00 5.9 C 62 % -0.81 C
3122 24-02-2019 20:05:00 5.8 C 65 % -0.26 C
3123 24-02-2019 20:10:00 5.7 C 64 % -0.56 C
3124 24-02-2019 20:15:00 5.5 C 64 % -0.75 C
3125 24-02-2019 20:20:00 5.2 C 65 % -0.83 C
Sensor: Nr:Datum:Temp:Feuchte:Taupunkt:
Aussen-T/F 3126 24-02-2019 20:25:00 4.9 C 67 % -0.7 C
3127 24-02-2019 20:30:00 4.6 C 69 % -0.58 C
3128 24-02-2019 20:35:00 4.4 C 68 % -0.98 C
3129 24-02-2019 20:40:00 4.3 C 67 % -1.27 C
3130 24-02-2019 20:45:00 4.4 C 68 % -0.98 C
3131 24-02-2019 20:50:00 4.3 C 68 % -1.07 C
3132 24-02-2019 20:55:00 4.2 C 70 % -0.77 C
3133 24-02-2019 21:00:00 4.1 C 71 % -0.67 C
3134 24-02-2019 21:05:00 3.9 C 70 % -1.06 C
3135 24-02-2019 21:10:00 3.8 C 71 % -0.96 C
3136 24-02-2019 21:15:00 3.7 C 71 % -1.06 C
3137 24-02-2019 21:20:00 3.7 C 71 % -1.06 C
3138 24-02-2019 21:25:00 3.5 C 72 % -1.06 C
3139 24-02-2019 21:30:00 3.3 C 71 % -1.44 C
3140 24-02-2019 21:35:00 3.1 C 72 % -1.45 C
3141 24-02-2019 21:40:00 2.9 C 73 % -1.45 C
3142 24-02-2019 21:45:00 2.8 C 73 % -1.55 C
3143 24-02-2019 21:50:00 2.8 C 72 % -1.73 C
3144 24-02-2019 21:55:00 2.8 C 71 % -1.92 C
3145 24-02-2019 22:00:00 2.8 C 71 % -1.92 C
3146 24-02-2019 22:05:00 2.8 C 74 % -1.36 C
3147 24-02-2019 22:10:00 2.6 C 76 % -1.19 C
3148 24-02-2019 22:15:00 2.5 C 77 % -1.11 C
3149 24-02-2019 22:20:00 2.4 C 76 % -1.39 C
3150 24-02-2019 22:25:00 2.4 C 76 % -1.39 C
Sensor: Nr:Datum:Temp:Feuchte:Taupunkt:
Aussen-T/F 3151 24-02-2019 22:30:00 2.4 C 74 % -1.75 C
3152 24-02-2019 22:35:00 2.5 C 74 % -1.65 C
3153 24-02-2019 22:40:00 2.6 C 74 % -1.56 C
3154 24-02-2019 22:45:00 2.6 C 74 % -1.56 C
3155 24-02-2019 22:50:00 2.5 C 74 % -1.65 C
3156 24-02-2019 22:55:00 2.4 C 74 % -1.75 C
3157 24-02-2019 23:00:00 2.2 C 75 % -1.76 C
3158 24-02-2019 23:05:00 2.1 C 76 % -1.68 C
3159 24-02-2019 23:10:00 1.9 C 77 % -1.69 C
3160 24-02-2019 23:15:00 1.7 C 78 % -1.71 C
3161 24-02-2019 23:20:00 1.6 C 79 % -1.64 C
3162 24-02-2019 23:25:00 1.5 C 79 % -1.74 C
3163 24-02-2019 23:30:00 1.6 C 78 % -1.81 C
3164 24-02-2019 23:35:00 1.7 C 77 % -1.89 C
3165 24-02-2019 23:40:00 1.8 C 77 % -1.79 C
3166 24-02-2019 23:45:00 1.8 C 77 % -1.79 C
3167 24-02-2019 23:50:00 1.9 C 77 % -1.69 C
3168 24-02-2019 23:55:00 2 C 76 % -1.77 C
3169 25-02-2019 00:00:00 1.8 C 76 % -1.97 C
3170 25-02-2019 00:05:00 1.8 C 77 % -1.79 C
3171 25-02-2019 00:10:00 1.7 C 77 % -1.89 C
3172 25-02-2019 00:15:00 1.4 C 77 % -2.18 C
3173 25-02-2019 00:20:00 1.3 C 78 % -2.1 C
3174 25-02-2019 00:25:00 1.2 C 79 % -2.03 C
3175 25-02-2019 00:30:00 1.1 C 80 % -1.96 C
Sensor: Nr:Datum:Temp:Feuchte:Taupunkt:
Aussen-T/F 3176 25-02-2019 00:35:00 0.9 C 80 % -2.15 C
3177 25-02-2019 00:40:00 0.8 C 80 % -2.25 C
3178 25-02-2019 00:45:00 0.7 C 81 % -2.18 C
3179 25-02-2019 00:50:00 0.7 C 81 % -2.18 C
3180 25-02-2019 00:55:00 0.7 C 81 % -2.18 C
3181 25-02-2019 01:00:00 1 C 81 % -1.88 C
3182 25-02-2019 01:05:00 1.2 C 80 % -1.86 C
3183 25-02-2019 01:10:00 1.3 C 80 % -1.76 C
3184 25-02-2019 01:15:00 1.1 C 80 % -1.96 C
3185 25-02-2019 01:20:00 0.9 C 81 % -1.98 C
3186 25-02-2019 01:25:00 0.9 C 81 % -1.98 C
3187 25-02-2019 01:30:00 0.9 C 81 % -1.98 C
3188 25-02-2019 01:35:00 1 C 81 % -1.88 C
3189 25-02-2019 01:40:00 0.9 C 81 % -1.98 C
3190 25-02-2019 01:45:00 0.7 C 81 % -2.18 C
3191 25-02-2019 01:50:00 0.6 C 82 % -2.11 C
3192 25-02-2019 01:55:00 0.6 C 83 % -1.95 C
3193 25-02-2019 02:00:00 0.7 C 83 % -1.85 C
3194 25-02-2019 02:05:00 0.6 C 82 % -2.11 C
3195 25-02-2019 02:10:00 0.4 C 82 % -2.3 C
3196 25-02-2019 02:15:00 0.3 C 83 % -2.24 C
3197 25-02-2019 02:20:00 0.2 C 83 % -2.34 C
3198 25-02-2019 02:25:00 0 C 83 % -2.53 C
3199 25-02-2019 02:30:00 -0.1 C 84 % -2.47 C
3200 25-02-2019 02:35:00 -0.1 C 84 % -2.47 C
Sensor: Nr:Datum:Temp:Feuchte:Taupunkt:
Aussen-T/F 3201 25-02-2019 02:40:00 -0.2 C 85 % -2.41 C
3202 25-02-2019 02:45:00 -0.2 C 85 % -2.41 C
3203 25-02-2019 02:50:00 -0.1 C 85 % -2.31 C
3204 25-02-2019 02:55:00 0.1 C 85 % -2.11 C
3205 25-02-2019 03:00:00 0.2 C 84 % -2.18 C
3206 25-02-2019 03:05:00 0.3 C 84 % -2.08 C
3207 25-02-2019 03:10:00 0.3 C 84 % -2.08 C
3208 25-02-2019 03:15:00 0.3 C 83 % -2.24 C
3209 25-02-2019 03:20:00 0.2 C 83 % -2.34 C
3210 25-02-2019 03:25:00 0.1 C 83 % -2.44 C
3211 25-02-2019 03:30:00 -0.1 C 83 % -2.63 C
3212 25-02-2019 03:35:00 -0.2 C 84 % -2.57 C
3213 25-02-2019 03:40:00 -0.2 C 85 % -2.41 C
3214 25-02-2019 03:45:00 -0.3 C 85 % -2.51 C
3215 25-02-2019 03:50:00 -0.3 C 85 % -2.51 C
3216 25-02-2019 03:55:00 -0.4 C 85 % -2.61 C
3217 25-02-2019 04:00:00 -0.5 C 85 % -2.71 C
3218 25-02-2019 04:05:00 -0.5 C 86 % -2.55 C
3219 25-02-2019 04:10:00 -0.5 C 86 % -2.55 C
3220 25-02-2019 04:15:00 -0.5 C 86 % -2.55 C
3221 25-02-2019 04:20:00 -0.6 C 86 % -2.65 C
3222 25-02-2019 04:25:00 -0.6 C 86 % -2.65 C
3223 25-02-2019 04:30:00 -0.6 C 86 % -2.65 C
3224 25-02-2019 04:35:00 -0.6 C 86 % -2.65 C
3225 25-02-2019 04:40:00 -0.6 C 86 % -2.65 C
Sensor: Nr:Datum:Temp:Feuchte:Taupunkt:
Aussen-T/F 3226 25-02-2019 04:45:00 -0.7 C 86 % -2.74 C
3227 25-02-2019 04:50:00 -0.7 C 87 % -2.59 C
3228 25-02-2019 04:55:00 -0.6 C 87 % -2.49 C
3229 25-02-2019 05:00:00 -0.6 C 87 % -2.49 C
3230 25-02-2019 05:05:00 -0.6 C 87 % -2.49 C
3231 25-02-2019 05:10:00 -0.6 C 87 % -2.49 C
3232 25-02-2019 05:15:00 -0.6 C 87 % -2.49 C
3233 25-02-2019 05:20:00 -0.7 C 87 % -2.59 C
3234 25-02-2019 05:25:00 -0.8 C 87 % -2.69 C
3235 25-02-2019 05:30:00 -0.8 C 87 % -2.69 C
3236 25-02-2019 05:35:00 -0.8 C 87 % -2.69 C
3237 25-02-2019 05:40:00 -0.9 C 87 % -2.79 C
3238 25-02-2019 05:45:00 -0.8 C 88 % -2.53 C
3239 25-02-2019 05:50:00 -0.7 C 88 % -2.44 C
3240 25-02-2019 05:55:00 -0.6 C 88 % -2.34 C
3241 25-02-2019 06:00:00 -0.6 C 88 % -2.34 C
3242 25-02-2019 06:05:00 -0.6 C 87 % -2.49 C
3243 25-02-2019 06:10:00 -0.7 C 87 % -2.59 C
3244 25-02-2019 06:15:00 -0.8 C 87 % -2.69 C
3245 25-02-2019 06:20:00 -0.8 C 88 % -2.53 C
3246 25-02-2019 06:25:00 -0.8 C 88 % -2.53 C
3247 25-02-2019 06:30:00 -0.9 C 88 % -2.63 C
3248 25-02-2019 06:35:00 -1 C 88 % -2.73 C
3249 25-02-2019 06:40:00 -1.1 C 88 % -2.83 C
3250 25-02-2019 06:45:00 -1.1 C 88 % -2.83 C
Sensor: Nr:Datum:Temp:Feuchte:Taupunkt:
Aussen-T/F 3251 25-02-2019 06:50:00 -1.1 C 89 % -2.68 C
3252 25-02-2019 06:55:00 -0.9 C 89 % -2.48 C
3253 25-02-2019 07:00:00 -0.9 C 88 % -2.63 C
3254 25-02-2019 07:05:00 -1 C 88 % -2.73 C
3255 25-02-2019 07:10:00 -1.1 C 88 % -2.83 C
3256 25-02-2019 07:15:00 -1.1 C 88 % -2.83 C
3257 25-02-2019 07:20:00 -1.2 C 88 % -2.93 C
3258 25-02-2019 07:25:00 -1.2 C 88 % -2.93 C
3259 25-02-2019 07:30:00 -1.3 C 88 % -3.03 C
3260 25-02-2019 07:35:00 -1.3 C 88 % -3.03 C
3261 25-02-2019 07:40:00 -1.3 C 88 % -3.03 C
3262 25-02-2019 07:45:00 -1.4 C 88 % -3.13 C
3263 25-02-2019 07:50:00 -1.4 C 89 % -2.97 C
3264 25-02-2019 07:55:00 -1.4 C 89 % -2.97 C
3265 25-02-2019 08:00:00 -1.4 C 89 % -2.97 C
3266 25-02-2019 08:05:00 -1.3 C 90 % -2.73 C
3267 25-02-2019 08:10:00 -1.2 C 90 % -2.63 C
3268 25-02-2019 08:15:00 -1.2 C 90 % -2.63 C
3269 25-02-2019 08:20:00 -1.2 C 89 % -2.78 C
3270 25-02-2019 08:25:00 -1.3 C 89 % -2.88 C
3271 25-02-2019 08:30:00 -1.2 C 90 % -2.63 C
3272 25-02-2019 08:35:00 -1.2 C 90 % -2.63 C
3273 25-02-2019 08:40:00 -1.1 C 90 % -2.53 C
3274 25-02-2019 08:45:00 -1.1 C 90 % -2.53 C
3275 25-02-2019 08:50:00 -1.1 C 90 % -2.53 C
Sensor: Nr:Datum:Temp:Feuchte:Taupunkt:
Aussen-T/F 3276 25-02-2019 08:55:00 -1.1 C 90 % -2.53 C
3277 25-02-2019 09:00:00 -0.9 C 90 % -2.33 C
3278 25-02-2019 09:05:00 -0.9 C 89 % -2.48 C
3279 25-02-2019 09:10:00 -0.9 C 89 % -2.48 C
3280 25-02-2019 09:15:00 -0.9 C 89 % -2.48 C
3281 25-02-2019 09:20:00 -0.8 C 89 % -2.38 C
3282 25-02-2019 09:25:00 -0.8 C 89 % -2.38 C
3283 25-02-2019 09:30:00 -0.7 C 89 % -2.28 C
3284 25-02-2019 09:35:00 -0.6 C 89 % -2.18 C
3285 25-02-2019 09:40:00 -0.6 C 89 % -2.18 C
3286 25-02-2019 09:45:00 -0.5 C 88 % -2.24 C
3287 25-02-2019 09:50:00 -0.4 C 88 % -2.14 C
3288 25-02-2019 09:55:00 -0.3 C 88 % -2.04 C
3289 25-02-2019 10:00:00 -0.3 C 88 % -2.04 C
3290 25-02-2019 10:05:00 -0.2 C 88 % -1.94 C
3291 25-02-2019 10:10:00 0 C 88 % -1.74 C
3292 25-02-2019 10:15:00 0.1 C 87 % -1.8 C
3293 25-02-2019 10:20:00 0.3 C 87 % -1.6 C
3294 25-02-2019 10:25:00 0.5 C 87 % -1.41 C
3295 25-02-2019 10:30:00 0.7 C 88 % -1.05 C
3296 25-02-2019 10:35:00 1 C 87 % -0.91 C
3297 25-02-2019 10:40:00 1.3 C 87 % -0.62 C
3298 25-02-2019 10:45:00 1.7 C 87 % -0.23 C
3299 25-02-2019 10:50:00 2.1 C 86 % 0.01 C
3300 25-02-2019 10:55:00 2.6 C 85 % 0.34 C
Sensor: Nr:Datum:Temp:Feuchte:Taupunkt:
Aussen-T/F 3301 25-02-2019 11:00:00 2.9 C 82 % 0.14 C
3302 25-02-2019 11:05:00 3.3 C 81 % 0.36 C
3303 25-02-2019 11:10:00 3.7 C 82 % 0.92 C
3304 25-02-2019 11:15:00 3.9 C 79 % 0.6 C
3305 25-02-2019 11:20:00 4.3 C 78 % 0.81 C
3306 25-02-2019 11:25:00 4.6 C 77 % 0.92 C
3307 25-02-2019 11:30:00 4.9 C 78 % 1.39 C
3308 25-02-2019 11:35:00 5.1 C 77 % 1.41 C
3309 25-02-2019 11:40:00 5.4 C 77 % 1.7 C
3310 25-02-2019 11:45:00 5.8 C 76 % 1.91 C
3311 25-02-2019 11:50:00 6 C 74 % 1.73 C
3312 25-02-2019 11:55:00 6.2 C 72 % 1.54 C
3313 25-02-2019 12:00:00 6.5 C 72 % 1.83 C
3314 25-02-2019 12:05:00 6.8 C 72 % 2.12 C
3315 25-02-2019 12:10:00 7.3 C 71 % 2.4 C
3316 25-02-2019 12:15:00 7.7 C 70 % 2.58 C
3317 25-02-2019 12:20:00 8.1 C 69 % 2.77 C
3318 25-02-2019 12:25:00 8.4 C 69 % 3.05 C
3319 25-02-2019 12:30:00 8.9 C 68 % 3.32 C
3320 25-02-2019 12:35:00 9.5 C 66 % 3.47 C
3321 25-02-2019 12:40:00 9.9 C 64 % 3.42 C
3322 25-02-2019 12:45:00 10.3 C 62 % 3.35 C
3323 25-02-2019 12:50:00 10.5 C 62 % 3.54 C
3324 25-02-2019 12:55:00 10.6 C 61 % 3.4 C
3325 25-02-2019 13:00:00 10.7 C 61 % 3.5 C
Sensor: Nr:Datum:Temp:Feuchte:Taupunkt:
Aussen-T/F 3326 25-02-2019 13:05:00 11 C 62 % 4.01 C
3327 25-02-2019 13:10:00 11.3 C 60 % 3.83 C
3328 25-02-2019 13:15:00 11.6 C 53 % 2.36 C
3329 25-02-2019 13:20:00 11.9 C 54 % 2.9 C
3330 25-02-2019 13:25:00 12.3 C 47 % 1.33 C
3331 25-02-2019 13:30:00 12.7 C 51 % 2.84 C
3332 25-02-2019 13:35:00 13.1 C 50 % 2.93 C
3333 25-02-2019 13:40:00 13.4 C 53 % 4.03 C
3334 25-02-2019 13:45:00 13.8 C 51 % 3.85 C
3335 25-02-2019 13:50:00 14.2 C 50 % 3.94 C
3336 25-02-2019 13:55:00 14.6 C 48 % 3.73 C
3337 25-02-2019 14:00:00 14.8 C 49 % 4.2 C
3338 25-02-2019 14:05:00 14.9 C 48 % 4 C
3339 25-02-2019 14:10:00 15 C 49 % 4.39 C
3340 25-02-2019 14:15:00 15.1 C 48 % 4.18 C
3341 25-02-2019 14:20:00 15 C 45 % 3.18 C
3342 25-02-2019 14:25:00 14.9 C 45 % 3.09 C
3343 25-02-2019 14:30:00 14.7 C 46 % 3.22 C
3344 25-02-2019 14:35:00 14.6 C 46 % 3.12 C
3345 25-02-2019 14:40:00 14.4 C 44 % 2.32 C
3346 25-02-2019 14:45:00 14.4 C 46 % 2.94 C
3347 25-02-2019 14:50:00 14.5 C 46 % 3.03 C
3348 25-02-2019 14:55:00 14.6 C 48 % 3.73 C
3349 25-02-2019 15:00:00 14.5 C 48 % 3.63 C
3350 25-02-2019 15:05:00 14.5 C 46 % 3.03 C
Sensor: Nr:Datum:Temp:Feuchte:Taupunkt:
Aussen-T/F 3351 25-02-2019 15:10:00 14.5 C 47 % 3.34 C
3352 25-02-2019 15:15:00 14.4 C 50 % 4.12 C
3353 25-02-2019 15:20:00 14.4 C 47 % 3.25 C
3354 25-02-2019 15:25:00 14.3 C 49 % 3.74 C
3355 25-02-2019 15:30:00 14.2 C 50 % 3.94 C
3356 25-02-2019 15:35:00 14 C 51 % 4.04 C
3357 25-02-2019 15:40:00 13.9 C 52 % 4.22 C
3358 25-02-2019 15:45:00 13.8 C 52 % 4.13 C
3359 25-02-2019 15:50:00 13.8 C 52 % 4.13 C
3360 25-02-2019 15:55:00 13.8 C 51 % 3.85 C
3361 25-02-2019 16:00:00 13.9 C 51 % 3.94 C
3362 25-02-2019 16:05:00 13.9 C 51 % 3.94 C
3363 25-02-2019 16:10:00 14.1 C 51 % 4.13 C
3364 25-02-2019 16:15:00 14.1 C 46 % 2.67 C
3365 25-02-2019 16:20:00 14.3 C 51 % 4.31 C
3366 25-02-2019 16:25:00 14.5 C 48 % 3.63 C
3367 25-02-2019 16:30:00 14.7 C 50 % 4.4 C
3368 25-02-2019 16:35:00 14.7 C 50 % 4.4 C
3369 25-02-2019 16:40:00 14.6 C 48 % 3.73 C
3370 25-02-2019 16:45:00 14.6 C 49 % 4.02 C
3371 25-02-2019 16:50:00 14.6 C 50 % 4.31 C
3372 25-02-2019 16:55:00 14.5 C 50 % 4.21 C
3373 25-02-2019 17:00:00 14.4 C 51 % 4.4 C
3374 25-02-2019 17:05:00 14.2 C 51 % 4.22 C
3375 25-02-2019 17:10:00 14.1 C 52 % 4.4 C
Sensor: Nr:Datum:Temp:Feuchte:Taupunkt:
Aussen-T/F 3376 25-02-2019 17:15:00 13.9 C 52 % 4.22 C
3377 25-02-2019 17:20:00 13.7 C 53 % 4.31 C
3378 25-02-2019 17:25:00 13.6 C 53 % 4.21 C
3379 25-02-2019 17:30:00 13.6 C 54 % 4.48 C
3380 25-02-2019 17:35:00 13.6 C 53 % 4.21 C
3381 25-02-2019 17:40:00 13.4 C 53 % 4.03 C
3382 25-02-2019 17:45:00 13.3 C 54 % 4.2 C
3383 25-02-2019 17:50:00 13.1 C 54 % 4.01 C
3384 25-02-2019 17:55:00 12.8 C 55 % 4 C
3385 25-02-2019 18:00:00 12.6 C 56 % 4.07 C
3386 25-02-2019 18:05:00 12.2 C 56 % 3.69 C
3387 25-02-2019 18:10:00 11.8 C 58 % 3.82 C
3388 25-02-2019 18:15:00 11.4 C 58 % 3.44 C
3389 25-02-2019 18:20:00 11.2 C 59 % 3.5 C
3390 25-02-2019 18:25:00 11 C 60 % 3.55 C
3391 25-02-2019 18:30:00 10.8 C 60 % 3.36 C
3392 25-02-2019 18:35:00 10.7 C 61 % 3.5 C
3393 25-02-2019 18:40:00 10.6 C 62 % 3.63 C
3394 25-02-2019 18:45:00 10.4 C 62 % 3.44 C
3395 25-02-2019 18:50:00 10.3 C 63 % 3.58 C
3396 25-02-2019 18:55:00 10.2 C 63 % 3.48 C
3397 25-02-2019 19:00:00 10 C 63 % 3.29 C
3398 25-02-2019 19:05:00 9.8 C 64 % 3.32 C
3399 25-02-2019 19:10:00 9.6 C 65 % 3.35 C
3400 25-02-2019 19:15:00 9.4 C 66 % 3.38 C
Sensor: Nr:Datum:Temp:Feuchte:Taupunkt:
Aussen-T/F 3401 25-02-2019 19:20:00 9.2 C 67 % 3.4 C
3402 25-02-2019 19:25:00 8.9 C 68 % 3.32 C
3403 25-02-2019 19:30:00 8.8 C 68 % 3.23 C
3404 25-02-2019 19:35:00 8.8 C 68 % 3.23 C
3405 25-02-2019 19:40:00 8.8 C 68 % 3.23 C
3406 25-02-2019 19:45:00 8.7 C 68 % 3.13 C
3407 25-02-2019 19:50:00 8.6 C 68 % 3.04 C
3408 25-02-2019 19:55:00 8.3 C 69 % 2.96 C
3409 25-02-2019 20:00:00 8.1 C 70 % 2.97 C
3410 25-02-2019 20:05:00 8 C 71 % 3.07 C
3411 25-02-2019 20:10:00 7.8 C 71 % 2.88 C
3412 25-02-2019 20:15:00 7.4 C 72 % 2.69 C
3413 25-02-2019 20:20:00 7.1 C 72 % 2.4 C
3414 25-02-2019 20:25:00 6.9 C 73 % 2.4 C
3415 25-02-2019 20:30:00 6.8 C 74 % 2.5 C
3416 25-02-2019 20:35:00 6.8 C 75 % 2.69 C
3417 25-02-2019 20:40:00 6.6 C 74 % 2.31 C
3418 25-02-2019 20:45:00 6.4 C 74 % 2.11 C
3419 25-02-2019 20:50:00 6.3 C 74 % 2.02 C
3420 25-02-2019 20:55:00 6.3 C 75 % 2.2 C
3421 25-02-2019 21:00:00 6.3 C 75 % 2.2 C
3422 25-02-2019 21:05:00 6.1 C 75 % 2.01 C
3423 25-02-2019 21:10:00 5.9 C 75 % 1.82 C
3424 25-02-2019 21:15:00 5.9 C 75 % 1.82 C
3425 25-02-2019 21:20:00 5.8 C 75 % 1.72 C
Sensor: Nr:Datum:Temp:Feuchte:Taupunkt:
Aussen-T/F 3426 25-02-2019 21:25:00 5.6 C 76 % 1.71 C
3427 25-02-2019 21:30:00 5.4 C 77 % 1.7 C
3428 25-02-2019 21:35:00 5.3 C 77 % 1.6 C
3429 25-02-2019 21:40:00 5.2 C 78 % 1.69 C
3430 25-02-2019 21:45:00 5.2 C 78 % 1.69 C
3431 25-02-2019 21:50:00 5.1 C 79 % 1.77 C
3432 25-02-2019 21:55:00 5.1 C 79 % 1.77 C
3433 25-02-2019 22:00:00 5 C 79 % 1.67 C
3434 25-02-2019 22:05:00 5 C 78 % 1.49 C
3435 25-02-2019 22:10:00 4.9 C 78 % 1.39 C
3436 25-02-2019 22:15:00 4.8 C 79 % 1.47 C
3437 25-02-2019 22:20:00 4.8 C 79 % 1.47 C
3438 25-02-2019 22:25:00 4.7 C 79 % 1.38 C
3439 25-02-2019 22:30:00 4.5 C 79 % 1.18 C
3440 25-02-2019 22:35:00 4.4 C 80 % 1.26 C
3441 25-02-2019 22:40:00 4.2 C 80 % 1.07 C
3442 25-02-2019 22:45:00 4.2 C 80 % 1.07 C
3443 25-02-2019 22:50:00 4.1 C 80 % 0.97 C
3444 25-02-2019 22:55:00 4 C 82 % 1.21 C
3445 25-02-2019 23:00:00 3.9 C 82 % 1.12 C
3446 25-02-2019 23:05:00 3.8 C 83 % 1.19 C
3447 25-02-2019 23:10:00 3.8 C 83 % 1.19 C
3448 25-02-2019 23:15:00 3.7 C 82 % 0.92 C
3449 25-02-2019 23:20:00 3.4 C 82 % 0.63 C
3450 25-02-2019 23:25:00 3.2 C 83 % 0.6 C
Sensor: Nr:Datum:Temp:Feuchte:Taupunkt:
Aussen-T/F 3451 25-02-2019 23:30:00 3.1 C 84 % 0.67 C
3452 25-02-2019 23:35:00 3 C 84 % 0.57 C
3453 25-02-2019 23:40:00 2.8 C 84 % 0.37 C
3454 25-02-2019 23:45:00 2.7 C 85 % 0.44 C
3455 25-02-2019 23:50:00 2.8 C 86 % 0.7 C
3456 25-02-2019 23:55:00 2.8 C 85 % 0.54 C
3457 26-02-2019 00:00:00 2.7 C 85 % 0.44 C
3458 26-02-2019 00:05:00 2.8 C 86 % 0.7 C
3459 26-02-2019 00:10:00 2.7 C 85 % 0.44 C
3460 26-02-2019 00:15:00 2.6 C 86 % 0.5 C
3461 26-02-2019 00:20:00 2.6 C 86 % 0.5 C
3462 26-02-2019 00:25:00 2.6 C 86 % 0.5 C
3463 26-02-2019 00:30:00 2.6 C 87 % 0.66 C
3464 26-02-2019 00:35:00 2.5 C 86 % 0.4 C
3465 26-02-2019 00:40:00 2.3 C 85 % 0.04 C
3466 26-02-2019 00:45:00 2 C 86 % -0.09 C
3467 26-02-2019 00:50:00 1.9 C 87 % -0.03 C
3468 26-02-2019 00:55:00 1.8 C 88 % 0.03 C
3469 26-02-2019 01:00:00 1.8 C 89 % 0.19 C
3470 26-02-2019 01:05:00 1.9 C 89 % 0.28 C
3471 26-02-2019 01:10:00 1.9 C 89 % 0.28 C
3472 26-02-2019 01:15:00 1.9 C 88 % 0.13 C
3473 26-02-2019 01:20:00 1.8 C 89 % 0.19 C
3474 26-02-2019 01:25:00 1.9 C 89 % 0.28 C
3475 26-02-2019 01:30:00 1.9 C 89 % 0.28 C
Sensor: Nr:Datum:Temp:Feuchte:Taupunkt:
Aussen-T/F 3476 26-02-2019 01:35:00 2.1 C 90 % 0.64 C
3477 26-02-2019 01:40:00 2.2 C 89 % 0.58 C
3478 26-02-2019 01:45:00 2.1 C 88 % 0.33 C
3479 26-02-2019 01:50:00 1.9 C 88 % 0.13 C
3480 26-02-2019 01:55:00 1.8 C 88 % 0.03 C
3481 26-02-2019 02:00:00 1.6 C 89 % -0.01 C
3482 26-02-2019 02:05:00 1.6 C 89 % -0.01 C
3483 26-02-2019 02:10:00 1.7 C 90 % 0.24 C
3484 26-02-2019 02:15:00 1.7 C 90 % 0.24 C
3485 26-02-2019 02:20:00 1.6 C 89 % -0.01 C
3486 26-02-2019 02:25:00 1.4 C 89 % -0.21 C
3487 26-02-2019 02:30:00 1.3 C 89 % -0.31 C
3488 26-02-2019 02:35:00 1.3 C 90 % -0.15 C
3489 26-02-2019 02:40:00 1.2 C 90 % -0.25 C
3490 26-02-2019 02:45:00 1.3 C 91 % 0 C
3491 26-02-2019 02:50:00 1.1 C 90 % -0.35 C
3492 26-02-2019 02:55:00 0.9 C 89 % -0.7 C
3493 26-02-2019 03:00:00 0.7 C 90 % -0.75 C
3494 26-02-2019 03:05:00 0.6 C 90 % -0.85 C
3495 26-02-2019 03:10:00 0.5 C 90 % -0.95 C
3496 26-02-2019 03:15:00 0.4 C 91 % -0.89 C
3497 26-02-2019 03:20:00 0.5 C 91 % -0.79 C
3498 26-02-2019 03:25:00 0.5 C 91 % -0.79 C
3499 26-02-2019 03:30:00 0.6 C 92 % -0.55 C
3500 26-02-2019 03:35:00 0.8 C 92 % -0.35 C
Sensor: Nr:Datum:Temp:Feuchte:Taupunkt:
Aussen-T/F 3501 26-02-2019 03:40:00 0.8 C 92 % -0.35 C
3502 26-02-2019 03:45:00 0.7 C 91 % -0.6 C
3503 26-02-2019 03:50:00 0.7 C 92 % -0.45 C
3504 26-02-2019 03:55:00 0.8 C 92 % -0.35 C
3505 26-02-2019 04:00:00 0.7 C 92 % -0.45 C
3506 26-02-2019 04:05:00 0.4 C 91 % -0.89 C
3507 26-02-2019 04:10:00 0.3 C 92 % -0.84 C
3508 26-02-2019 04:15:00 0.3 C 92 % -0.84 C
3509 26-02-2019 04:20:00 0.4 C 92 % -0.74 C
3510 26-02-2019 04:25:00 0.4 C 92 % -0.74 C
3511 26-02-2019 04:30:00 0.4 C 92 % -0.74 C
3512 26-02-2019 04:35:00 0.3 C 92 % -0.84 C
3513 26-02-2019 04:40:00 0.2 C 92 % -0.94 C
3514 26-02-2019 04:45:00 0.1 C 92 % -1.04 C
3515 26-02-2019 04:50:00 0.2 C 93 % -0.79 C
3516 26-02-2019 04:55:00 0.2 C 93 % -0.79 C
3517 26-02-2019 05:00:00 0.2 C 93 % -0.79 C
3518 26-02-2019 05:05:00 0.1 C 93 % -0.89 C
3519 26-02-2019 05:10:00 0.1 C 93 % -0.89 C
3520 26-02-2019 05:15:00 0.1 C 93 % -0.89 C
3521 26-02-2019 05:20:00 0 C 93 % -0.99 C
3522 26-02-2019 05:25:00 0.1 C 93 % -0.89 C
3523 26-02-2019 05:30:00 0.2 C 93 % -0.79 C
3524 26-02-2019 05:35:00 0.3 C 93 % -0.7 C
3525 26-02-2019 05:40:00 0.4 C 94 % -0.45 C
Sensor: Nr:Datum:Temp:Feuchte:Taupunkt:
Aussen-T/F 3526 26-02-2019 05:45:00 0.4 C 93 % -0.6 C
3527 26-02-2019 05:50:00 0.4 C 93 % -0.6 C
3528 26-02-2019 05:55:00 0.3 C 93 % -0.7 C
3529 26-02-2019 06:00:00 0.2 C 92 % -0.94 C
3530 26-02-2019 06:05:00 -0.1 C 92 % -1.24 C
3531 26-02-2019 06:10:00 -0.2 C 92 % -1.34 C
3532 26-02-2019 06:15:00 -0.3 C 92 % -1.44 C
3533 26-02-2019 06:20:00 -0.3 C 93 % -1.29 C
3534 26-02-2019 06:25:00 -0.4 C 93 % -1.39 C
3535 26-02-2019 06:30:00 -0.4 C 93 % -1.39 C
3536 26-02-2019 06:35:00 -0.4 C 93 % -1.39 C
3537 26-02-2019 06:40:00 -0.4 C 93 % -1.39 C
3538 26-02-2019 06:45:00 -0.6 C 93 % -1.59 C
3539 26-02-2019 06:50:00 -0.5 C 93 % -1.49 C
3540 26-02-2019 06:55:00 -0.4 C 94 % -1.25 C
3541 26-02-2019 07:00:00 -0.2 C 94 % -1.05 C
3542 26-02-2019 07:05:00 -0.2 C 94 % -1.05 C
3543 26-02-2019 07:10:00 -0.2 C 94 % -1.05 C
3544 26-02-2019 07:15:00 -0.3 C 93 % -1.29 C
3545 26-02-2019 07:20:00 -0.4 C 93 % -1.39 C
3546 26-02-2019 07:25:00 -0.6 C 93 % -1.59 C
3547 26-02-2019 07:30:00 -0.8 C 93 % -1.79 C
3548 26-02-2019 07:35:00 -0.8 C 93 % -1.79 C
3549 26-02-2019 07:40:00 -0.8 C 94 % -1.64 C
3550 26-02-2019 07:45:00 -0.6 C 94 % -1.44 C
Sensor: Nr:Datum:Temp:Feuchte:Taupunkt:
Aussen-T/F 3551 26-02-2019 07:50:00 -0.5 C 94 % -1.34 C
3552 26-02-2019 07:55:00 -0.4 C 94 % -1.25 C
3553 26-02-2019 08:00:00 -0.4 C 94 % -1.25 C
3554 26-02-2019 08:05:00 -0.3 C 94 % -1.15 C
3555 26-02-2019 08:10:00 -0.3 C 94 % -1.15 C
3556 26-02-2019 08:15:00 -0.3 C 94 % -1.15 C
3557 26-02-2019 08:20:00 -0.3 C 94 % -1.15 C
3558 26-02-2019 08:25:00 -0.3 C 94 % -1.15 C
3559 26-02-2019 08:30:00 -0.2 C 94 % -1.05 C
3560 26-02-2019 08:35:00 -0.1 C 95 % -0.8 C
3561 26-02-2019 08:40:00 0 C 95 % -0.7 C
3562 26-02-2019 08:45:00 0.2 C 95 % -0.5 C
3563 26-02-2019 08:50:00 0.3 C 95 % -0.4 C
3564 26-02-2019 08:55:00 0.4 C 95 % -0.31 C
3565 26-02-2019 09:00:00 0.4 C 94 % -0.45 C
3566 26-02-2019 09:05:00 0.4 C 94 % -0.45 C
3567 26-02-2019 09:10:00 0.5 C 94 % -0.35 C
3568 26-02-2019 09:15:00 0.6 C 95 % -0.11 C
3569 26-02-2019 09:20:00 0.7 C 95 % -0.01 C
3570 26-02-2019 09:25:00 0.8 C 95 % 0.09 C
3571 26-02-2019 09:30:00 0.9 C 95 % 0.19 C
3572 26-02-2019 09:35:00 0.9 C 95 % 0.19 C
3573 26-02-2019 09:40:00 0.9 C 95 % 0.19 C
3574 26-02-2019 09:45:00 1.1 C 95 % 0.39 C
3575 26-02-2019 09:50:00 1.2 C 95 % 0.49 C
Sensor: Nr:Datum:Temp:Feuchte:Taupunkt:
Aussen-T/F 3576 26-02-2019 09:55:00 1.3 C 95 % 0.59 C
3577 26-02-2019 10:00:00 1.6 C 95 % 0.89 C
3578 26-02-2019 10:05:00 1.7 C 95 % 0.99 C
3579 26-02-2019 10:10:00 1.8 C 95 % 1.09 C
3580 26-02-2019 10:15:00 1.9 C 95 % 1.19 C
3581 26-02-2019 10:20:00 2.1 C 95 % 1.38 C
3582 26-02-2019 10:25:00 2.3 C 95 % 1.58 C
3583 26-02-2019 10:30:00 2.5 C 95 % 1.78 C
3584 26-02-2019 10:35:00 2.9 C 95 % 2.18 C
3585 26-02-2019 10:40:00 3.2 C 94 % 2.33 C
3586 26-02-2019 10:45:00 3.5 C 94 % 2.63 C
3587 26-02-2019 10:50:00 3.8 C 93 % 2.77 C
3588 26-02-2019 10:55:00 4 C 92 % 2.82 C
3589 26-02-2019 11:00:00 4.3 C 91 % 2.96 C
3590 26-02-2019 11:05:00 4.5 C 90 % 3.01 C
3591 26-02-2019 11:10:00 4.8 C 90 % 3.3 C
3592 26-02-2019 11:15:00 5.1 C 90 % 3.6 C
3593 26-02-2019 11:20:00 5.4 C 90 % 3.89 C
3594 26-02-2019 11:25:00 5.7 C 89 % 4.03 C
3595 26-02-2019 11:30:00 5.9 C 87 % 3.91 C
3596 26-02-2019 11:35:00 6.2 C 85 % 3.87 C
3597 26-02-2019 11:40:00 6.4 C 84 % 3.9 C
3598 26-02-2019 11:45:00 6.7 C 82 % 3.85 C
3599 26-02-2019 11:50:00 6.9 C 81 % 3.87 C
3600 26-02-2019 11:55:00 7.1 C 81 % 4.07 C
Sensor: Nr:Datum:Temp:Feuchte:Taupunkt:
Aussen-T/F 3601 26-02-2019 12:00:00 7.3 C 81 % 4.26 C
3602 26-02-2019 12:05:00 7.5 C 80 % 4.28 C
3603 26-02-2019 12:10:00 7.8 C 76 % 3.84 C
3604 26-02-2019 12:15:00 8.3 C 75 % 4.14 C
3605 26-02-2019 12:20:00 8.8 C 73 % 4.24 C
3606 26-02-2019 12:25:00 9.3 C 73 % 4.72 C
3607 26-02-2019 12:30:00 9.8 C 71 % 4.8 C
3608 26-02-2019 12:35:00 10.3 C 69 % 4.87 C
3609 26-02-2019 12:40:00 10.8 C 69 % 5.35 C
3610 26-02-2019 12:45:00 11.2 C 65 % 4.87 C
3611 26-02-2019 12:50:00 11.4 C 68 % 5.71 C
3612 26-02-2019 12:55:00 11.6 C 69 % 6.11 C
3613 26-02-2019 13:00:00 11.7 C 68 % 6 C
3614 26-02-2019 13:05:00 11.9 C 68 % 6.19 C
3615 26-02-2019 13:10:00 12.3 C 70 % 6.99 C
3616 26-02-2019 13:15:00 12.7 C 69 % 7.17 C
3617 26-02-2019 13:20:00 13.2 C 67 % 7.21 C
3618 26-02-2019 13:25:00 13.7 C 66 % 7.47 C
3619 26-02-2019 13:30:00 14.1 C 66 % 7.85 C
3620 26-02-2019 13:35:00 14.5 C 65 % 8.01 C
3621 26-02-2019 13:40:00 14.9 C 64 % 8.16 C
3622 26-02-2019 13:45:00 15.4 C 61 % 7.93 C
3623 26-02-2019 13:50:00 15.8 C 60 % 8.06 C
3624 26-02-2019 13:55:00 16.1 C 59 % 8.09 C
3625 26-02-2019 14:00:00 16.4 C 58 % 8.12 C
Sensor: Nr:Datum:Temp:Feuchte:Taupunkt:
Aussen-T/F 3626 26-02-2019 14:05:00 16.6 C 55 % 7.53 C
3627 26-02-2019 14:10:00 16.7 C 55 % 7.62 C
3628 26-02-2019 14:15:00 16.8 C 54 % 7.45 C
3629 26-02-2019 14:20:00 16.7 C 54 % 7.36 C
3630 26-02-2019 14:25:00 16.4 C 54 % 7.08 C
3631 26-02-2019 14:30:00 16.2 C 54 % 6.89 C
3632 26-02-2019 14:35:00 15.9 C 54 % 6.61 C
3633 26-02-2019 14:40:00 15.7 C 56 % 6.96 C
3634 26-02-2019 14:45:00 15.6 C 56 % 6.86 C
3635 26-02-2019 14:50:00 15.5 C 57 % 7.03 C
3636 26-02-2019 14:55:00 15.4 C 57 % 6.93 C
3637 26-02-2019 15:00:00 15.3 C 55 % 6.32 C
3638 26-02-2019 15:05:00 15.4 C 57 % 6.93 C
3639 26-02-2019 15:10:00 15.5 C 56 % 6.77 C
3640 26-02-2019 15:15:00 15.5 C 56 % 6.77 C
3641 26-02-2019 15:20:00 15.5 C 55 % 6.51 C
3642 26-02-2019 15:25:00 15.5 C 55 % 6.51 C
3643 26-02-2019 15:30:00 15.4 C 55 % 6.42 C
3644 26-02-2019 15:35:00 15.4 C 54 % 6.15 C
3645 26-02-2019 15:40:00 15.6 C 55 % 6.6 C
3646 26-02-2019 15:45:00 15.6 C 55 % 6.6 C
3647 26-02-2019 15:50:00 15.6 C 55 % 6.6 C
3648 26-02-2019 15:55:00 15.6 C 55 % 6.6 C
3649 26-02-2019 16:00:00 15.6 C 54 % 6.34 C
3650 26-02-2019 16:05:00 15.7 C 54 % 6.43 C
Sensor: Nr:Datum:Temp:Feuchte:Taupunkt:
Aussen-T/F 3651 26-02-2019 16:10:00 15.7 C 54 % 6.43 C
3652 26-02-2019 16:15:00 15.7 C 54 % 6.43 C
3653 26-02-2019 16:20:00 15.7 C 55 % 6.69 C
3654 26-02-2019 16:25:00 15.6 C 54 % 6.34 C
3655 26-02-2019 16:30:00 15.5 C 55 % 6.51 C
3656 26-02-2019 16:35:00 15.4 C 56 % 6.68 C
3657 26-02-2019 16:40:00 15.2 C 57 % 6.75 C
3658 26-02-2019 16:45:00 15.1 C 57 % 6.65 C
3659 26-02-2019 16:50:00 15.1 C 58 % 6.91 C
3660 26-02-2019 16:55:00 15 C 58 % 6.81 C
3661 26-02-2019 17:00:00 14.9 C 58 % 6.72 C
3662 26-02-2019 17:05:00 14.9 C 58 % 6.72 C
3663 26-02-2019 17:10:00 14.9 C 58 % 6.72 C
3664 26-02-2019 17:15:00 14.8 C 59 % 6.87 C
3665 26-02-2019 17:20:00 14.8 C 59 % 6.87 C
3666 26-02-2019 17:25:00 14.9 C 59 % 6.97 C
3667 26-02-2019 17:30:00 14.9 C 58 % 6.72 C
3668 26-02-2019 17:35:00 14.8 C 58 % 6.63 C
3669 26-02-2019 17:40:00 14.8 C 58 % 6.63 C
3670 26-02-2019 17:45:00 14.7 C 59 % 6.78 C
3671 26-02-2019 17:50:00 14.5 C 59 % 6.59 C
3672 26-02-2019 17:55:00 14.2 C 59 % 6.31 C
3673 26-02-2019 18:00:00 13.9 C 60 % 6.27 C
3674 26-02-2019 18:05:00 13.6 C 61 % 6.23 C
3675 26-02-2019 18:10:00 13.3 C 61 % 5.95 C
Sensor: Nr:Datum:Temp:Feuchte:Taupunkt:
Aussen-T/F 3676 26-02-2019 18:15:00 13 C 62 % 5.9 C
3677 26-02-2019 18:20:00 12.8 C 63 % 5.94 C
3678 26-02-2019 18:25:00 12.6 C 64 % 5.98 C
3679 26-02-2019 18:30:00 12.3 C 64 % 5.69 C
3680 26-02-2019 18:35:00 12.2 C 64 % 5.6 C
3681 26-02-2019 18:40:00 12.1 C 65 % 5.73 C
3682 26-02-2019 18:45:00 11.9 C 66 % 5.76 C
3683 26-02-2019 18:50:00 11.7 C 66 % 5.57 C
3684 26-02-2019 18:55:00 11.4 C 67 % 5.5 C
3685 26-02-2019 19:00:00 11.3 C 68 % 5.62 C
3686 26-02-2019 19:05:00 11.1 C 68 % 5.43 C
3687 26-02-2019 19:10:00 10.8 C 69 % 5.35 C
3688 26-02-2019 19:15:00 10.7 C 70 % 5.46 C
3689 26-02-2019 19:20:00 10.6 C 71 % 5.57 C
3690 26-02-2019 19:25:00 10.4 C 71 % 5.38 C
3691 26-02-2019 19:30:00 10.4 C 72 % 5.58 C
3692 26-02-2019 19:35:00 10.3 C 72 % 5.48 C
3693 26-02-2019 19:40:00 10.1 C 72 % 5.29 C
3694 26-02-2019 19:45:00 9.7 C 73 % 5.1 C
3695 26-02-2019 19:50:00 9.4 C 75 % 5.2 C
3696 26-02-2019 19:55:00 9.3 C 75 % 5.1 C
3697 26-02-2019 20:00:00 9.2 C 74 % 4.81 C
3698 26-02-2019 20:05:00 8.8 C 74 % 4.43 C
3699 26-02-2019 20:10:00 8.6 C 75 % 4.43 C
3700 26-02-2019 20:15:00 8.5 C 76 % 4.52 C
Sensor: Nr:Datum:Temp:Feuchte:Taupunkt:
Aussen-T/F 3701 26-02-2019 20:20:00 8.4 C 77 % 4.61 C
3702 26-02-2019 20:25:00 8.1 C 77 % 4.32 C
3703 26-02-2019 20:30:00 7.9 C 77 % 4.12 C
3704 26-02-2019 20:35:00 7.9 C 77 % 4.12 C
3705 26-02-2019 20:40:00 7.9 C 77 % 4.12 C
3706 26-02-2019 20:45:00 7.8 C 77 % 4.03 C
3707 26-02-2019 20:50:00 7.7 C 77 % 3.93 C
3708 26-02-2019 20:55:00 7.4 C 78 % 3.82 C
3709 26-02-2019 21:00:00 7.3 C 79 % 3.91 C
3710 26-02-2019 21:05:00 7.2 C 79 % 3.81 C
3711 26-02-2019 21:10:00 7 C 79 % 3.61 C
3712 26-02-2019 21:15:00 6.9 C 80 % 3.7 C
3713 26-02-2019 21:20:00 6.7 C 81 % 3.68 C
3714 26-02-2019 21:25:00 6.8 C 83 % 4.12 C
3715 26-02-2019 21:30:00 6.8 C 82 % 3.95 C
3716 26-02-2019 21:35:00 6.8 C 81 % 3.77 C
3717 26-02-2019 21:40:00 6.7 C 81 % 3.68 C
3718 26-02-2019 21:45:00 6.6 C 82 % 3.75 C
3719 26-02-2019 21:50:00 6.4 C 82 % 3.56 C
3720 26-02-2019 21:55:00 6.4 C 82 % 3.56 C
3721 26-02-2019 22:00:00 6.3 C 82 % 3.46 C
3722 26-02-2019 22:05:00 6.2 C 83 % 3.53 C
3723 26-02-2019 22:10:00 6.2 C 83 % 3.53 C
3724 26-02-2019 22:15:00 6.2 C 82 % 3.36 C
3725 26-02-2019 22:20:00 5.9 C 82 % 3.07 C
Sensor: Nr:Datum:Temp:Feuchte:Taupunkt:
Aussen-T/F 3726 26-02-2019 22:25:00 5.7 C 83 % 3.04 C
3727 26-02-2019 22:30:00 5.6 C 84 % 3.12 C
3728 26-02-2019 22:35:00 5.4 C 84 % 2.92 C
3729 26-02-2019 22:40:00 5.2 C 84 % 2.72 C
3730 26-02-2019 22:45:00 4.9 C 85 % 2.6 C
3731 26-02-2019 22:50:00 4.9 C 86 % 2.76 C
3732 26-02-2019 22:55:00 4.9 C 87 % 2.92 C
3733 26-02-2019 23:00:00 4.8 C 85 % 2.5 C
3734 26-02-2019 23:05:00 4.7 C 86 % 2.56 C
3735 26-02-2019 23:10:00 4.7 C 87 % 2.73 C
3736 26-02-2019 23:15:00 4.8 C 88 % 2.99 C
3737 26-02-2019 23:20:00 4.8 C 87 % 2.82 C
3738 26-02-2019 23:25:00 4.8 C 87 % 2.82 C
3739 26-02-2019 23:30:00 4.6 C 86 % 2.47 C
3740 26-02-2019 23:35:00 4.4 C 86 % 2.27 C
3741 26-02-2019 23:40:00 4.3 C 87 % 2.33 C
3742 26-02-2019 23:45:00 4.3 C 88 % 2.49 C
3743 26-02-2019 23:50:00 4.3 C 89 % 2.65 C
3744 26-02-2019 23:55:00 4.3 C 88 % 2.49 C
3745 27-02-2019 00:00:00 4.1 C 88 % 2.3 C
3746 27-02-2019 00:05:00 4 C 88 % 2.2 C
3747 27-02-2019 00:10:00 3.8 C 89 % 2.16 C
3748 27-02-2019 00:15:00 3.6 C 88 % 1.8 C
3749 27-02-2019 00:20:00 3.6 C 89 % 1.96 C
3750 27-02-2019 00:25:00 3.6 C 90 % 2.12 C
Sensor: Nr:Datum:Temp:Feuchte:Taupunkt:
Aussen-T/F 3751 27-02-2019 00:30:00 3.6 C 90 % 2.12 C
3752 27-02-2019 00:35:00 3.5 C 90 % 2.02 C
3753 27-02-2019 00:40:00 3.3 C 89 % 1.67 C
3754 27-02-2019 00:45:00 3.1 C 89 % 1.47 C
3755 27-02-2019 00:50:00 3.2 C 91 % 1.88 C
3756 27-02-2019 00:55:00 3.3 C 91 % 1.98 C
3757 27-02-2019 01:00:00 3.2 C 90 % 1.72 C
3758 27-02-2019 01:05:00 3 C 90 % 1.52 C
3759 27-02-2019 01:10:00 2.9 C 90 % 1.43 C
3760 27-02-2019 01:15:00 2.8 C 91 % 1.48 C
3761 27-02-2019 01:20:00 2.8 C 91 % 1.48 C
3762 27-02-2019 01:25:00 2.9 C 92 % 1.73 C
3763 27-02-2019 01:30:00 3 C 92 % 1.83 C
3764 27-02-2019 01:35:00 2.9 C 91 % 1.58 C
3765 27-02-2019 01:40:00 2.8 C 91 % 1.48 C
3766 27-02-2019 01:45:00 2.7 C 92 % 1.53 C
3767 27-02-2019 01:50:00 2.7 C 92 % 1.53 C
3768 27-02-2019 01:55:00 2.5 C 91 % 1.18 C
3769 27-02-2019 02:00:00 2.3 C 91 % 0.99 C
3770 27-02-2019 02:05:00 2.3 C 91 % 0.99 C
3771 27-02-2019 02:10:00 2.2 C 92 % 1.04 C
3772 27-02-2019 02:15:00 2.2 C 92 % 1.04 C
3773 27-02-2019 02:20:00 2 C 92 % 0.84 C
3774 27-02-2019 02:25:00 2.1 C 93 % 1.09 C
3775 27-02-2019 02:30:00 2.3 C 93 % 1.29 C
Sensor: Nr:Datum:Temp:Feuchte:Taupunkt:
Aussen-T/F 3776 27-02-2019 02:35:00 2.6 C 94 % 1.73 C
3777 27-02-2019 02:40:00 2.6 C 94 % 1.73 C
3778 27-02-2019 02:45:00 2.4 C 92 % 1.24 C
3779 27-02-2019 02:50:00 2.1 C 92 % 0.94 C
3780 27-02-2019 02:55:00 1.9 C 92 % 0.74 C
3781 27-02-2019 03:00:00 1.9 C 93 % 0.89 C
3782 27-02-2019 03:05:00 1.9 C 93 % 0.89 C
3783 27-02-2019 03:10:00 1.9 C 93 % 0.89 C
3784 27-02-2019 03:15:00 1.7 C 92 % 0.54 C
3785 27-02-2019 03:20:00 1.6 C 93 % 0.59 C
3786 27-02-2019 03:25:00 1.5 C 93 % 0.49 C
3787 27-02-2019 03:30:00 1.3 C 93 % 0.3 C
3788 27-02-2019 03:35:00 1.2 C 93 % 0.2 C
3789 27-02-2019 03:40:00 1.3 C 94 % 0.44 C
3790 27-02-2019 03:45:00 1.3 C 93 % 0.3 C
3791 27-02-2019 03:50:00 1 C 93 % 0 C
3792 27-02-2019 03:55:00 0.9 C 93 % -0.1 C
3793 27-02-2019 04:00:00 1 C 94 % 0.15 C
3794 27-02-2019 04:05:00 0.9 C 93 % -0.1 C
3795 27-02-2019 04:10:00 0.9 C 94 % 0.05 C
3796 27-02-2019 04:15:00 1 C 94 % 0.15 C
3797 27-02-2019 04:20:00 0.9 C 94 % 0.05 C
3798 27-02-2019 04:25:00 0.8 C 93 % -0.2 C
3799 27-02-2019 04:30:00 0.7 C 94 % -0.15 C
3800 27-02-2019 04:35:00 0.7 C 94 % -0.15 C
Sensor: Nr:Datum:Temp:Feuchte:Taupunkt:
Aussen-T/F 3801 27-02-2019 04:40:00 0.7 C 94 % -0.15 C
3802 27-02-2019 04:45:00 0.6 C 94 % -0.25 C
3803 27-02-2019 04:50:00 0.6 C 94 % -0.25 C
3804 27-02-2019 04:55:00 0.6 C 94 % -0.25 C
3805 27-02-2019 05:00:00 0.7 C 94 % -0.15 C
3806 27-02-2019 05:05:00 0.7 C 94 % -0.15 C
3807 27-02-2019 05:10:00 0.6 C 94 % -0.25 C
3808 27-02-2019 05:15:00 0.6 C 95 % -0.11 C
3809 27-02-2019 05:20:00 0.6 C 95 % -0.11 C
3810 27-02-2019 05:25:00 0.6 C 95 % -0.11 C
3811 27-02-2019 05:30:00 0.5 C 94 % -0.35 C
3812 27-02-2019 05:35:00 0.4 C 94 % -0.45 C
3813 27-02-2019 05:40:00 0.4 C 94 % -0.45 C
3814 27-02-2019 05:45:00 0.4 C 95 % -0.31 C
3815 27-02-2019 05:50:00 0.3 C 95 % -0.4 C
3816 27-02-2019 05:55:00 0.2 C 94 % -0.65 C
3817 27-02-2019 06:00:00 0.2 C 94 % -0.65 C
3818 27-02-2019 06:05:00 0.2 C 95 % -0.5 C
3819 27-02-2019 06:10:00 0.2 C 95 % -0.5 C
3820 27-02-2019 06:15:00 0.1 C 95 % -0.6 C
3821 27-02-2019 06:20:00 0 C 95 % -0.7 C
3822 27-02-2019 06:25:00 0.1 C 95 % -0.6 C
3823 27-02-2019 06:30:00 0.2 C 95 % -0.5 C
3824 27-02-2019 06:35:00 0.3 C 95 % -0.4 C
3825 27-02-2019 06:40:00 0.3 C 95 % -0.4 C
Sensor: Nr:Datum:Temp:Feuchte:Taupunkt:
Aussen-T/F 3826 27-02-2019 06:45:00 0.1 C 95 % -0.6 C
3827 27-02-2019 06:50:00 -0.1 C 95 % -0.8 C
3828 27-02-2019 06:55:00 -0.1 C 95 % -0.8 C
3829 27-02-2019 07:00:00 -0.2 C 95 % -0.9 C
3830 27-02-2019 07:05:00 -0.2 C 95 % -0.9 C
3831 27-02-2019 07:10:00 -0.2 C 95 % -0.9 C
3832 27-02-2019 07:15:00 -0.2 C 95 % -0.9 C
3833 27-02-2019 07:20:00 -0.3 C 95 % -1 C
3834 27-02-2019 07:25:00 -0.4 C 95 % -1.1 C
3835 27-02-2019 07:30:00 -0.6 C 95 % -1.3 C
3836 27-02-2019 07:35:00 -0.6 C 95 % -1.3 C
3837 27-02-2019 07:40:00 -0.6 C 95 % -1.3 C
3838 27-02-2019 07:45:00 -0.4 C 95 % -1.1 C
3839 27-02-2019 07:50:00 -0.4 C 95 % -1.1 C
3840 27-02-2019 07:55:00 -0.4 C 95 % -1.1 C
3841 27-02-2019 08:00:00 -0.4 C 95 % -1.1 C
3842 27-02-2019 08:05:00 -0.4 C 95 % -1.1 C
3843 27-02-2019 08:10:00 -0.4 C 95 % -1.1 C
3844 27-02-2019 08:15:00 -0.4 C 95 % -1.1 C
3845 27-02-2019 08:20:00 -0.4 C 95 % -1.1 C
3846 27-02-2019 08:25:00 -0.4 C 95 % -1.1 C
3847 27-02-2019 08:30:00 -0.3 C 96 % -0.86 C
3848 27-02-2019 08:35:00 -0.2 C 96 % -0.76 C
3849 27-02-2019 08:40:00 -0.2 C 96 % -0.76 C
3850 27-02-2019 08:45:00 -0.1 C 96 % -0.66 C
Sensor: Nr:Datum:Temp:Feuchte:Taupunkt:
Aussen-T/F 3851 27-02-2019 08:50:00 0 C 96 % -0.56 C
3852 27-02-2019 08:55:00 0.1 C 96 % -0.46 C
3853 27-02-2019 09:00:00 0.1 C 96 % -0.46 C
3854 27-02-2019 09:05:00 0.2 C 96 % -0.36 C
3855 27-02-2019 09:10:00 0.2 C 96 % -0.36 C
3856 27-02-2019 09:15:00 0.2 C 96 % -0.36 C
3857 27-02-2019 09:20:00 0.2 C 96 % -0.36 C
3858 27-02-2019 09:25:00 0.3 C 96 % -0.26 C
3859 27-02-2019 09:30:00 0.3 C 96 % -0.26 C
3860 27-02-2019 09:35:00 0.4 C 96 % -0.16 C
3861 27-02-2019 09:40:00 0.6 C 96 % 0.04 C
3862 27-02-2019 09:45:00 0.7 C 96 % 0.14 C
3863 27-02-2019 09:50:00 0.8 C 96 % 0.24 C
3864 27-02-2019 09:55:00 1 C 96 % 0.44 C
3865 27-02-2019 10:00:00 1.2 C 96 % 0.63 C
3866 27-02-2019 10:05:00 1.3 C 96 % 0.73 C
3867 27-02-2019 10:10:00 1.4 C 96 % 0.83 C
3868 27-02-2019 10:15:00 1.6 C 97 % 1.18 C
3869 27-02-2019 10:20:00 1.7 C 96 % 1.13 C
3870 27-02-2019 10:25:00 2 C 97 % 1.58 C
3871 27-02-2019 10:30:00 2.4 C 97 % 1.97 C
3872 27-02-2019 10:35:00 2.8 C 97 % 2.37 C
3873 27-02-2019 10:40:00 3.2 C 97 % 2.77 C
3874 27-02-2019 10:45:00 3.4 C 97 % 2.97 C
3875 27-02-2019 10:50:00 3.7 C 97 % 3.27 C
Sensor: Nr:Datum:Temp:Feuchte:Taupunkt:
Aussen-T/F 3876 27-02-2019 10:55:00 4.1 C 97 % 3.67 C
3877 27-02-2019 11:00:00 4.3 C 97 % 3.87 C
3878 27-02-2019 11:05:00 4.5 C 97 % 4.07 C
3879 27-02-2019 11:10:00 4.7 C 97 % 4.27 C
3880 27-02-2019 11:15:00 5 C 97 % 4.56 C
3881 27-02-2019 11:20:00 5.2 C 97 % 4.76 C
3882 27-02-2019 11:25:00 5.4 C 97 % 4.96 C
3883 27-02-2019 11:30:00 5.7 C 96 % 5.11 C
3884 27-02-2019 11:35:00 5.8 C 95 % 5.06 C
3885 27-02-2019 11:40:00 6 C 94 % 5.11 C
3886 27-02-2019 11:45:00 6.2 C 93 % 5.15 C
3887 27-02-2019 11:50:00 6.5 C 91 % 5.14 C
3888 27-02-2019 11:55:00 6.7 C 90 % 5.18 C
3889 27-02-2019 12:00:00 7 C 89 % 5.31 C
3890 27-02-2019 12:05:00 7.4 C 90 % 5.87 C
3891 27-02-2019 12:10:00 7.8 C 88 % 5.94 C
3892 27-02-2019 12:15:00 8.4 C 89 % 6.7 C
3893 27-02-2019 12:20:00 9.1 C 87 % 7.05 C
3894 27-02-2019 12:25:00 9.6 C 85 %